Time,TemperatureF,DewpointF,PressureIn,WindDirection,WindDirectionDegrees,WindSpeedMPH,WindSpeedGustMPH,Humidity,HourlyPrecipIn,Conditions,Clouds,dailyrainin,SoftwareType,DateUTC
2013-06-12 00:00:00,69.1,61.6,29.03,SSE,158,0.0,0.0,77,0.00,,,0.00,VWS V14.01,2013-06-12 05:00:00,
2013-06-12 00:01:00,69.1,61.6,29.03,SSE,158,0.0,0.0,77,0.00,,CLR,0.00,VWS V14.01,2013-06-12 05:01:00,
2013-06-12 00:02:00,69.1,61.6,29.03,SSE,158,0.0,0.0,77,0.00,,,0.00,VWS V14.01,2013-06-12 05:02:00,
2013-06-12 00:03:00,69.1,61.6,29.03,SSE,158,0.0,0.0,77,0.00,,,0.00,VWS V14.01,2013-06-12 05:03:00,
2013-06-12 00:04:00,69.1,61.6,29.03,SSE,158,0.0,0.0,77,0.00,,,0.00,VWS V14.01,2013-06-12 05:04:00,
2013-06-12 00:05:00,69.1,61.6,29.03,SSE,158,0.0,0.0,77,0.00,,,0.00,VWS V14.01,2013-06-12 05:05:00,
2013-06-12 00:06:00,69.1,61.6,29.03,SSE,158,0.0,0.0,77,0.00,,CLR,0.00,VWS V14.01,2013-06-12 05:06:00,
2013-06-12 00:07:00,68.9,61.8,29.03,SSE,158,0.0,0.0,78,0.00,,,0.00,VWS V14.01,2013-06-12 05:07:00,
2013-06-12 00:08:00,68.9,61.8,29.03,SSE,158,0.0,0.0,78,0.00,,,0.00,VWS V14.01,2013-06-12 05:08:00,
2013-06-12 00:09:00,68.9,61.8,29.00,SSE,158,0.0,0.0,78,0.00,,,0.00,VWS V14.01,2013-06-12 05:09:00,
2013-06-12 00:10:00,68.9,61.8,29.00,SSE,158,0.0,0.0,78,0.00,,,0.00,VWS V14.01,2013-06-12 05:10:00,
2013-06-12 00:11:00,68.9,61.8,29.00,SSE,158,0.0,0.0,78,0.00,,CLR,0.00,VWS V14.01,2013-06-12 05:11:00,
2013-06-12 00:12:00,68.9,61.8,29.00,SSE,158,0.0,0.0,78,0.00,,,0.00,VWS V14.01,2013-06-12 05:12:00,
2013-06-12 00:13:00,68.9,61.8,29.00,SSE,158,0.0,0.0,78,0.00,,,0.00,VWS V14.01,2013-06-12 05:13:00,
2013-06-12 00:14:00,68.9,61.8,29.00,SSE,158,0.0,0.0,78,0.00,,,0.00,VWS V14.01,2013-06-12 05:14:00,
2013-06-12 00:15:00,68.9,61.8,29.00,SSE,158,0.0,0.0,78,0.00,,,0.00,VWS V14.01,2013-06-12 05:15:00,
2013-06-12 00:16:00,68.9,61.8,29.00,SSE,158,0.0,0.0,78,0.00,,CLR,0.00,VWS V14.01,2013-06-12 05:16:00,
2013-06-12 00:17:00,68.9,61.8,29.00,SSE,158,0.0,0.0,78,0.00,,,0.00,VWS V14.01,2013-06-12 05:17:00,
2013-06-12 00:18:00,68.9,61.8,29.00,SSE,158,0.0,0.0,78,0.00,,,0.00,VWS V14.01,2013-06-12 05:18:00,
2013-06-12 00:19:00,68.9,61.8,29.00,SSE,158,0.0,0.0,78,0.00,,,0.00,VWS V14.01,2013-06-12 05:19:00,
2013-06-12 00:20:00,68.9,61.8,29.00,SSE,158,0.0,0.0,78,0.00,,,0.00,VWS V14.01,2013-06-12 05:20:00,
2013-06-12 00:21:00,68.9,61.8,29.00,SSE,158,0.0,0.0,78,0.00,,CLR,0.00,VWS V14.01,2013-06-12 05:21:00,
2013-06-12 00:22:00,68.9,61.8,29.00,SSE,158,0.0,0.0,78,0.00,,,0.00,VWS V14.01,2013-06-12 05:22:00,
2013-06-12 00:23:00,68.9,61.8,29.00,WNW,292,0.0,0.0,78,0.00,,,0.00,VWS V14.01,2013-06-12 05:23:00,
2013-06-12 00:24:00,68.9,61.8,29.00,West,270,0.0,0.0,78,0.00,,,0.00,VWS V14.01,2013-06-12 05:24:00,
2013-06-12 00:25:00,68.7,61.6,29.00,West,270,0.0,0.0,78,0.00,,,0.00,VWS V14.01,2013-06-12 05:25:00,
2013-06-12 00:26:00,68.7,62.0,29.00,West,270,0.0,0.0,79,0.00,,CLR,0.00,VWS V14.01,2013-06-12 05:26:00,
2013-06-12 00:27:00,68.7,62.0,29.00,West,270,0.0,0.0,79,0.00,,,0.00,VWS V14.01,2013-06-12 05:27:00,
2013-06-12 00:28:00,68.7,62.0,29.00,West,270,0.0,0.0,79,0.00,,,0.00,VWS V14.01,2013-06-12 05:28:00,
2013-06-12 00:29:00,68.7,62.0,29.00,West,270,0.0,0.0,79,0.00,,,0.00,VWS V14.01,2013-06-12 05:29:00,
2013-06-12 00:30:00,68.7,62.0,29.00,West,270,0.0,0.0,79,0.00,,,0.00,VWS V14.01,2013-06-12 05:30:00,
2013-06-12 00:31:00,68.7,62.0,29.00,West,270,0.0,0.0,79,0.00,,CLR,0.00,VWS V14.01,2013-06-12 05:31:00,
2013-06-12 00:32:00,68.7,62.0,29.00,West,270,0.0,0.0,79,0.00,,,0.00,VWS V14.01,2013-06-12 05:32:00,
2013-06-12 00:33:00,68.7,62.0,29.00,West,270,0.0,0.0,79,0.00,,,0.00,VWS V14.01,2013-06-12 05:33:00,
2013-06-12 00:34:00,68.5,62.1,29.00,West,270,0.0,0.0,80,0.00,,,0.00,VWS V14.01,2013-06-12 05:34:00,
2013-06-12 00:35:00,68.5,62.1,29.00,West,270,0.0,0.0,80,0.00,,,0.00,VWS V14.01,2013-06-12 05:35:00,
2013-06-12 00:36:00,68.5,62.1,29.00,West,270,0.0,0.0,80,0.00,,CLR,0.00,VWS V14.01,2013-06-12 05:36:00,
2013-06-12 00:37:00,68.5,62.1,29.00,West,270,0.0,0.0,80,0.00,,,0.00,VWS V14.01,2013-06-12 05:37:00,
2013-06-12 00:38:00,68.5,62.1,29.00,West,270,0.0,0.0,80,0.00,,,0.00,VWS V14.01,2013-06-12 05:38:00,
2013-06-12 00:39:00,68.5,62.1,29.03,West,270,0.0,0.0,80,0.00,,,0.00,VWS V14.01,2013-06-12 05:39:00,
2013-06-12 00:40:00,68.5,62.1,29.03,West,270,0.0,0.0,80,0.00,,,0.00,VWS V14.01,2013-06-12 05:40:00,
2013-06-12 00:41:00,68.5,62.1,29.03,West,270,0.0,0.0,80,0.00,,CLR,0.00,VWS V14.01,2013-06-12 05:41:00,
2013-06-12 00:42:00,68.5,62.1,29.03,WNW,292,0.0,0.0,80,0.00,,,0.00,VWS V14.01,2013-06-12 05:42:00,
2013-06-12 00:43:00,68.5,62.1,29.03,WNW,292,0.0,0.0,80,0.00,,,0.00,VWS V14.01,2013-06-12 05:43:00,
2013-06-12 00:44:00,68.5,62.1,29.03,WNW,292,0.0,0.0,80,0.00,,,0.00,VWS V14.01,2013-06-12 05:44:00,
2013-06-12 00:45:00,68.5,62.1,29.03,WNW,292,0.0,0.0,80,0.00,,,0.00,VWS V14.01,2013-06-12 05:45:00,
2013-06-12 00:46:00,68.5,62.1,29.03,WNW,292,0.0,0.0,80,0.00,,CLR,0.00,VWS V14.01,2013-06-12 05:46:00,
2013-06-12 00:47:00,68.4,62.0,29.03,WNW,292,0.0,0.0,80,0.00,,,0.00,VWS V14.01,2013-06-12 05:47:00,
2013-06-12 00:48:00,68.4,62.0,29.03,WNW,292,0.0,0.0,80,0.00,,,0.00,VWS V14.01,2013-06-12 05:48:00,
2013-06-12 00:49:00,68.4,62.0,29.03,WNW,292,0.0,0.0,80,0.00,,,0.00,VWS V14.01,2013-06-12 05:49:00,
2013-06-12 00:50:00,68.4,62.0,29.03,NW,315,0.0,0.0,80,0.00,,,0.00,VWS V14.01,2013-06-12 05:50:00,
2013-06-12 00:51:00,68.4,62.0,29.03,NW,315,0.0,0.0,80,0.00,,CLR,0.00,VWS V14.01,2013-06-12 05:51:00,
2013-06-12 00:52:00,68.4,62.0,29.03,NW,315,0.0,0.0,80,0.00,,,0.00,VWS V14.01,2013-06-12 05:52:00,
2013-06-12 00:53:00,68.2,62.1,29.03,NW,315,0.0,0.0,81,0.00,,,0.00,VWS V14.01,2013-06-12 05:53:00,
2013-06-12 00:54:00,68.2,62.1,29.03,NW,315,0.0,0.0,81,0.00,,,0.00,VWS V14.01,2013-06-12 05:54:00,
2013-06-12 00:55:00,68.2,62.1,29.03,NW,315,0.0,0.0,81,0.00,,,0.00,VWS V14.01,2013-06-12 05:55:00,
2013-06-12 00:56:00,68.2,62.1,29.03,NW,315,0.0,0.0,81,0.00,,CLR,0.00,VWS V14.01,2013-06-12 05:56:00,
2013-06-12 00:57:00,68.2,62.1,29.03,NW,315,0.0,0.0,81,0.00,,,0.00,VWS V14.01,2013-06-12 05:57:00,
2013-06-12 00:58:00,68.2,62.1,29.03,NW,315,0.0,0.0,81,0.00,,,0.00,VWS V14.01,2013-06-12 05:58:00,
2013-06-12 00:59:00,68.2,62.1,29.03,NW,315,0.0,0.0,81,0.00,,,0.00,VWS V14.01,2013-06-12 05:59:00,
2013-06-12 01:00:00,68.0,62.0,29.03,WNW,292,0.0,0.0,81,0.00,,,0.00,VWS V14.01,2013-06-12 06:00:00,
2013-06-12 01:01:00,68.0,62.0,29.03,WNW,292,0.0,0.0,81,0.00,,CLR,0.00,VWS V14.01,2013-06-12 06:01:00,
2013-06-12 01:02:00,68.0,62.0,29.03,WNW,292,0.0,0.0,81,0.00,,,0.00,VWS V14.01,2013-06-12 06:02:00,
2013-06-12 01:03:00,68.0,62.0,29.03,WNW,292,0.0,0.0,81,0.00,,,0.00,VWS V14.01,2013-06-12 06:03:00,
2013-06-12 01:04:00,68.0,62.0,29.03,WNW,292,0.0,0.0,81,0.00,,,0.00,VWS V14.01,2013-06-12 06:04:00,
2013-06-12 01:05:00,68.0,62.0,29.03,NW,315,0.0,0.0,81,0.00,,,0.00,VWS V14.01,2013-06-12 06:05:00,
2013-06-12 01:06:00,68.2,62.1,29.03,NW,315,0.0,0.0,81,0.00,,CLR,0.00,VWS V14.01,2013-06-12 06:06:00,
2013-06-12 01:07:00,68.2,62.1,29.03,NW,315,0.0,0.0,81,0.00,,,0.00,VWS V14.01,2013-06-12 06:07:00,
2013-06-12 01:08:00,68.2,62.1,29.03,NW,315,0.0,0.0,81,0.00,,,0.00,VWS V14.01,2013-06-12 06:08:00,
2013-06-12 01:09:00,68.2,62.1,29.03,NW,315,0.0,0.0,81,0.00,,,0.00,VWS V14.01,2013-06-12 06:09:00,
2013-06-12 01:10:00,68.2,62.1,29.03,NW,315,0.0,0.0,81,0.00,,,0.00,VWS V14.01,2013-06-12 06:10:00,
2013-06-12 01:11:00,68.2,62.1,29.03,NW,315,0.0,0.0,81,0.00,,CLR,0.00,VWS V14.01,2013-06-12 06:11:00,
2013-06-12 01:12:00,68.2,62.1,29.03,WNW,292,0.0,0.0,81,0.00,,,0.00,VWS V14.01,2013-06-12 06:12:00,
2013-06-12 01:13:00,68.2,62.5,29.03,WNW,292,0.0,0.0,82,0.00,,,0.00,VWS V14.01,2013-06-12 06:13:00,
2013-06-12 01:14:00,68.2,62.5,29.03,WNW,292,0.0,0.0,82,0.00,,,0.00,VWS V14.01,2013-06-12 06:14:00,
2013-06-12 01:15:00,68.2,62.5,29.03,WNW,292,0.0,0.0,82,0.00,,,0.00,VWS V14.01,2013-06-12 06:15:00,
2013-06-12 01:16:00,68.2,62.5,29.03,WNW,292,0.0,0.0,82,0.00,,CLR,0.00,VWS V14.01,2013-06-12 06:16:00,
2013-06-12 01:17:00,68.2,62.5,29.03,WNW,292,0.0,0.0,82,0.00,,,0.00,VWS V14.01,2013-06-12 06:17:00,
2013-06-12 01:18:00,68.4,62.7,29.03,WNW,292,0.0,0.0,82,0.00,,,0.00,VWS V14.01,2013-06-12 06:18:00,
2013-06-12 01:19:00,68.4,62.7,29.03,WNW,292,0.0,0.0,82,0.00,,,0.00,VWS V14.01,2013-06-12 06:19:00,
2013-06-12 01:20:00,68.4,62.7,29.03,WNW,292,0.0,0.0,82,0.00,,,0.00,VWS V14.01,2013-06-12 06:20:00,
2013-06-12 01:21:00,68.4,62.7,29.03,WSW,248,0.0,0.0,82,0.00,,CLR,0.00,VWS V14.01,2013-06-12 06:21:00,
2013-06-12 01:22:00,68.4,62.7,29.03,WSW,248,0.0,0.0,82,0.00,,,0.00,VWS V14.01,2013-06-12 06:22:00,
2013-06-12 01:23:00,68.4,62.7,29.03,WSW,248,0.0,0.0,82,0.00,,,0.00,VWS V14.01,2013-06-12 06:23:00,
2013-06-12 01:24:00,68.4,62.3,29.03,NE,45,0.0,0.0,81,0.00,,,0.00,VWS V14.01,2013-06-12 06:24:00,
2013-06-12 01:25:00,68.4,62.3,29.03,NE,45,0.0,0.0,81,0.00,,,0.00,VWS V14.01,2013-06-12 06:25:00,
2013-06-12 01:26:00,68.4,62.3,29.03,NE,45,0.0,0.0,81,0.00,,CLR,0.00,VWS V14.01,2013-06-12 06:26:00,
2013-06-12 01:27:00,68.4,62.3,29.03,NE,45,0.0,0.0,81,0.00,,,0.00,VWS V14.01,2013-06-12 06:27:00,
2013-06-12 01:28:00,68.4,62.3,29.03,NNE,22,0.0,0.0,81,0.00,,,0.00,VWS V14.01,2013-06-12 06:28:00,
2013-06-12 01:29:00,68.4,62.3,29.03,North,0,0.0,0.0,81,0.00,,,0.00,VWS V14.01,2013-06-12 06:29:00,
2013-06-12 01:30:00,68.4,62.3,29.03,North,0,0.0,0.0,81,0.00,,,0.00,VWS V14.01,2013-06-12 06:30:00,
2013-06-12 01:31:00,68.4,62.3,29.03,North,0,0.0,0.0,81,0.00,,CLR,0.00,VWS V14.01,2013-06-12 06:31:00,
2013-06-12 01:32:00,68.4,62.3,29.03,North,0,0.0,0.0,81,0.00,,,0.00,VWS V14.01,2013-06-12 06:32:00,
2013-06-12 01:33:00,68.4,62.3,29.03,North,0,0.0,0.0,81,0.00,,,0.00,VWS V14.01,2013-06-12 06:33:00,
2013-06-12 01:34:00,68.4,62.3,29.03,NW,315,0.0,0.0,81,0.00,,,0.00,VWS V14.01,2013-06-12 06:34:00,
2013-06-12 01:35:00,68.4,62.3,29.03,NW,315,0.0,0.0,81,0.00,,,0.00,VWS V14.01,2013-06-12 06:35:00,
2013-06-12 01:36:00,68.4,62.3,29.03,North,0,0.0,0.0,81,0.00,,CLR,0.00,VWS V14.01,2013-06-12 06:36:00,
2013-06-12 01:37:00,68.4,62.3,29.03,North,0,0.0,0.0,81,0.00,,,0.00,VWS V14.01,2013-06-12 06:37:00,
2013-06-12 01:38:00,68.4,62.3,29.03,North,0,0.0,0.0,81,0.00,,,0.00,VWS V14.01,2013-06-12 06:38:00,
2013-06-12 01:39:00,68.2,62.1,29.06,North,0,0.0,0.0,81,0.00,,,0.00,VWS V14.01,2013-06-12 06:39:00,
2013-06-12 01:40:00,68.4,62.3,29.06,North,0,0.0,0.0,81,0.00,,,0.00,VWS V14.01,2013-06-12 06:40:00,
2013-06-12 01:41:00,68.4,62.3,29.06,NNW,338,0.0,0.0,81,0.00,,CLR,0.00,VWS V14.01,2013-06-12 06:41:00,
2013-06-12 01:42:00,68.4,62.3,29.06,NNW,338,0.0,0.0,81,0.00,,,0.00,VWS V14.01,2013-06-12 06:42:00,
2013-06-12 01:43:00,68.4,62.3,29.06,NNW,338,0.0,0.0,81,0.00,,,0.00,VWS V14.01,2013-06-12 06:43:00,
2013-06-12 01:44:00,68.4,62.3,29.06,NNW,338,0.0,0.0,81,0.00,,,0.00,VWS V14.01,2013-06-12 06:44:00,
2013-06-12 01:45:00,68.4,62.3,29.06,East,90,0.0,0.0,81,0.00,,,0.00,VWS V14.01,2013-06-12 06:45:00,
2013-06-12 01:46:00,68.4,62.3,29.06,East,90,0.0,0.0,81,0.00,,CLR,0.00,VWS V14.01,2013-06-12 06:46:00,
2013-06-12 01:47:00,68.4,62.3,29.06,East,90,0.0,0.0,81,0.00,,,0.00,VWS V14.01,2013-06-12 06:47:00,
2013-06-12 01:48:00,68.4,62.3,29.06,East,90,0.0,0.0,81,0.00,,,0.00,VWS V14.01,2013-06-12 06:48:00,
2013-06-12 01:49:00,68.4,62.3,29.06,ENE,68,0.0,0.0,81,0.00,,,0.00,VWS V14.01,2013-06-12 06:49:00,
2013-06-12 01:50:00,68.4,62.3,29.06,ESE,112,0.0,0.0,81,0.00,,,0.00,VWS V14.01,2013-06-12 06:50:00,
2013-06-12 01:51:00,68.4,62.3,29.06,ESE,112,0.0,0.0,81,0.00,,CLR,0.00,VWS V14.01,2013-06-12 06:51:00,
2013-06-12 01:52:00,68.4,62.3,29.06,ESE,112,0.0,0.0,81,0.00,,,0.00,VWS V14.01,2013-06-12 06:52:00,
2013-06-12 01:53:00,68.4,62.3,29.06,ESE,112,0.0,0.0,81,0.00,,,0.00,VWS V14.01,2013-06-12 06:53:00,
2013-06-12 01:54:00,68.5,62.5,29.03,ESE,112,0.0,0.0,81,0.00,,,0.00,VWS V14.01,2013-06-12 06:54:00,
2013-06-12 01:55:00,68.5,62.5,29.03,ESE,112,0.0,0.0,81,0.00,,,0.00,VWS V14.01,2013-06-12 06:55:00,
2013-06-12 01:56:00,68.5,62.5,29.03,ESE,112,0.0,0.0,81,0.00,,-RA,0.00,VWS V14.01,2013-06-12 06:56:00,
2013-06-12 01:57:00,68.5,62.5,29.03,ESE,112,0.0,0.0,81,0.00,,,0.00,VWS V14.01,2013-06-12 06:57:00,
2013-06-12 01:58:00,68.5,62.5,29.03,ESE,112,0.0,0.0,81,0.00,,,0.00,VWS V14.01,2013-06-12 06:58:00,
2013-06-12 01:59:00,68.5,62.5,29.03,ESE,112,0.0,0.0,81,0.00,,,0.00,VWS V14.01,2013-06-12 06:59:00,
2013-06-12 02:00:00,68.5,62.5,29.03,ESE,112,0.0,0.0,81,0.00,,,0.00,VWS V14.01,2013-06-12 07:00:00,
2013-06-12 02:01:00,68.5,62.5,29.03,ESE,112,0.0,0.0,81,0.00,,-RA,0.00,VWS V14.01,2013-06-12 07:01:00,
2013-06-12 02:02:00,68.7,62.7,29.03,ESE,112,0.0,0.0,81,0.00,,,0.00,VWS V14.01,2013-06-12 07:02:00,
2013-06-12 02:03:00,68.7,62.7,29.03,ESE,112,0.0,0.0,81,0.00,,,0.00,VWS V14.01,2013-06-12 07:03:00,
2013-06-12 02:04:00,68.7,62.7,29.03,ESE,112,0.0,0.0,81,0.00,,,0.00,VWS V14.01,2013-06-12 07:04:00,
2013-06-12 02:05:00,68.7,62.7,29.03,North,0,0.0,0.0,81,0.00,,,0.00,VWS V14.01,2013-06-12 07:05:00,
2013-06-12 02:06:00,68.7,62.7,29.03,North,0,0.0,0.0,81,0.00,,-RA,0.00,VWS V14.01,2013-06-12 07:06:00,
2013-06-12 02:07:00,68.7,62.7,29.03,North,0,0.0,0.0,81,0.00,,,0.00,VWS V14.01,2013-06-12 07:07:00,
2013-06-12 02:08:00,68.7,62.7,29.03,North,0,0.0,0.0,81,0.00,,,0.00,VWS V14.01,2013-06-12 07:08:00,
2013-06-12 02:09:00,68.7,62.7,29.06,North,0,0.0,0.0,81,0.00,,,0.00,VWS V14.01,2013-06-12 07:09:00,
2013-06-12 02:10:00,68.5,62.5,29.06,North,0,0.0,0.0,81,0.00,,,0.00,VWS V14.01,2013-06-12 07:10:00,
2013-06-12 02:11:00,68.5,62.5,29.06,North,0,0.0,0.0,81,0.00,,-RA,0.00,VWS V14.01,2013-06-12 07:11:00,
2013-06-12 02:12:00,68.5,62.5,29.06,North,0,0.0,0.0,81,0.00,,,0.00,VWS V14.01,2013-06-12 07:12:00,
2013-06-12 02:13:00,68.5,62.5,29.06,North,0,0.0,0.0,81,0.00,,,0.00,VWS V14.01,2013-06-12 07:13:00,
2013-06-12 02:14:00,68.5,62.5,29.06,North,0,0.0,0.0,81,0.00,,,0.00,VWS V14.01,2013-06-12 07:14:00,
2013-06-12 02:15:00,68.5,62.5,29.06,North,0,0.0,0.0,81,0.00,,,0.00,VWS V14.01,2013-06-12 07:15:00,
2013-06-12 02:16:00,68.5,62.5,29.06,North,0,0.0,0.0,81,0.00,,-RA,0.00,VWS V14.01,2013-06-12 07:16:00,
2013-06-12 02:17:00,68.5,62.5,29.06,NNE,22,0.0,0.0,81,0.00,,,0.00,VWS V14.01,2013-06-12 07:17:00,
2013-06-12 02:18:00,68.5,62.5,29.06,East,90,0.0,0.0,81,0.00,,,0.00,VWS V14.01,2013-06-12 07:18:00,
2013-06-12 02:19:00,68.5,62.5,29.06,East,90,0.0,0.0,81,0.00,,,0.00,VWS V14.01,2013-06-12 07:19:00,
2013-06-12 02:20:00,68.5,62.5,29.06,East,90,0.0,0.0,81,0.00,,,0.00,VWS V14.01,2013-06-12 07:20:00,
2013-06-12 02:21:00,68.5,62.5,29.06,East,90,0.0,0.0,81,0.00,,-RA,0.00,VWS V14.01,2013-06-12 07:21:00,
2013-06-12 02:22:00,68.5,62.5,29.06,NNE,22,0.0,0.0,81,0.00,,,0.00,VWS V14.01,2013-06-12 07:22:00,
2013-06-12 02:23:00,68.5,62.5,29.06,NNE,22,0.0,0.0,81,0.00,,,0.00,VWS V14.01,2013-06-12 07:23:00,
2013-06-12 02:24:00,68.5,62.5,29.03,NNE,22,0.0,0.0,81,0.00,,,0.00,VWS V14.01,2013-06-12 07:24:00,
2013-06-12 02:25:00,68.5,62.5,29.03,NNE,22,0.0,0.0,81,0.00,,,0.00,VWS V14.01,2013-06-12 07:25:00,
2013-06-12 02:26:00,68.5,62.5,29.03,SE,135,0.0,0.0,81,0.00,,-RA,0.00,VWS V14.01,2013-06-12 07:26:00,
2013-06-12 02:27:00,68.5,62.5,29.03,SE,135,0.0,0.0,81,0.00,,,0.00,VWS V14.01,2013-06-12 07:27:00,
2013-06-12 02:28:00,68.5,62.5,29.03,SE,135,0.0,0.0,81,0.00,,,0.00,VWS V14.01,2013-06-12 07:28:00,
2013-06-12 02:29:00,68.5,62.5,29.03,SE,135,0.0,0.0,81,0.00,,,0.00,VWS V14.01,2013-06-12 07:29:00,
2013-06-12 02:30:00,68.5,62.5,29.03,SE,135,0.0,0.0,81,0.00,,,0.00,VWS V14.01,2013-06-12 07:30:00,
2013-06-12 02:31:00,68.5,62.5,29.03,WNW,292,0.0,0.0,81,0.00,,-RA,0.00,VWS V14.01,2013-06-12 07:31:00,
2013-06-12 02:32:00,68.5,62.1,29.03,WNW,292,0.0,0.0,80,0.00,,,0.00,VWS V14.01,2013-06-12 07:32:00,
2013-06-12 02:33:00,68.4,62.0,29.03,WNW,292,0.0,0.0,80,0.00,,,0.00,VWS V14.01,2013-06-12 07:33:00,
2013-06-12 02:34:00,68.4,62.3,29.03,WNW,292,0.0,0.0,81,0.00,,,0.00,VWS V14.01,2013-06-12 07:34:00,
2013-06-12 02:35:00,68.4,62.3,29.03,WNW,292,0.0,0.0,81,0.00,,,0.00,VWS V14.01,2013-06-12 07:35:00,
2013-06-12 02:36:00,68.4,62.3,29.03,NNW,338,0.0,0.0,81,0.00,,-RA,0.00,VWS V14.01,2013-06-12 07:36:00,
2013-06-12 02:37:00,68.4,62.3,29.03,NNW,338,0.0,0.0,81,0.00,,,0.00,VWS V14.01,2013-06-12 07:37:00,
2013-06-12 02:38:00,68.4,62.3,29.03,East,90,0.0,0.0,81,0.00,,,0.00,VWS V14.01,2013-06-12 07:38:00,
2013-06-12 02:39:00,68.4,62.3,29.03,East,90,0.0,0.0,81,0.00,,,0.00,VWS V14.01,2013-06-12 07:39:00,
2013-06-12 02:40:00,68.4,62.3,29.03,East,90,0.0,0.0,81,0.00,,,0.00,VWS V14.01,2013-06-12 07:40:00,
2013-06-12 02:41:00,68.4,62.3,29.03,East,90,0.0,0.0,81,0.00,,-RA,0.00,VWS V14.01,2013-06-12 07:41:00,
2013-06-12 02:42:00,68.4,62.3,29.03,East,90,0.0,0.0,81,0.00,,,0.00,VWS V14.01,2013-06-12 07:42:00,
2013-06-12 02:43:00,68.4,62.3,29.03,East,90,0.0,0.0,81,0.00,,,0.00,VWS V14.01,2013-06-12 07:43:00,
2013-06-12 02:44:00,68.4,62.3,29.03,East,90,0.0,0.0,81,0.00,,,0.00,VWS V14.01,2013-06-12 07:44:00,
2013-06-12 02:45:00,68.4,62.3,29.03,East,90,0.0,0.0,81,0.00,,,0.00,VWS V14.01,2013-06-12 07:45:00,
2013-06-12 02:46:00,68.4,62.3,29.03,NW,315,0.0,0.0,81,0.00,,-RA,0.00,VWS V14.01,2013-06-12 07:46:00,
2013-06-12 02:47:00,68.4,62.3,29.03,NW,315,0.0,0.0,81,0.00,,,0.00,VWS V14.01,2013-06-12 07:47:00,
2013-06-12 02:48:00,68.4,62.3,29.03,NW,315,0.0,0.0,81,0.00,,,0.00,VWS V14.01,2013-06-12 07:48:00,
2013-06-12 02:49:00,68.4,62.3,29.03,NW,315,0.0,0.0,81,0.00,,,0.00,VWS V14.01,2013-06-12 07:49:00,
2013-06-12 02:50:00,68.4,62.3,29.03,WNW,292,0.0,0.0,81,0.00,,,0.00,VWS V14.01,2013-06-12 07:50:00,
2013-06-12 02:51:00,68.4,62.3,29.03,WNW,292,0.0,0.0,81,0.00,,-RA,0.00,VWS V14.01,2013-06-12 07:51:00,
2013-06-12 02:52:00,68.4,62.3,29.03,WNW,292,0.0,0.0,81,0.00,,,0.00,VWS V14.01,2013-06-12 07:52:00,
2013-06-12 02:53:00,68.2,62.1,29.03,WNW,292,0.0,0.0,81,0.00,,,0.00,VWS V14.01,2013-06-12 07:53:00,
2013-06-12 02:54:00,68.2,62.1,29.03,WNW,292,0.0,0.0,81,0.00,,,0.00,VWS V14.01,2013-06-12 07:54:00,
2013-06-12 02:55:00,68.2,62.1,29.03,WNW,292,0.0,0.0,81,0.00,,,0.00,VWS V14.01,2013-06-12 07:55:00,
2013-06-12 02:56:00,68.2,62.1,29.03,WNW,292,0.0,0.0,81,0.00,,CLR,0.00,VWS V14.01,2013-06-12 07:56:00,
2013-06-12 02:57:00,68.2,62.1,29.03,WNW,292,0.0,0.0,81,0.00,,,0.00,VWS V14.01,2013-06-12 07:57:00,
2013-06-12 02:58:00,68.2,62.1,29.03,WNW,292,0.0,0.0,81,0.00,,,0.00,VWS V14.01,2013-06-12 07:58:00,
2013-06-12 02:59:00,68.2,62.1,29.03,WNW,292,0.0,0.0,81,0.00,,,0.00,VWS V14.01,2013-06-12 07:59:00,
2013-06-12 03:00:00,68.0,62.3,29.03,WNW,292,0.0,0.0,82,0.00,,,0.00,VWS V14.01,2013-06-12 08:00:00,
2013-06-12 03:01:00,68.0,62.3,29.03,North,0,0.0,0.0,82,0.00,,CLR,0.00,VWS V14.01,2013-06-12 08:01:00,
2013-06-12 03:02:00,68.0,62.3,29.03,North,0,0.0,0.0,82,0.00,,,0.00,VWS V14.01,2013-06-12 08:02:00,
2013-06-12 03:03:00,68.0,62.3,29.03,North,0,0.0,0.0,82,0.00,,,0.00,VWS V14.01,2013-06-12 08:03:00,
2013-06-12 03:04:00,68.0,62.3,29.03,NW,315,0.0,0.0,82,0.00,,,0.00,VWS V14.01,2013-06-12 08:04:00,
2013-06-12 03:05:00,68.0,62.3,29.03,NW,315,0.0,0.0,82,0.00,,,0.00,VWS V14.01,2013-06-12 08:05:00,
2013-06-12 03:06:00,68.0,62.0,29.03,NW,315,0.0,0.0,81,0.00,,CLR,0.00,VWS V14.01,2013-06-12 08:06:00,
2013-06-12 03:07:00,68.0,62.0,29.03,NW,315,0.0,0.0,81,0.00,,,0.00,VWS V14.01,2013-06-12 08:07:00,
2013-06-12 03:08:00,68.0,62.0,29.03,NW,315,0.0,0.0,81,0.00,,,0.00,VWS V14.01,2013-06-12 08:08:00,
2013-06-12 03:09:00,67.8,62.1,29.03,NW,315,0.0,0.0,82,0.00,,,0.00,VWS V14.01,2013-06-12 08:09:00,
2013-06-12 03:10:00,67.8,62.1,29.03,NW,315,0.0,0.0,82,0.00,,,0.00,VWS V14.01,2013-06-12 08:10:00,
2013-06-12 03:11:00,67.8,62.1,29.03,NW,315,0.0,0.0,82,0.00,,CLR,0.00,VWS V14.01,2013-06-12 08:11:00,
2013-06-12 03:12:00,67.8,62.1,29.03,NW,315,0.0,0.0,82,0.00,,,0.00,VWS V14.01,2013-06-12 08:12:00,
2013-06-12 03:13:00,67.8,62.1,29.03,NW,315,0.0,0.0,82,0.00,,,0.00,VWS V14.01,2013-06-12 08:13:00,
2013-06-12 03:14:00,67.8,62.1,29.03,NW,315,0.0,0.0,82,0.00,,,0.00,VWS V14.01,2013-06-12 08:14:00,
2013-06-12 03:15:00,67.6,62.0,29.03,NW,315,0.0,0.0,82,0.00,,,0.00,VWS V14.01,2013-06-12 08:15:00,
2013-06-12 03:16:00,67.6,62.0,29.03,NW,315,0.0,0.0,82,0.00,,CLR,0.00,VWS V14.01,2013-06-12 08:16:00,
2013-06-12 03:17:00,67.6,62.0,29.03,NW,315,0.0,0.0,82,0.00,,,0.00,VWS V14.01,2013-06-12 08:17:00,
2013-06-12 03:18:00,67.6,62.0,29.03,NW,315,0.0,0.0,82,0.00,,,0.00,VWS V14.01,2013-06-12 08:18:00,
2013-06-12 03:19:00,67.6,61.6,29.03,NW,315,0.0,0.0,81,0.00,,,0.00,VWS V14.01,2013-06-12 08:19:00,
2013-06-12 03:20:00,67.6,61.6,29.03,NW,315,0.0,0.0,81,0.00,,,0.00,VWS V14.01,2013-06-12 08:20:00,
2013-06-12 03:21:00,67.5,61.4,29.03,NW,315,0.0,0.0,81,0.00,,CLR,0.00,VWS V14.01,2013-06-12 08:21:00,
2013-06-12 03:22:00,67.5,61.4,29.03,NW,315,0.0,0.0,81,0.00,,,0.00,VWS V14.01,2013-06-12 08:22:00,
2013-06-12 03:23:00,67.5,61.4,29.03,NW,315,0.0,0.0,81,0.00,,,0.00,VWS V14.01,2013-06-12 08:23:00,
2013-06-12 03:24:00,67.5,61.4,29.03,NW,315,0.0,0.0,81,0.00,,,0.00,VWS V14.01,2013-06-12 08:24:00,
2013-06-12 03:25:00,67.3,61.6,29.03,NW,315,0.0,0.0,82,0.00,,,0.00,VWS V14.01,2013-06-12 08:25:00,
2013-06-12 03:26:00,67.3,61.6,29.03,North,0,0.0,0.0,82,0.00,,CLR,0.00,VWS V14.01,2013-06-12 08:26:00,
2013-06-12 03:27:00,67.3,61.6,29.03,North,0,0.0,0.0,82,0.00,,,0.00,VWS V14.01,2013-06-12 08:27:00,
2013-06-12 03:28:00,67.3,61.6,29.03,North,0,0.0,0.0,82,0.00,,,0.00,VWS V14.01,2013-06-12 08:28:00,
2013-06-12 03:29:00,67.3,61.6,29.03,North,0,0.0,0.0,82,0.00,,,0.00,VWS V14.01,2013-06-12 08:29:00,
2013-06-12 03:30:00,67.3,61.6,29.03,North,0,0.0,0.0,82,0.00,,,0.00,VWS V14.01,2013-06-12 08:30:00,
2013-06-12 03:31:00,67.3,61.6,29.03,NNE,22,0.0,0.0,82,0.00,,CLR,0.00,VWS V14.01,2013-06-12 08:31:00,
2013-06-12 03:32:00,67.3,61.6,29.03,NNE,22,0.0,0.0,82,0.00,,,0.00,VWS V14.01,2013-06-12 08:32:00,
2013-06-12 03:33:00,67.3,61.6,29.03,NE,45,0.0,0.0,82,0.00,,,0.00,VWS V14.01,2013-06-12 08:33:00,
2013-06-12 03:34:00,67.3,61.6,29.03,East,90,0.0,0.0,82,0.00,,,0.00,VWS V14.01,2013-06-12 08:34:00,
2013-06-12 03:35:00,67.3,61.6,29.03,East,90,0.0,0.0,82,0.00,,,0.00,VWS V14.01,2013-06-12 08:35:00,
2013-06-12 03:36:00,67.3,61.6,29.03,East,90,0.0,0.0,82,0.00,,CLR,0.00,VWS V14.01,2013-06-12 08:36:00,
2013-06-12 03:37:00,67.3,61.6,29.03,East,90,0.0,0.0,82,0.00,,,0.00,VWS V14.01,2013-06-12 08:37:00,
2013-06-12 03:38:00,67.5,61.8,29.03,East,90,0.0,0.0,82,0.00,,,0.00,VWS V14.01,2013-06-12 08:38:00,
2013-06-12 03:39:00,67.5,61.8,29.00,NE,45,0.0,0.0,82,0.00,,,0.00,VWS V14.01,2013-06-12 08:39:00,
2013-06-12 03:41:00,67.5,61.8,29.00,NE,45,0.0,0.0,82,0.00,,CLR,0.00,VWS V14.01,2013-06-12 08:41:00,
2013-06-12 03:42:00,67.5,61.8,29.00,NE,45,0.0,0.0,82,0.00,,,0.00,VWS V14.01,2013-06-12 08:42:00,
2013-06-12 03:43:00,67.5,61.8,29.00,NNE,22,0.0,0.0,82,0.00,,,0.00,VWS V14.01,2013-06-12 08:43:00,
2013-06-12 03:44:00,67.5,61.8,29.00,NNE,22,0.0,0.0,82,0.00,,,0.00,VWS V14.01,2013-06-12 08:44:00,
2013-06-12 03:45:00,67.5,61.8,29.00,NNE,22,0.0,0.0,82,0.00,,,0.00,VWS V14.01,2013-06-12 08:45:00,
2013-06-12 03:46:00,67.5,61.8,29.00,ENE,68,0.0,0.0,82,0.00,,CLR,0.00,VWS V14.01,2013-06-12 08:46:00,
2013-06-12 03:47:00,67.5,61.8,29.00,ENE,68,0.0,0.0,82,0.00,,,0.00,VWS V14.01,2013-06-12 08:47:00,
2013-06-12 03:48:00,67.5,61.8,29.00,East,90,0.0,0.0,82,0.00,,,0.00,VWS V14.01,2013-06-12 08:48:00,
2013-06-12 03:49:00,67.6,62.3,29.00,ENE,68,0.0,0.0,83,0.00,,,0.00,VWS V14.01,2013-06-12 08:49:00,
2013-06-12 03:50:00,67.6,62.3,29.00,NE,45,0.0,0.0,83,0.00,,,0.00,VWS V14.01,2013-06-12 08:50:00,
2013-06-12 03:51:00,67.6,62.3,29.00,NE,45,0.0,0.0,83,0.00,,CLR,0.00,VWS V14.01,2013-06-12 08:51:00,
2013-06-12 03:52:00,67.8,62.5,29.00,NE,45,0.0,0.0,83,0.00,,,0.00,VWS V14.01,2013-06-12 08:52:00,
2013-06-12 03:53:00,67.8,62.5,29.00,ENE,68,0.0,0.0,83,0.00,,,0.00,VWS V14.01,2013-06-12 08:53:00,
2013-06-12 03:54:00,67.8,62.5,29.00,East,90,0.0,0.0,83,0.00,,,0.00,VWS V14.01,2013-06-12 08:54:00,
2013-06-12 03:55:00,67.8,62.5,29.00,East,90,0.0,0.0,83,0.00,,,0.00,VWS V14.01,2013-06-12 08:55:00,
2013-06-12 03:56:00,67.8,62.5,29.00,NW,315,0.0,0.0,83,0.00,,CLR,0.00,VWS V14.01,2013-06-12 08:56:00,
2013-06-12 03:57:00,67.8,62.5,29.00,NW,315,0.0,0.0,83,0.00,,,0.00,VWS V14.01,2013-06-12 08:57:00,
2013-06-12 03:58:00,67.8,62.5,29.00,NW,315,0.0,0.0,83,0.00,,,0.00,VWS V14.01,2013-06-12 08:58:00,
2013-06-12 03:59:00,67.8,62.5,29.00,NW,315,0.0,0.0,83,0.00,,,0.00,VWS V14.01,2013-06-12 08:59:00,
2013-06-12 04:00:00,67.8,62.5,29.00,NW,315,0.0,0.0,83,0.00,,,0.00,VWS V14.01,2013-06-12 09:00:00,
2013-06-12 04:01:00,67.8,62.8,29.00,NW,315,0.0,0.0,84,0.00,,CLR,0.00,VWS V14.01,2013-06-12 09:01:00,
2013-06-12 04:02:00,67.8,62.8,29.00,NW,315,0.0,0.0,84,0.00,,,0.00,VWS V14.01,2013-06-12 09:02:00,
2013-06-12 04:03:00,67.8,62.8,29.00,NW,315,0.0,0.0,84,0.00,,,0.00,VWS V14.01,2013-06-12 09:03:00,
2013-06-12 04:04:00,67.8,62.8,29.00,SSW,202,0.0,0.0,84,0.00,,,0.00,VWS V14.01,2013-06-12 09:04:00,
2013-06-12 04:05:00,67.8,62.8,29.00,SSW,202,0.0,0.0,84,0.00,,,0.00,VWS V14.01,2013-06-12 09:05:00,
2013-06-12 04:06:00,67.6,62.3,29.00,WNW,292,0.0,0.0,83,0.00,,CLR,0.00,VWS V14.01,2013-06-12 09:06:00,
2013-06-12 04:07:00,67.6,62.3,29.00,WNW,292,0.0,0.0,83,0.00,,,0.00,VWS V14.01,2013-06-12 09:07:00,
2013-06-12 04:08:00,67.6,62.3,29.00,WNW,292,0.0,0.0,83,0.00,,,0.00,VWS V14.01,2013-06-12 09:08:00,
2013-06-12 04:09:00,67.6,62.3,29.00,WNW,292,0.0,0.0,83,0.00,,,0.00,VWS V14.01,2013-06-12 09:09:00,
2013-06-12 04:10:00,67.6,62.6,29.00,NW,315,0.0,0.0,84,0.00,,,0.00,VWS V14.01,2013-06-12 09:10:00,
2013-06-12 04:11:00,67.6,62.6,29.00,NNW,338,0.0,0.0,84,0.00,,CLR,0.00,VWS V14.01,2013-06-12 09:11:00,
2013-06-12 04:12:00,67.6,62.6,29.00,NNW,338,0.0,0.0,84,0.00,,,0.00,VWS V14.01,2013-06-12 09:12:00,
2013-06-12 04:13:00,67.6,62.6,29.00,NNW,338,0.0,0.0,84,0.00,,,0.00,VWS V14.01,2013-06-12 09:13:00,
2013-06-12 04:14:00,67.6,62.6,29.00,NNW,338,0.0,0.0,84,0.00,,,0.00,VWS V14.01,2013-06-12 09:14:00,
2013-06-12 04:15:00,67.6,62.6,29.00,NNW,338,0.0,0.0,84,0.00,,,0.00,VWS V14.01,2013-06-12 09:15:00,
2013-06-12 04:16:00,67.6,62.6,29.00,NNW,338,0.0,0.0,84,0.00,,CLR,0.00,VWS V14.01,2013-06-12 09:16:00,
2013-06-12 04:17:00,67.6,62.6,29.00,NNW,338,0.0,0.0,84,0.00,,,0.00,VWS V14.01,2013-06-12 09:17:00,
2013-06-12 04:18:00,67.6,62.6,29.00,NNW,338,0.0,0.0,84,0.00,,,0.00,VWS V14.01,2013-06-12 09:18:00,
2013-06-12 04:19:00,67.5,62.5,29.00,NNW,338,0.0,0.0,84,0.00,,,0.00,VWS V14.01,2013-06-12 09:19:00,
2013-06-12 04:20:00,67.5,62.5,29.00,NNW,338,0.0,0.0,84,0.00,,,0.00,VWS V14.01,2013-06-12 09:20:00,
2013-06-12 04:21:00,67.5,62.5,29.00,NNW,338,0.0,0.0,84,0.00,,CLR,0.00,VWS V14.01,2013-06-12 09:21:00,
2013-06-12 04:22:00,67.3,62.3,29.00,NNW,338,0.0,0.0,84,0.00,,,0.00,VWS V14.01,2013-06-12 09:22:00,
2013-06-12 04:23:00,67.3,62.3,29.00,North,0,0.0,0.0,84,0.00,,,0.00,VWS V14.01,2013-06-12 09:23:00,
2013-06-12 04:24:00,67.3,62.3,29.03,NNW,338,0.0,0.0,84,0.00,,,0.00,VWS V14.01,2013-06-12 09:24:00,
2013-06-12 04:25:00,67.3,62.3,29.03,NW,315,0.0,0.0,84,0.00,,,0.00,VWS V14.01,2013-06-12 09:25:00,
2013-06-12 04:26:00,67.3,62.3,29.03,NNW,338,0.0,0.0,84,0.00,,CLR,0.00,VWS V14.01,2013-06-12 09:26:00,
2013-06-12 04:27:00,67.3,62.3,29.03,NNW,338,0.0,0.0,84,0.00,,,0.00,VWS V14.01,2013-06-12 09:27:00,
2013-06-12 04:28:00,67.3,62.3,29.03,NNW,338,0.0,0.0,84,0.00,,,0.00,VWS V14.01,2013-06-12 09:28:00,
2013-06-12 04:29:00,67.1,62.1,29.03,NNW,338,0.0,0.0,84,0.00,,,0.00,VWS V14.01,2013-06-12 09:29:00,
2013-06-12 04:30:00,67.3,62.3,29.03,NNW,338,0.0,0.0,84,0.00,,,0.00,VWS V14.01,2013-06-12 09:30:00,
2013-06-12 04:31:00,67.3,62.3,29.03,NNW,338,0.0,0.0,84,0.00,,CLR,0.00,VWS V14.01,2013-06-12 09:31:00,
2013-06-12 04:32:00,67.3,62.3,29.03,NNW,338,0.0,0.0,84,0.00,,,0.00,VWS V14.01,2013-06-12 09:32:00,
2013-06-12 04:33:00,67.3,62.3,29.03,NNW,338,0.0,0.0,84,0.00,,,0.00,VWS V14.01,2013-06-12 09:33:00,
2013-06-12 04:34:00,67.3,62.3,29.03,NNW,338,0.0,0.0,84,0.00,,,0.00,VWS V14.01,2013-06-12 09:34:00,
2013-06-12 04:35:00,67.3,62.3,29.03,NNW,338,0.0,0.0,84,0.00,,,0.00,VWS V14.01,2013-06-12 09:35:00,
2013-06-12 04:36:00,67.3,62.3,29.03,NNW,338,0.0,0.0,84,0.00,,CLR,0.00,VWS V14.01,2013-06-12 09:36:00,
2013-06-12 04:37:00,67.3,62.3,29.03,NNW,338,0.0,0.0,84,0.00,,,0.00,VWS V14.01,2013-06-12 09:37:00,
2013-06-12 04:38:00,67.3,62.3,29.03,NNW,338,0.0,0.0,84,0.00,,,0.00,VWS V14.01,2013-06-12 09:38:00,
2013-06-12 04:39:00,67.3,62.3,29.03,NNW,338,0.0,0.0,84,0.00,,,0.00,VWS V14.01,2013-06-12 09:39:00,
2013-06-12 04:40:00,67.3,62.3,29.03,NNW,338,0.0,0.0,84,0.00,,,0.00,VWS V14.01,2013-06-12 09:40:00,
2013-06-12 04:41:00,67.1,62.1,29.03,NNW,338,0.0,0.0,84,0.00,,CLR,0.00,VWS V14.01,2013-06-12 09:41:00,
2013-06-12 04:42:00,67.1,62.1,29.03,NNW,338,0.0,0.0,84,0.00,,,0.00,VWS V14.01,2013-06-12 09:42:00,
2013-06-12 04:43:00,67.1,62.1,29.03,NNW,338,0.0,0.0,84,0.00,,,0.00,VWS V14.01,2013-06-12 09:43:00,
2013-06-12 04:44:00,67.1,62.5,29.03,NNW,338,0.0,0.0,85,0.00,,,0.00,VWS V14.01,2013-06-12 09:44:00,
2013-06-12 04:45:00,67.1,62.5,29.03,NNW,338,0.0,0.0,85,0.00,,,0.00,VWS V14.01,2013-06-12 09:45:00,
2013-06-12 04:46:00,67.1,62.5,29.03,NNW,338,0.0,0.0,85,0.00,,CLR,0.00,VWS V14.01,2013-06-12 09:46:00,
2013-06-12 04:47:00,67.1,62.5,29.03,NNW,338,0.0,0.0,85,0.00,,,0.00,VWS V14.01,2013-06-12 09:47:00,
2013-06-12 04:48:00,67.1,62.5,29.03,NNW,338,0.0,0.0,85,0.00,,,0.00,VWS V14.01,2013-06-12 09:48:00,
2013-06-12 04:49:00,67.1,62.5,29.03,North,0,0.0,0.0,85,0.00,,,0.00,VWS V14.01,2013-06-12 09:49:00,
2013-06-12 04:50:00,67.1,62.5,29.03,North,0,0.0,0.0,85,0.00,,,0.00,VWS V14.01,2013-06-12 09:50:00,
2013-06-12 04:51:00,67.1,62.5,29.03,North,0,0.0,0.0,85,0.00,,CLR,0.00,VWS V14.01,2013-06-12 09:51:00,
2013-06-12 04:52:00,67.1,62.5,29.03,North,0,0.0,0.0,85,0.00,,,0.00,VWS V14.01,2013-06-12 09:52:00,
2013-06-12 04:53:00,67.1,62.5,29.03,North,0,0.0,0.0,85,0.00,,,0.00,VWS V14.01,2013-06-12 09:53:00,
2013-06-12 04:54:00,67.1,62.5,29.06,North,0,0.0,0.0,85,0.00,,,0.00,VWS V14.01,2013-06-12 09:54:00,
2013-06-12 04:55:00,67.1,62.5,29.06,North,0,0.0,0.0,85,0.00,,,0.00,VWS V14.01,2013-06-12 09:55:00,
2013-06-12 04:56:00,67.1,62.5,29.06,North,0,1.6,2.0,85,0.00,,CLR,0.00,VWS V14.01,2013-06-12 09:56:00,
2013-06-12 04:57:00,67.1,62.5,29.06,North,0,1.6,2.0,85,0.00,,,0.00,VWS V14.01,2013-06-12 09:57:00,
2013-06-12 04:58:00,67.1,62.5,29.06,North,0,1.6,1.6,85,0.00,,,0.00,VWS V14.01,2013-06-12 09:58:00,
2013-06-12 04:59:00,67.3,62.6,29.06,North,0,1.3,2.5,85,0.00,,,0.00,VWS V14.01,2013-06-12 09:59:00,
2013-06-12 05:00:00,67.3,62.6,29.06,NNE,22,1.3,2.0,85,0.00,,,0.00,VWS V14.01,2013-06-12 10:00:00,
2013-06-12 05:01:00,67.3,62.6,29.06,NNE,22,0.9,2.2,85,0.00,,CLR,0.00,VWS V14.01,2013-06-12 10:01:00,
2013-06-12 05:02:00,67.5,63.1,29.06,North,0,0.0,2.2,86,0.00,,,0.00,VWS V14.01,2013-06-12 10:02:00,
2013-06-12 05:03:00,67.5,63.1,29.06,NNE,22,0.0,0.0,86,0.00,,,0.00,VWS V14.01,2013-06-12 10:03:00,
2013-06-12 05:04:00,67.6,63.3,29.06,North,0,0.0,1.6,86,0.00,,,0.00,VWS V14.01,2013-06-12 10:04:00,
2013-06-12 05:05:00,67.6,63.3,29.06,North,0,1.3,1.3,86,0.00,,,0.00,VWS V14.01,2013-06-12 10:05:00,
2013-06-12 05:06:00,67.6,63.3,29.06,North,0,2.5,2.5,86,0.00,,CLR,0.00,VWS V14.01,2013-06-12 10:06:00,
2013-06-12 05:07:00,67.8,63.5,29.06,North,0,2.7,2.7,86,0.00,,,0.00,VWS V14.01,2013-06-12 10:07:00,
2013-06-12 05:08:00,67.8,63.5,29.06,North,0,1.1,2.7,86,0.00,,,0.00,VWS V14.01,2013-06-12 10:08:00,
2013-06-12 05:09:00,67.8,63.5,29.03,North,0,0.0,1.3,86,0.00,,,0.00,VWS V14.01,2013-06-12 10:09:00,
2013-06-12 05:10:00,67.8,63.5,29.03,North,0,0.0,1.3,86,0.00,,,0.00,VWS V14.01,2013-06-12 10:10:00,
2013-06-12 05:11:00,68.0,63.3,29.03,North,0,0.0,2.0,85,0.00,,CLR,0.00,VWS V14.01,2013-06-12 10:11:00,
2013-06-12 05:12:00,68.0,63.3,29.03,North,0,0.0,2.0,85,0.00,,,0.00,VWS V14.01,2013-06-12 10:12:00,
2013-06-12 05:13:00,68.0,63.3,29.03,North,0,2.0,2.0,85,0.00,,,0.00,VWS V14.01,2013-06-12 10:13:00,
2013-06-12 05:14:00,68.0,63.3,29.03,North,0,1.1,2.0,85,0.00,,,0.00,VWS V14.01,2013-06-12 10:14:00,
2013-06-12 05:15:00,68.0,63.3,29.03,North,0,1.1,1.1,85,0.00,,,0.00,VWS V14.01,2013-06-12 10:15:00,
2013-06-12 05:16:00,68.0,63.3,29.03,North,0,1.1,1.1,85,0.00,,CLR,0.00,VWS V14.01,2013-06-12 10:16:00,
2013-06-12 05:17:00,68.0,63.3,29.03,North,0,0.0,1.1,85,0.00,,,0.00,VWS V14.01,2013-06-12 10:17:00,
2013-06-12 05:18:00,68.0,63.0,29.03,North,0,2.9,2.9,84,0.00,,,0.00,VWS V14.01,2013-06-12 10:18:00,
2013-06-12 05:19:00,68.2,63.2,29.03,North,0,0.0,2.9,84,0.00,,,0.00,VWS V14.01,2013-06-12 10:19:00,
2013-06-12 05:20:00,68.2,63.2,29.03,North,0,0.9,0.9,84,0.00,,,0.00,VWS V14.01,2013-06-12 10:20:00,
2013-06-12 05:21:00,68.2,63.2,29.03,NNE,22,1.1,2.5,84,0.00,,CLR,0.00,VWS V14.01,2013-06-12 10:21:00,
2013-06-12 05:22:00,68.2,63.2,29.03,NNE,22,0.0,2.5,84,0.00,,,0.00,VWS V14.01,2013-06-12 10:22:00,
2013-06-12 05:23:00,68.2,63.2,29.03,NNE,22,0.0,0.0,84,0.00,,,0.00,VWS V14.01,2013-06-12 10:23:00,
2013-06-12 05:24:00,68.2,62.8,29.00,North,0,2.5,2.5,83,0.00,,,0.00,VWS V14.01,2013-06-12 10:24:00,
2013-06-12 05:25:00,68.4,63.0,29.00,North,0,2.5,3.4,83,0.00,,,0.00,VWS V14.01,2013-06-12 10:25:00,
2013-06-12 05:26:00,68.5,62.8,29.00,North,0,2.9,2.9,82,0.00,,CLR,0.00,VWS V14.01,2013-06-12 10:26:00,
2013-06-12 05:27:00,68.5,62.8,29.00,North,0,2.2,2.9,82,0.00,,,0.00,VWS V14.01,2013-06-12 10:27:00,
2013-06-12 05:28:00,68.5,62.8,29.00,NNE,22,0.0,2.2,82,0.00,,,0.00,VWS V14.01,2013-06-12 10:28:00,
2013-06-12 05:29:00,68.5,62.8,29.00,North,0,2.0,2.0,82,0.00,,,0.00,VWS V14.01,2013-06-12 10:29:00,
2013-06-12 05:30:00,68.5,62.5,29.00,North,0,2.7,2.7,81,0.00,,,0.00,VWS V14.01,2013-06-12 10:30:00,
2013-06-12 05:31:00,68.7,62.7,29.00,ENE,68,0.0,1.3,81,0.00,,CLR,0.00,VWS V14.01,2013-06-12 10:31:00,
2013-06-12 05:32:00,68.7,62.7,29.00,ENE,68,0.0,1.3,81,0.00,,,0.00,VWS V14.01,2013-06-12 10:32:00,
2013-06-12 05:33:00,68.7,62.7,29.00,NNE,22,0.0,0.9,81,0.00,,,0.00,VWS V14.01,2013-06-12 10:33:00,
2013-06-12 05:34:00,68.7,62.7,29.00,North,0,1.6,1.6,81,0.00,,,0.00,VWS V14.01,2013-06-12 10:34:00,
2013-06-12 05:35:00,68.7,62.7,29.00,North,0,2.0,2.5,81,0.00,,,0.00,VWS V14.01,2013-06-12 10:35:00,
2013-06-12 05:36:00,68.7,62.3,29.00,North,0,0.0,1.6,80,0.00,,CLR,0.00,VWS V14.01,2013-06-12 10:36:00,
2013-06-12 05:37:00,68.7,62.3,29.00,North,0,0.0,1.6,80,0.00,,,0.00,VWS V14.01,2013-06-12 10:37:00,
2013-06-12 05:38:00,68.7,62.3,29.00,North,0,0.0,0.0,80,0.00,,,0.00,VWS V14.01,2013-06-12 10:38:00,
2013-06-12 05:39:00,68.7,62.3,29.03,North,0,0.0,0.0,80,0.00,,,0.00,VWS V14.01,2013-06-12 10:39:00,
2013-06-12 05:40:00,68.7,62.3,29.03,NNE,22,1.1,1.6,80,0.00,,,0.00,VWS V14.01,2013-06-12 10:40:00,
2013-06-12 05:41:00,68.5,62.1,29.03,SE,135,1.3,1.3,80,0.00,,CLR,0.00,VWS V14.01,2013-06-12 10:41:00,
2013-06-12 05:42:00,68.5,62.1,29.03,East,90,1.3,1.3,80,0.00,,,0.00,VWS V14.01,2013-06-12 10:42:00,
2013-06-12 05:43:00,68.7,62.3,29.03,ESE,112,0.0,1.3,80,0.00,,,0.00,VWS V14.01,2013-06-12 10:43:00,
2013-06-12 05:44:00,68.7,62.3,29.03,SE,135,2.0,2.5,80,0.00,,,0.00,VWS V14.01,2013-06-12 10:44:00,
2013-06-12 05:45:00,68.7,62.3,29.03,East,90,1.6,2.0,80,0.00,,,0.00,VWS V14.01,2013-06-12 10:45:00,
2013-06-12 05:46:00,68.7,62.3,29.03,ESE,112,0.9,2.0,80,0.00,,CLR,0.00,VWS V14.01,2013-06-12 10:46:00,
2013-06-12 05:47:00,68.7,62.3,29.03,ESE,112,0.9,0.9,80,0.00,,,0.00,VWS V14.01,2013-06-12 10:47:00,
2013-06-12 05:48:00,68.7,62.3,29.03,NNE,22,1.6,2.2,80,0.00,,,0.00,VWS V14.01,2013-06-12 10:48:00,
2013-06-12 05:49:00,68.7,62.0,29.03,ESE,112,3.1,3.1,79,0.00,,,0.00,VWS V14.01,2013-06-12 10:49:00,
2013-06-12 05:50:00,68.7,62.0,29.03,SE,135,0.0,3.1,79,0.00,,,0.00,VWS V14.01,2013-06-12 10:50:00,
2013-06-12 05:51:00,68.7,62.0,29.03,NE,45,0.0,0.0,79,0.00,,CLR,0.00,VWS V14.01,2013-06-12 10:51:00,
2013-06-12 05:52:00,68.7,62.0,29.03,ESE,112,0.0,0.0,79,0.00,,,0.00,VWS V14.01,2013-06-12 10:52:00,
2013-06-12 05:53:00,68.7,62.0,29.03,SSE,158,1.1,1.1,79,0.00,,,0.00,VWS V14.01,2013-06-12 10:53:00,
2013-06-12 05:54:00,68.9,62.1,29.03,NE,45,2.2,3.6,79,0.00,,,0.00,VWS V14.01,2013-06-12 10:54:00,
2013-06-12 05:55:00,68.9,62.1,29.03,SSE,158,1.3,2.2,79,0.00,,,0.00,VWS V14.01,2013-06-12 10:55:00,
2013-06-12 05:56:00,68.9,61.8,29.03,NNE,22,0.9,3.4,78,0.00,,,0.00,VWS V14.01,2013-06-12 10:56:00,
2013-06-12 05:57:00,68.9,61.8,29.03,NNE,22,0.0,3.4,78,0.00,,,0.00,VWS V14.01,2013-06-12 10:57:00,
2013-06-12 05:58:00,68.9,61.8,29.03,North,0,1.3,2.0,78,0.00,,,0.00,VWS V14.01,2013-06-12 10:58:00,
2013-06-12 05:59:00,68.9,61.8,29.03,North,0,0.0,1.3,78,0.00,,,0.00,VWS V14.01,2013-06-12 10:59:00,
2013-06-12 06:00:00,68.9,61.8,29.03,North,0,1.1,1.1,78,0.00,,,0.00,VWS V14.01,2013-06-12 11:00:00,
2013-06-12 06:01:00,68.9,61.8,29.03,North,0,0.9,1.6,78,0.00,,,0.00,VWS V14.01,2013-06-12 11:01:00,
2013-06-12 06:02:00,68.9,61.8,29.03,North,0,0.0,1.6,78,0.00,,,0.00,VWS V14.01,2013-06-12 11:02:00,
2013-06-12 06:03:00,68.9,61.8,29.03,North,0,0.0,0.0,78,0.00,,,0.00,VWS V14.01,2013-06-12 11:03:00,
2013-06-12 06:04:00,68.7,61.6,29.03,North,0,0.0,1.1,78,0.00,,,0.00,VWS V14.01,2013-06-12 11:04:00,
2013-06-12 06:05:00,68.7,61.6,29.03,North,0,0.0,0.0,78,0.00,,,0.00,VWS V14.01,2013-06-12 11:05:00,
2013-06-12 06:06:00,68.7,61.6,29.03,North,0,0.0,0.0,78,0.00,,,0.00,VWS V14.01,2013-06-12 11:06:00,
2013-06-12 06:07:00,68.7,61.6,29.03,North,0,0.0,0.0,78,0.00,,,0.00,VWS V14.01,2013-06-12 11:07:00,
2013-06-12 06:08:00,68.7,61.6,29.03,ENE,68,0.0,0.0,78,0.00,,,0.00,VWS V14.01,2013-06-12 11:08:00,
2013-06-12 06:09:00,68.7,61.6,29.03,East,90,0.0,0.0,78,0.00,,,0.00,VWS V14.01,2013-06-12 11:09:00,
2013-06-12 06:10:00,68.5,61.4,29.03,East,90,0.0,0.0,78,0.00,,,0.00,VWS V14.01,2013-06-12 11:10:00,
2013-06-12 06:11:00,68.5,61.4,29.03,NE,45,1.6,1.6,78,0.00,,,0.00,VWS V14.01,2013-06-12 11:11:00,
2013-06-12 06:12:00,68.5,61.4,29.03,East,90,0.0,1.6,78,0.00,,,0.00,VWS V14.01,2013-06-12 11:12:00,
2013-06-12 06:13:00,68.5,61.4,29.03,ESE,112,0.9,0.9,78,0.00,,,0.00,VWS V14.01,2013-06-12 11:13:00,
2013-06-12 06:14:00,68.7,61.6,29.03,East,90,0.0,1.6,78,0.00,,,0.00,VWS V14.01,2013-06-12 11:14:00,
2013-06-12 06:15:00,68.7,61.6,29.03,East,90,0.0,0.0,78,0.00,,,0.00,VWS V14.01,2013-06-12 11:15:00,
2013-06-12 06:16:00,68.7,61.6,29.03,NE,45,0.0,0.0,78,0.00,,,0.00,VWS V14.01,2013-06-12 11:16:00,
2013-06-12 06:17:00,68.7,61.6,29.03,NE,45,0.0,0.0,78,0.00,,,0.00,VWS V14.01,2013-06-12 11:17:00,
2013-06-12 06:18:00,68.7,61.6,29.03,NE,45,0.0,0.0,78,0.00,,,0.00,VWS V14.01,2013-06-12 11:18:00,
2013-06-12 06:19:00,68.7,61.6,29.03,East,90,0.0,2.0,78,0.00,,,0.00,VWS V14.01,2013-06-12 11:19:00,
2013-06-12 06:20:00,68.7,61.6,29.03,ESE,112,1.3,2.0,78,0.00,,,0.00,VWS V14.01,2013-06-12 11:20:00,
2013-06-12 06:21:00,68.9,61.4,29.03,East,90,1.1,1.3,77,0.00,,,0.00,VWS V14.01,2013-06-12 11:21:00,
2013-06-12 06:22:00,68.9,61.4,29.03,ESE,112,0.0,1.3,77,0.00,,,0.00,VWS V14.01,2013-06-12 11:22:00,
2013-06-12 06:23:00,68.9,61.4,29.03,NNE,22,0.0,0.0,77,0.00,,,0.00,VWS V14.01,2013-06-12 11:23:00,
2013-06-12 06:24:00,68.9,61.4,29.03,ESE,112,1.3,1.3,77,0.00,,,0.00,VWS V14.01,2013-06-12 11:24:00,
2013-06-12 06:25:00,68.9,61.4,29.03,ESE,112,2.7,2.7,77,0.00,,,0.00,VWS V14.01,2013-06-12 11:25:00,
2013-06-12 06:26:00,68.9,61.4,29.03,ESE,112,0.9,2.0,77,0.00,,,0.00,VWS V14.01,2013-06-12 11:26:00,
2013-06-12 06:27:00,68.9,61.4,29.03,East,90,1.1,2.0,77,0.00,,,0.00,VWS V14.01,2013-06-12 11:27:00,
2013-06-12 06:28:00,68.9,61.4,29.03,NNE,22,1.1,1.1,77,0.00,,,0.00,VWS V14.01,2013-06-12 11:28:00,
2013-06-12 06:29:00,68.9,61.4,29.03,SSE,158,0.0,1.1,77,0.00,,,0.00,VWS V14.01,2013-06-12 11:29:00,
2013-06-12 06:30:00,68.9,61.4,29.03,SSE,158,0.0,0.0,77,0.00,,,0.00,VWS V14.01,2013-06-12 11:30:00,
2013-06-12 06:31:00,68.9,61.4,29.03,SE,135,0.9,1.1,77,0.00,,,0.00,VWS V14.01,2013-06-12 11:31:00,
2013-06-12 06:32:00,68.9,61.4,29.03,SE,135,0.0,1.1,77,0.00,,,0.00,VWS V14.01,2013-06-12 11:32:00,
2013-06-12 06:33:00,68.9,61.4,29.03,SE,135,0.0,0.0,77,0.00,,,0.00,VWS V14.01,2013-06-12 11:33:00,
2013-06-12 06:34:00,68.9,61.4,29.03,SE,135,0.0,0.0,77,0.00,,,0.00,VWS V14.01,2013-06-12 11:34:00,
2013-06-12 06:35:00,68.9,61.4,29.03,SE,135,0.0,0.0,77,0.00,,,0.00,VWS V14.01,2013-06-12 11:35:00,
2013-06-12 06:36:00,68.9,61.4,29.03,SSE,158,2.0,2.5,77,0.00,,,0.00,VWS V14.01,2013-06-12 11:36:00,
2013-06-12 06:37:00,68.9,61.4,29.03,SSE,158,1.6,2.5,77,0.00,,,0.00,VWS V14.01,2013-06-12 11:37:00,
2013-06-12 06:38:00,68.9,61.4,29.03,SSE,158,2.0,2.0,77,0.00,,,0.00,VWS V14.01,2013-06-12 11:38:00,
2013-06-12 06:39:00,68.9,61.4,29.03,SSE,158,2.0,2.0,77,0.00,,,0.00,VWS V14.01,2013-06-12 11:39:00,
2013-06-12 06:40:00,68.9,61.4,29.03,SSE,158,0.0,2.0,77,0.00,,,0.00,VWS V14.01,2013-06-12 11:40:00,
2013-06-12 06:41:00,68.9,61.4,29.03,SSE,158,0.0,0.0,77,0.00,,,0.00,VWS V14.01,2013-06-12 11:41:00,
2013-06-12 06:42:00,68.9,61.4,29.03,SSE,158,0.0,0.0,77,0.00,,,0.00,VWS V14.01,2013-06-12 11:42:00,
2013-06-12 06:43:00,68.9,61.4,29.03,SSE,158,0.0,0.0,77,0.00,,,0.00,VWS V14.01,2013-06-12 11:43:00,
2013-06-12 06:44:00,68.9,61.4,29.03,SSE,158,0.0,0.0,77,0.00,,,0.00,VWS V14.01,2013-06-12 11:44:00,
2013-06-12 06:45:00,68.9,61.4,29.03,SSE,158,0.0,0.0,77,0.00,,,0.00,VWS V14.01,2013-06-12 11:45:00,
2013-06-12 06:46:00,68.9,61.4,29.03,SSE,158,0.0,0.0,77,0.00,,,0.00,VWS V14.01,2013-06-12 11:46:00,
2013-06-12 06:47:00,68.9,61.4,29.03,SSE,158,0.0,0.0,77,0.00,,,0.00,VWS V14.01,2013-06-12 11:47:00,
2013-06-12 06:48:00,68.9,61.4,29.03,SSE,158,0.0,0.0,77,0.00,,,0.00,VWS V14.01,2013-06-12 11:48:00,
2013-06-12 06:49:00,68.7,61.2,29.03,SSE,158,0.0,0.0,77,0.00,,,0.00,VWS V14.01,2013-06-12 11:49:00,
2013-06-12 06:50:00,68.7,61.2,29.03,SSE,158,0.0,0.0,77,0.00,,,0.00,VWS V14.01,2013-06-12 11:50:00,
2013-06-12 06:51:00,68.7,61.2,29.03,SSE,158,0.0,0.0,77,0.00,,,0.00,VWS V14.01,2013-06-12 11:51:00,
2013-06-12 06:52:00,68.7,61.2,29.03,SSE,158,0.0,0.0,77,0.00,,,0.00,VWS V14.01,2013-06-12 11:52:00,
2013-06-12 06:53:00,68.7,61.2,29.06,SSE,158,0.0,0.0,77,0.00,,,0.00,VWS V14.01,2013-06-12 11:53:00,
2013-06-12 06:54:00,68.7,61.2,29.06,SSE,158,0.0,0.0,77,0.00,,,0.00,VWS V14.01,2013-06-12 11:54:00,
2013-06-12 06:55:00,68.7,61.2,29.06,West,270,0.0,0.0,77,0.00,,,0.00,VWS V14.01,2013-06-12 11:55:00,
2013-06-12 06:56:00,68.7,61.2,29.06,West,270,0.0,0.0,77,0.00,,FEW120,0.00,VWS V14.01,2013-06-12 11:56:00,
2013-06-12 06:57:00,68.7,61.2,29.06,West,270,0.0,0.0,77,0.00,,,0.00,VWS V14.01,2013-06-12 11:57:00,
2013-06-12 06:58:00,68.7,61.2,29.06,West,270,0.0,0.0,77,0.00,,,0.00,VWS V14.01,2013-06-12 11:58:00,
2013-06-12 06:59:00,68.7,61.2,29.06,West,270,0.0,0.0,77,0.00,,,0.00,VWS V14.01,2013-06-12 11:59:00,
2013-06-12 07:00:00,68.5,61.0,29.06,West,270,0.0,0.0,77,0.00,,,0.00,VWS V14.01,2013-06-12 12:00:00,
2013-06-12 07:01:00,68.5,61.4,29.06,South,180,0.0,0.0,78,0.00,,FEW120,0.00,VWS V14.01,2013-06-12 12:01:00,
2013-06-12 07:02:00,68.5,61.4,29.06,South,180,0.0,0.0,78,0.00,,,0.00,VWS V14.01,2013-06-12 12:02:00,
2013-06-12 07:03:00,68.5,61.4,29.06,South,180,0.0,0.0,78,0.00,,,0.00,VWS V14.01,2013-06-12 12:03:00,
2013-06-12 07:04:00,68.5,61.4,29.06,South,180,0.0,0.0,78,0.00,,,0.00,VWS V14.01,2013-06-12 12:04:00,
2013-06-12 07:05:00,68.5,61.4,29.06,South,180,0.0,0.0,78,0.00,,,0.00,VWS V14.01,2013-06-12 12:05:00,
2013-06-12 07:06:00,68.5,61.4,29.06,SSE,158,0.0,0.0,78,0.00,,FEW120,0.00,VWS V14.01,2013-06-12 12:06:00,
2013-06-12 07:07:00,68.5,61.4,29.06,SSE,158,0.0,0.0,78,0.00,,,0.00,VWS V14.01,2013-06-12 12:07:00,
2013-06-12 07:08:00,68.5,61.4,29.06,ESE,112,0.0,0.0,78,0.00,,,0.00,VWS V14.01,2013-06-12 12:08:00,
2013-06-12 07:09:00,68.5,61.4,29.06,East,90,0.0,0.0,78,0.00,,,0.00,VWS V14.01,2013-06-12 12:09:00,
2013-06-12 07:10:00,68.5,61.4,29.06,East,90,0.0,0.0,78,0.00,,,0.00,VWS V14.01,2013-06-12 12:10:00,
2013-06-12 07:11:00,68.5,61.4,29.06,NW,315,0.0,0.0,78,0.00,,FEW120,0.00,VWS V14.01,2013-06-12 12:11:00,
2013-06-12 07:12:00,68.5,61.4,29.06,NW,315,0.0,0.0,78,0.00,,,0.00,VWS V14.01,2013-06-12 12:12:00,
2013-06-12 07:13:00,68.5,61.4,29.06,NW,315,0.0,0.0,78,0.00,,,0.00,VWS V14.01,2013-06-12 12:13:00,
2013-06-12 07:14:00,68.5,61.4,29.06,South,180,1.3,1.3,78,0.00,,,0.00,VWS V14.01,2013-06-12 12:14:00,
2013-06-12 07:15:00,68.5,61.4,29.06,SSE,158,0.0,2.2,78,0.00,,,0.00,VWS V14.01,2013-06-12 12:15:00,
2013-06-12 07:16:00,68.5,61.8,29.06,South,180,0.0,0.0,79,0.00,,FEW120,0.00,VWS V14.01,2013-06-12 12:16:00,
2013-06-12 07:17:00,68.5,61.8,29.06,South,180,0.0,0.0,79,0.00,,,0.00,VWS V14.01,2013-06-12 12:17:00,
2013-06-12 07:18:00,68.5,61.8,29.06,West,270,0.0,0.0,79,0.00,,,0.00,VWS V14.01,2013-06-12 12:18:00,
2013-06-12 07:19:00,68.5,61.8,29.06,West,270,0.0,0.0,79,0.00,,,0.00,VWS V14.01,2013-06-12 12:19:00,
2013-06-12 07:20:00,68.5,61.8,29.06,West,270,0.0,0.0,79,0.00,,,0.00,VWS V14.01,2013-06-12 12:20:00,
2013-06-12 07:21:00,68.5,61.8,29.06,West,270,0.0,0.0,79,0.00,,FEW120,0.00,VWS V14.01,2013-06-12 12:21:00,
2013-06-12 07:22:00,68.5,61.8,29.06,West,270,0.0,0.0,79,0.00,,,0.00,VWS V14.01,2013-06-12 12:22:00,
2013-06-12 07:23:00,68.5,61.8,29.06,West,270,0.0,0.0,79,0.00,,,0.00,VWS V14.01,2013-06-12 12:23:00,
2013-06-12 07:24:00,68.5,61.8,29.09,West,270,0.0,0.0,79,0.00,,,0.00,VWS V14.01,2013-06-12 12:24:00,
2013-06-12 07:25:00,68.4,61.6,29.09,West,270,0.0,0.0,79,0.00,,,0.00,VWS V14.01,2013-06-12 12:25:00,
2013-06-12 07:26:00,68.4,61.6,29.09,West,270,0.0,0.0,79,0.00,,FEW120,0.00,VWS V14.01,2013-06-12 12:26:00,
2013-06-12 07:27:00,68.4,61.6,29.09,West,270,0.0,0.0,79,0.00,,,0.00,VWS V14.01,2013-06-12 12:27:00,
2013-06-12 07:28:00,68.4,61.6,29.09,West,270,0.0,0.0,79,0.00,,,0.00,VWS V14.01,2013-06-12 12:28:00,
2013-06-12 07:29:00,68.5,62.1,29.09,West,270,0.0,0.0,80,0.00,,,0.00,VWS V14.01,2013-06-12 12:29:00,
2013-06-12 07:30:00,68.4,61.6,29.09,WNW,292,1.1,1.1,79,0.00,,,0.00,VWS V14.01,2013-06-12 12:30:00,
2013-06-12 07:31:00,68.4,61.6,29.09,WNW,292,1.6,1.6,79,0.00,,FEW120,0.00,VWS V14.01,2013-06-12 12:31:00,
2013-06-12 07:32:00,68.4,62.0,29.09,WNW,292,1.6,1.6,80,0.00,,,0.00,VWS V14.01,2013-06-12 12:32:00,
2013-06-12 07:33:00,68.4,62.0,29.09,WNW,292,0.9,1.6,80,0.00,,,0.00,VWS V14.01,2013-06-12 12:33:00,
2013-06-12 07:34:00,68.2,61.8,29.09,WNW,292,0.0,0.9,80,0.00,,,0.00,VWS V14.01,2013-06-12 12:34:00,
2013-06-12 07:35:00,68.2,61.8,29.09,WNW,292,0.0,0.0,80,0.00,,,0.00,VWS V14.01,2013-06-12 12:35:00,
2013-06-12 07:36:00,68.2,62.1,29.09,WNW,292,0.0,0.0,81,0.00,,FEW120,0.00,VWS V14.01,2013-06-12 12:36:00,
2013-06-12 07:37:00,68.2,62.1,29.09,WNW,292,0.0,0.0,81,0.00,,,0.00,VWS V14.01,2013-06-12 12:37:00,
2013-06-12 07:39:00,68.2,62.1,29.09,WNW,292,0.0,0.0,81,0.00,,,0.00,VWS V14.01,2013-06-12 12:39:00,
2013-06-12 07:40:00,68.2,62.1,29.09,WNW,292,0.0,0.0,81,0.00,,,0.00,VWS V14.01,2013-06-12 12:40:00,
2013-06-12 07:41:00,68.2,62.1,29.09,WNW,292,0.0,0.0,81,0.00,,FEW120,0.00,VWS V14.01,2013-06-12 12:41:00,
2013-06-12 07:42:00,68.2,62.1,29.09,WNW,292,0.0,0.0,81,0.00,,,0.00,VWS V14.01,2013-06-12 12:42:00,
2013-06-12 07:43:00,68.4,62.3,29.09,South,180,0.0,0.0,81,0.00,,,0.00,VWS V14.01,2013-06-12 12:43:00,
2013-06-12 07:45:00,68.4,62.3,29.09,South,180,0.0,0.0,81,0.00,,,0.00,VWS V14.01,2013-06-12 12:45:00,
2013-06-12 07:46:00,68.4,62.7,29.09,South,180,0.0,0.0,82,0.00,,FEW120,0.00,VWS V14.01,2013-06-12 12:46:00,
2013-06-12 07:47:00,68.4,62.7,29.09,South,180,0.0,0.0,82,0.00,,,0.00,VWS V14.01,2013-06-12 12:47:00,
2013-06-12 07:48:00,68.4,62.7,29.09,South,180,0.0,0.0,82,0.00,,,0.00,VWS V14.01,2013-06-12 12:48:00,
2013-06-12 07:49:00,68.5,62.8,29.09,South,180,0.0,0.0,82,0.00,,,0.00,VWS V14.01,2013-06-12 12:49:00,
2013-06-12 07:50:00,68.5,62.8,29.09,South,180,0.0,0.0,82,0.00,,,0.00,VWS V14.01,2013-06-12 12:50:00,
2013-06-12 07:51:00,68.5,62.8,29.09,South,180,0.0,0.0,82,0.00,,FEW120,0.00,VWS V14.01,2013-06-12 12:51:00,
2013-06-12 07:52:00,68.5,62.8,29.09,South,180,0.0,0.0,82,0.00,,,0.00,VWS V14.01,2013-06-12 12:52:00,
2013-06-12 07:53:00,68.7,63.0,29.09,South,180,0.0,0.0,82,0.00,,,0.00,VWS V14.01,2013-06-12 12:53:00,
2013-06-12 07:54:00,68.7,63.0,29.06,South,180,0.0,0.0,82,0.00,,,0.00,VWS V14.01,2013-06-12 12:54:00,
2013-06-12 07:55:00,68.7,63.0,29.06,South,180,0.0,0.0,82,0.00,,,0.00,VWS V14.01,2013-06-12 12:55:00,
2013-06-12 07:56:00,68.7,63.0,29.06,South,180,1.1,1.1,82,0.00,,BKN060,0.00,VWS V14.01,2013-06-12 12:56:00,
2013-06-12 07:57:00,68.9,63.2,29.06,SSE,158,2.0,2.0,82,0.00,,,0.00,VWS V14.01,2013-06-12 12:57:00,
2013-06-12 07:58:00,68.9,63.2,29.06,SSE,158,1.1,2.0,82,0.00,,,0.00,VWS V14.01,2013-06-12 12:58:00,
2013-06-12 07:59:00,68.9,63.2,29.06,SSE,158,1.6,1.6,82,0.00,,,0.00,VWS V14.01,2013-06-12 12:59:00,
2013-06-12 08:00:00,68.9,63.2,29.06,SSE,158,1.3,1.6,82,0.00,,,0.00,VWS V14.01,2013-06-12 13:00:00,
2013-06-12 08:01:00,69.3,63.5,29.06,SSE,158,2.0,2.0,82,0.00,,BKN060,0.00,VWS V14.01,2013-06-12 13:01:00,
2013-06-12 08:02:00,69.3,63.5,29.06,SSE,158,1.3,2.0,82,0.00,,,0.00,VWS V14.01,2013-06-12 13:02:00,
2013-06-12 08:03:00,69.4,63.7,29.06,SSE,158,2.0,2.0,82,0.00,,,0.00,VWS V14.01,2013-06-12 13:03:00,
2013-06-12 08:04:00,69.4,63.7,29.06,SSE,158,2.9,2.9,82,0.00,,,0.00,VWS V14.01,2013-06-12 13:04:00,
2013-06-12 08:05:00,69.4,63.7,29.06,SSE,158,2.5,2.9,82,0.00,,,0.00,VWS V14.01,2013-06-12 13:05:00,
2013-06-12 08:06:00,69.6,63.9,29.06,SSE,158,2.0,2.2,82,0.00,,BKN060,0.00,VWS V14.01,2013-06-12 13:06:00,
2013-06-12 08:07:00,69.6,63.9,29.06,SSE,158,1.6,2.2,82,0.00,,,0.00,VWS V14.01,2013-06-12 13:07:00,
2013-06-12 08:08:00,69.8,64.1,29.06,SSE,158,2.5,2.5,82,0.00,,,0.00,VWS V14.01,2013-06-12 13:08:00,
2013-06-12 08:09:00,70.0,64.2,29.06,SSE,158,1.6,2.5,82,0.00,,,0.00,VWS V14.01,2013-06-12 13:09:00,
2013-06-12 08:10:00,70.0,64.2,29.06,SSE,158,1.3,1.6,82,0.00,,,0.00,VWS V14.01,2013-06-12 13:10:00,
2013-06-12 08:11:00,70.2,64.4,29.06,SSE,158,2.9,2.9,82,0.00,,BKN060,0.00,VWS V14.01,2013-06-12 13:11:00,
2013-06-12 08:12:00,70.2,64.4,29.06,SSE,158,2.0,2.9,82,0.00,,,0.00,VWS V14.01,2013-06-12 13:12:00,
2013-06-12 08:13:00,70.3,64.6,29.06,SSE,158,0.9,2.5,82,0.00,,,0.00,VWS V14.01,2013-06-12 13:13:00,
2013-06-12 08:14:00,70.3,64.2,29.06,SSE,158,0.0,2.5,81,0.00,,,0.00,VWS V14.01,2013-06-12 13:14:00,
2013-06-12 08:15:00,70.5,64.4,29.06,SSE,158,1.3,1.3,81,0.00,,,0.00,VWS V14.01,2013-06-12 13:15:00,
2013-06-12 08:16:00,70.7,64.6,29.06,SSE,158,0.0,0.0,81,0.00,,BKN060,0.00,VWS V14.01,2013-06-12 13:16:00,
2013-06-12 08:17:00,70.9,64.8,29.06,SSE,158,0.0,0.0,81,0.00,,,0.00,VWS V14.01,2013-06-12 13:17:00,
2013-06-12 08:18:00,70.9,64.8,29.06,SSE,158,0.0,0.0,81,0.00,,,0.00,VWS V14.01,2013-06-12 13:18:00,
2013-06-12 08:19:00,71.1,64.6,29.06,SSE,158,0.0,0.0,80,0.00,,,0.00,VWS V14.01,2013-06-12 13:19:00,
2013-06-12 08:20:00,71.1,64.6,29.06,SSE,158,0.0,0.0,80,0.00,,,0.00,VWS V14.01,2013-06-12 13:20:00,
2013-06-12 08:21:00,71.2,64.8,29.06,SSE,158,0.0,1.3,80,0.00,,BKN060,0.00,VWS V14.01,2013-06-12 13:21:00,
2013-06-12 08:22:00,71.2,64.8,29.06,SSE,158,0.0,1.3,80,0.00,,,0.00,VWS V14.01,2013-06-12 13:22:00,
2013-06-12 08:23:00,71.2,64.8,29.06,SSE,158,1.1,1.1,80,0.00,,,0.00,VWS V14.01,2013-06-12 13:23:00,
2013-06-12 08:24:00,71.4,64.9,29.06,SSE,158,1.3,2.2,80,0.00,,,0.00,VWS V14.01,2013-06-12 13:24:00,
2013-06-12 08:25:00,71.4,64.9,29.06,South,180,2.9,2.9,80,0.00,,,0.00,VWS V14.01,2013-06-12 13:25:00,
2013-06-12 08:26:00,71.4,64.9,29.06,South,180,2.2,3.1,80,0.00,,BKN060,0.00,VWS V14.01,2013-06-12 13:26:00,
2013-06-12 08:27:00,71.6,65.1,29.06,South,180,1.3,3.1,80,0.00,,,0.00,VWS V14.01,2013-06-12 13:27:00,
2013-06-12 08:28:00,71.6,64.8,29.06,SSE,158,0.9,1.3,79,0.00,,,0.00,VWS V14.01,2013-06-12 13:28:00,
2013-06-12 08:29:00,71.6,64.8,29.06,SSE,158,1.1,1.1,79,0.00,,,0.00,VWS V14.01,2013-06-12 13:29:00,
2013-06-12 08:30:00,71.6,64.8,29.06,SSE,158,2.5,2.5,79,0.00,,,0.00,VWS V14.01,2013-06-12 13:30:00,
2013-06-12 08:31:00,71.6,64.8,29.06,SSE,158,3.1,3.1,79,0.00,,BKN060,0.00,VWS V14.01,2013-06-12 13:31:00,
2013-06-12 08:32:00,71.6,64.4,29.06,SSE,158,0.0,3.1,78,0.00,,,0.00,VWS V14.01,2013-06-12 13:32:00,
2013-06-12 08:33:00,71.6,64.4,29.06,SSE,158,0.9,1.1,78,0.00,,,0.00,VWS V14.01,2013-06-12 13:33:00,
2013-06-12 08:34:00,71.8,64.6,29.06,SSE,158,0.0,0.9,78,0.00,,,0.00,VWS V14.01,2013-06-12 13:34:00,
2013-06-12 08:35:00,71.8,64.6,29.06,SSE,158,0.0,0.0,78,0.00,,,0.00,VWS V14.01,2013-06-12 13:35:00,
2013-06-12 08:36:00,71.8,64.2,29.06,SE,135,2.5,2.5,77,0.00,,BKN060,0.00,VWS V14.01,2013-06-12 13:36:00,
2013-06-12 08:37:00,71.8,64.2,29.06,SSE,158,2.9,2.9,77,0.00,,,0.00,VWS V14.01,2013-06-12 13:37:00,
2013-06-12 08:38:00,71.8,64.2,29.03,SSE,158,2.2,2.9,77,0.00,,,0.00,VWS V14.01,2013-06-12 13:38:00,
2013-06-12 08:39:00,71.8,64.2,29.03,SSE,158,0.9,2.2,77,0.00,,,0.00,VWS V14.01,2013-06-12 13:39:00,
2013-06-12 08:40:00,71.8,64.2,29.03,ESE,112,0.0,0.9,77,0.00,,,0.00,VWS V14.01,2013-06-12 13:40:00,
2013-06-12 08:41:00,72.0,64.4,29.03,ESE,112,0.0,0.0,77,0.00,,BKN060,0.00,VWS V14.01,2013-06-12 13:41:00,
2013-06-12 08:42:00,72.0,64.4,29.03,ESE,112,0.0,0.0,77,0.00,,,0.00,VWS V14.01,2013-06-12 13:42:00,
2013-06-12 08:43:00,72.0,64.4,29.03,ESE,112,0.0,0.0,77,0.00,,,0.00,VWS V14.01,2013-06-12 13:43:00,
2013-06-12 08:44:00,72.0,64.4,29.03,ESE,112,0.0,0.0,77,0.00,,,0.00,VWS V14.01,2013-06-12 13:44:00,
2013-06-12 08:45:00,72.0,64.4,29.03,ESE,112,0.0,0.0,77,0.00,,,0.00,VWS V14.01,2013-06-12 13:45:00,
2013-06-12 08:46:00,72.0,64.4,29.03,NNW,338,0.0,0.0,77,0.00,,BKN060,0.00,VWS V14.01,2013-06-12 13:46:00,
2013-06-12 08:47:00,72.0,64.4,29.03,NNW,338,0.0,0.0,77,0.00,,,0.00,VWS V14.01,2013-06-12 13:47:00,
2013-06-12 08:48:00,72.0,64.4,29.03,NNW,338,0.0,0.0,77,0.00,,,0.00,VWS V14.01,2013-06-12 13:48:00,
2013-06-12 08:49:00,72.0,64.0,29.03,NNW,338,0.0,0.0,76,0.00,,,0.00,VWS V14.01,2013-06-12 13:49:00,
2013-06-12 08:50:00,72.0,64.4,29.03,NNW,338,0.0,0.0,77,0.00,,,0.00,VWS V14.01,2013-06-12 13:50:00,
2013-06-12 08:51:00,72.0,64.4,29.03,South,180,1.1,1.1,77,0.00,,BKN060,0.00,VWS V14.01,2013-06-12 13:51:00,
2013-06-12 08:52:00,72.0,64.4,29.03,South,180,0.9,1.1,77,0.00,,,0.00,VWS V14.01,2013-06-12 13:52:00,
2013-06-12 08:53:00,71.8,64.2,29.03,SE,135,2.2,2.5,77,0.00,,,0.00,VWS V14.01,2013-06-12 13:53:00,
2013-06-12 08:54:00,71.8,64.2,29.03,SE,135,1.3,2.2,77,0.00,,,0.00,VWS V14.01,2013-06-12 13:54:00,
2013-06-12 08:55:00,71.8,64.2,29.03,SE,135,1.1,2.0,77,0.00,,,0.00,VWS V14.01,2013-06-12 13:55:00,
2013-06-12 08:56:00,72.0,64.4,29.03,East,90,0.0,0.0,77,0.00,,CLR,0.00,VWS V14.01,2013-06-12 13:56:00,
2013-06-12 08:57:00,72.0,64.4,29.03,ESE,112,0.0,0.0,77,0.00,,,0.00,VWS V14.01,2013-06-12 13:57:00,
2013-06-12 08:58:00,72.0,64.4,29.03,SSE,158,0.0,0.0,77,0.00,,,0.00,VWS V14.01,2013-06-12 13:58:00,
2013-06-12 08:59:00,72.0,64.4,29.03,SSE,158,1.3,1.3,77,0.00,,,0.00,VWS V14.01,2013-06-12 13:59:00,
2013-06-12 09:00:00,72.0,64.4,29.03,South,180,1.1,1.3,77,0.00,,,0.00,VWS V14.01,2013-06-12 14:00:00,
2013-06-12 09:01:00,72.0,64.4,29.03,SE,135,2.9,2.9,77,0.00,,CLR,0.00,VWS V14.01,2013-06-12 14:01:00,
2013-06-12 09:02:00,72.0,64.4,29.03,SSE,158,2.7,3.1,77,0.00,,,0.00,VWS V14.01,2013-06-12 14:02:00,
2013-06-12 09:03:00,72.0,64.0,29.03,SSE,158,0.0,2.7,76,0.00,,,0.00,VWS V14.01,2013-06-12 14:03:00,
2013-06-12 09:04:00,72.0,64.0,29.03,SSE,158,0.0,0.0,76,0.00,,,0.00,VWS V14.01,2013-06-12 14:04:00,
2013-06-12 09:05:00,72.0,64.0,29.03,WNW,292,2.5,2.5,76,0.00,,,0.00,VWS V14.01,2013-06-12 14:05:00,
2013-06-12 09:06:00,72.0,64.0,29.03,West,270,0.0,1.3,76,0.00,,CLR,0.00,VWS V14.01,2013-06-12 14:06:00,
2013-06-12 09:07:00,72.0,64.0,29.03,WNW,292,0.0,1.3,76,0.00,,,0.00,VWS V14.01,2013-06-12 14:07:00,
2013-06-12 09:08:00,72.0,64.0,29.03,WNW,292,0.0,0.0,76,0.00,,,0.00,VWS V14.01,2013-06-12 14:08:00,
2013-06-12 09:09:00,71.8,64.2,29.03,WNW,292,0.0,0.0,77,0.00,,,0.00,VWS V14.01,2013-06-12 14:09:00,
2013-06-12 09:10:00,71.8,64.2,29.03,SW,225,0.0,0.0,77,0.00,,,0.00,VWS V14.01,2013-06-12 14:10:00,
2013-06-12 09:11:00,71.8,64.2,29.03,SW,225,0.0,0.0,77,0.00,,CLR,0.00,VWS V14.01,2013-06-12 14:11:00,
2013-06-12 09:12:00,71.8,64.2,29.03,SW,225,0.0,0.0,77,0.00,,,0.00,VWS V14.01,2013-06-12 14:12:00,
2013-06-12 09:13:00,71.8,64.2,29.03,West,270,0.0,0.0,77,0.00,,,0.00,VWS V14.01,2013-06-12 14:13:00,
2013-06-12 09:14:00,71.8,63.8,29.03,West,270,0.0,0.0,76,0.00,,,0.00,VWS V14.01,2013-06-12 14:14:00,
2013-06-12 09:15:00,71.8,63.8,29.03,West,270,0.0,0.0,76,0.00,,,0.00,VWS V14.01,2013-06-12 14:15:00,
2013-06-12 09:16:00,71.8,63.8,29.03,WNW,292,0.0,0.0,76,0.00,,CLR,0.00,VWS V14.01,2013-06-12 14:16:00,
2013-06-12 09:17:00,71.8,63.8,29.03,WNW,292,0.0,0.0,76,0.00,,,0.00,VWS V14.01,2013-06-12 14:17:00,
2013-06-12 09:18:00,71.8,64.2,29.03,NNW,338,0.0,0.0,77,0.00,,,0.00,VWS V14.01,2013-06-12 14:18:00,
2013-06-12 09:19:00,71.8,64.2,29.03,NNW,338,0.0,0.0,77,0.00,,,0.00,VWS V14.01,2013-06-12 14:19:00,
2013-06-12 09:20:00,71.8,64.2,29.03,North,0,2.0,2.0,77,0.00,,,0.00,VWS V14.01,2013-06-12 14:20:00,
2013-06-12 09:21:00,71.6,64.0,29.03,North,0,1.1,1.1,77,0.00,,CLR,0.00,VWS V14.01,2013-06-12 14:21:00,
2013-06-12 09:22:00,71.6,64.0,29.03,NNW,338,0.0,1.1,77,0.00,,,0.00,VWS V14.01,2013-06-12 14:22:00,
2013-06-12 09:23:00,71.6,64.0,29.03,NW,315,0.0,0.0,77,0.00,,,0.00,VWS V14.01,2013-06-12 14:23:00,
2013-06-12 09:24:00,71.6,64.0,29.03,NW,315,0.0,0.0,77,0.00,,,0.00,VWS V14.01,2013-06-12 14:24:00,
2013-06-12 09:25:00,71.6,64.0,29.03,North,0,0.0,0.0,77,0.00,,,0.00,VWS V14.01,2013-06-12 14:25:00,
2013-06-12 09:26:00,71.6,64.0,29.03,North,0,0.0,0.0,77,0.00,,CLR,0.00,VWS V14.01,2013-06-12 14:26:00,
2013-06-12 09:27:00,71.6,64.0,29.03,NE,45,0.0,0.0,77,0.00,,,0.00,VWS V14.01,2013-06-12 14:27:00,
2013-06-12 09:28:00,71.6,64.4,29.03,North,0,0.0,0.9,78,0.00,,,0.00,VWS V14.01,2013-06-12 14:28:00,
2013-06-12 09:29:00,71.6,64.4,29.03,NNE,22,1.1,1.6,78,0.00,,,0.00,VWS V14.01,2013-06-12 14:29:00,
2013-06-12 09:30:00,71.6,64.0,29.03,North,0,0.0,1.1,77,0.00,,,0.00,VWS V14.01,2013-06-12 14:30:00,
2013-06-12 09:31:00,71.8,64.2,29.03,North,0,1.6,1.6,77,0.00,,CLR,0.00,VWS V14.01,2013-06-12 14:31:00,
2013-06-12 09:32:00,71.8,64.2,29.03,North,0,0.0,1.6,77,0.00,,,0.00,VWS V14.01,2013-06-12 14:32:00,
2013-06-12 09:33:00,72.0,64.4,29.03,North,0,0.0,0.0,77,0.00,,,0.00,VWS V14.01,2013-06-12 14:33:00,
2013-06-12 09:34:00,72.0,64.4,29.03,North,0,0.0,0.0,77,0.00,,,0.00,VWS V14.01,2013-06-12 14:34:00,
2013-06-12 09:35:00,72.0,64.4,29.03,North,0,1.1,1.3,77,0.00,,,0.00,VWS V14.01,2013-06-12 14:35:00,
2013-06-12 09:36:00,72.0,64.4,29.03,North,0,1.6,1.6,77,0.00,,CLR,0.00,VWS V14.01,2013-06-12 14:36:00,
2013-06-12 09:37:00,72.0,64.4,29.03,NE,45,1.1,2.0,77,0.00,,,0.00,VWS V14.01,2013-06-12 14:37:00,
2013-06-12 09:38:00,72.0,64.4,29.03,NNE,22,1.6,1.6,77,0.00,,,0.00,VWS V14.01,2013-06-12 14:38:00,
2013-06-12 09:39:00,72.1,64.5,29.03,NNW,338,0.0,1.6,77,0.00,,,0.00,VWS V14.01,2013-06-12 14:39:00,
2013-06-12 09:40:00,72.1,64.2,29.03,NNE,22,0.0,1.6,76,0.00,,,0.00,VWS V14.01,2013-06-12 14:40:00,
2013-06-12 09:41:00,72.1,64.2,29.03,South,180,0.0,0.9,76,0.00,,CLR,0.00,VWS V14.01,2013-06-12 14:41:00,
2013-06-12 09:42:00,72.1,64.2,29.03,NE,45,0.0,0.9,76,0.00,,,0.00,VWS V14.01,2013-06-12 14:42:00,
2013-06-12 09:43:00,72.1,64.2,29.03,NNE,22,1.1,1.1,76,0.00,,,0.00,VWS V14.01,2013-06-12 14:43:00,
2013-06-12 09:44:00,72.1,64.2,29.03,NNE,22,1.3,1.6,76,0.00,,,0.00,VWS V14.01,2013-06-12 14:44:00,
2013-06-12 09:45:00,72.1,64.2,29.03,SW,225,1.1,2.2,76,0.00,,,0.00,VWS V14.01,2013-06-12 14:45:00,
2013-06-12 09:46:00,72.3,64.0,29.03,East,90,1.1,1.1,75,0.00,,CLR,0.00,VWS V14.01,2013-06-12 14:46:00,
2013-06-12 09:47:00,72.3,64.0,29.03,North,0,1.6,1.6,75,0.00,,,0.00,VWS V14.01,2013-06-12 14:47:00,
2013-06-12 09:48:00,72.3,63.6,29.03,NE,45,0.9,2.5,74,0.00,,,0.00,VWS V14.01,2013-06-12 14:48:00,
2013-06-12 09:49:00,72.3,63.6,29.03,SE,135,2.9,2.9,74,0.00,,,0.00,VWS V14.01,2013-06-12 14:49:00,
2013-06-12 09:50:00,72.3,63.6,29.03,SSE,158,2.5,2.9,74,0.00,,,0.00,VWS V14.01,2013-06-12 14:50:00,
2013-06-12 09:51:00,72.3,63.6,29.03,SSE,158,0.9,1.3,74,0.00,,CLR,0.00,VWS V14.01,2013-06-12 14:51:00,
2013-06-12 09:52:00,72.3,63.6,29.03,SSE,158,1.6,1.6,74,0.00,,,0.00,VWS V14.01,2013-06-12 14:52:00,
2013-06-12 09:53:00,72.3,63.6,29.03,East,90,0.0,1.6,74,0.00,,,0.00,VWS V14.01,2013-06-12 14:53:00,
2013-06-12 09:54:00,72.3,63.6,29.03,NE,45,0.0,0.9,74,0.00,,,0.00,VWS V14.01,2013-06-12 14:54:00,
2013-06-12 09:55:00,72.3,63.6,29.03,NE,45,0.0,0.0,74,0.00,,,0.00,VWS V14.01,2013-06-12 14:55:00,
2013-06-12 09:56:00,72.3,63.6,29.03,NE,45,0.0,0.0,74,0.00,,CLR,0.00,VWS V14.01,2013-06-12 14:56:00,
2013-06-12 09:57:00,72.3,63.6,29.03,NNE,22,0.9,0.9,74,0.00,,,0.00,VWS V14.01,2013-06-12 14:57:00,
2013-06-12 09:58:00,72.3,63.6,29.03,NNE,22,0.0,1.3,74,0.00,,,0.00,VWS V14.01,2013-06-12 14:58:00,
2013-06-12 09:59:00,72.3,63.6,29.03,NE,45,1.3,1.6,74,0.00,,,0.00,VWS V14.01,2013-06-12 14:59:00,
2013-06-12 10:00:00,72.5,63.8,29.03,East,90,0.9,2.0,74,0.00,,,0.00,VWS V14.01,2013-06-12 15:00:00,
2013-06-12 10:01:00,72.5,63.8,29.03,SSE,158,0.0,1.1,74,0.00,,CLR,0.00,VWS V14.01,2013-06-12 15:01:00,
2013-06-12 10:02:00,72.7,63.9,29.03,NE,45,0.0,1.1,74,0.00,,,0.00,VWS V14.01,2013-06-12 15:02:00,
2013-06-12 10:03:00,72.7,63.9,29.03,ESE,112,1.6,1.6,74,0.00,,,0.00,VWS V14.01,2013-06-12 15:03:00,
2013-06-12 10:04:00,72.7,63.5,29.03,ESE,112,2.0,3.4,73,0.00,,,0.00,VWS V14.01,2013-06-12 15:04:00,
2013-06-12 10:05:00,72.9,63.7,29.03,ESE,112,1.6,2.7,73,0.00,,,0.00,VWS V14.01,2013-06-12 15:05:00,
2013-06-12 10:06:00,72.9,63.3,29.03,NE,45,3.6,4.3,72,0.00,,CLR,0.00,VWS V14.01,2013-06-12 15:06:00,
2013-06-12 10:07:00,72.9,63.3,29.03,ESE,112,4.3,4.3,72,0.00,,,0.00,VWS V14.01,2013-06-12 15:07:00,
2013-06-12 10:08:00,72.9,62.9,28.97,NE,45,2.0,4.3,71,0.00,,,0.00,VWS V14.01,2013-06-12 15:08:00,
2013-06-12 10:09:00,72.9,62.9,28.97,East,90,2.7,2.9,71,0.00,,,0.00,VWS V14.01,2013-06-12 15:09:00,
2013-06-12 10:10:00,72.9,62.5,28.97,East,90,2.0,2.7,70,0.00,,,0.00,VWS V14.01,2013-06-12 15:10:00,
2013-06-12 10:11:00,72.9,62.9,28.97,East,90,3.4,3.4,71,0.00,,CLR,0.00,VWS V14.01,2013-06-12 15:11:00,
2013-06-12 10:12:00,72.9,62.9,28.97,WNW,292,1.3,3.4,71,0.00,,,0.00,VWS V14.01,2013-06-12 15:12:00,
2013-06-12 10:13:00,72.9,62.5,28.97,ESE,112,4.3,4.3,70,0.00,,,0.00,VWS V14.01,2013-06-12 15:13:00,
2013-06-12 10:14:00,72.9,62.5,28.97,SSW,202,4.0,4.3,70,0.00,,,0.00,VWS V14.01,2013-06-12 15:14:00,
2013-06-12 10:15:00,72.9,62.5,28.97,SSE,158,2.9,4.0,70,0.00,,,0.00,VWS V14.01,2013-06-12 15:15:00,
2013-06-12 10:16:00,72.9,62.9,28.97,East,90,1.1,1.1,71,0.00,,CLR,0.00,VWS V14.01,2013-06-12 15:16:00,
2013-06-12 10:17:00,72.9,62.9,28.97,ESE,112,3.1,3.1,71,0.00,,,0.00,VWS V14.01,2013-06-12 15:17:00,
2013-06-12 10:18:00,72.9,62.9,28.97,SSE,158,2.7,3.8,71,0.00,,,0.00,VWS V14.01,2013-06-12 15:18:00,
2013-06-12 10:19:00,72.9,62.9,28.97,SSE,158,2.0,3.4,71,0.00,,,0.00,VWS V14.01,2013-06-12 15:19:00,
2013-06-12 10:20:00,72.9,62.9,28.97,North,0,2.0,2.9,71,0.00,,,0.00,VWS V14.01,2013-06-12 15:20:00,
2013-06-12 10:21:00,72.9,62.9,28.97,ENE,68,1.6,2.5,71,0.00,,CLR,0.00,VWS V14.01,2013-06-12 15:21:00,
2013-06-12 10:22:00,72.9,62.9,28.97,SSE,158,2.5,2.5,71,0.00,,,0.00,VWS V14.01,2013-06-12 15:22:00,
2013-06-12 10:23:00,72.9,62.5,28.97,SE,135,2.7,2.7,70,0.00,,,0.00,VWS V14.01,2013-06-12 15:23:00,
2013-06-12 10:24:00,72.9,62.5,28.97,SE,135,2.7,2.7,70,0.00,,,0.00,VWS V14.01,2013-06-12 15:24:00,
2013-06-12 10:25:00,73.0,62.7,28.97,NE,45,1.3,3.1,70,0.00,,,0.00,VWS V14.01,2013-06-12 15:25:00,
2013-06-12 10:26:00,73.0,62.7,28.94,ENE,68,2.0,3.6,70,0.00,,CLR,0.00,VWS V14.01,2013-06-12 15:26:00,
2013-06-12 10:27:00,73.0,62.7,28.94,ESE,112,3.4,3.6,70,0.00,,,0.00,VWS V14.01,2013-06-12 15:27:00,
2013-06-12 10:28:00,73.0,62.7,28.94,WNW,292,2.0,3.6,70,0.00,,,0.00,VWS V14.01,2013-06-12 15:28:00,
2013-06-12 10:29:00,73.2,62.9,28.94,SE,135,4.3,4.3,70,0.00,,,0.00,VWS V14.01,2013-06-12 15:29:00,
2013-06-12 10:30:00,73.2,62.9,28.94,North,0,1.3,4.3,70,0.00,,,0.00,VWS V14.01,2013-06-12 15:30:00,
2013-06-12 10:31:00,73.2,62.9,28.94,SSE,158,3.8,4.0,70,0.00,,CLR,0.00,VWS V14.01,2013-06-12 15:31:00,
2013-06-12 10:32:00,73.2,62.9,28.94,NNW,338,2.2,4.0,70,0.00,,,0.00,VWS V14.01,2013-06-12 15:32:00,
2013-06-12 10:33:00,73.2,62.9,28.94,ESE,112,3.1,3.8,70,0.00,,,0.00,VWS V14.01,2013-06-12 15:33:00,
2013-06-12 10:34:00,73.2,62.9,28.94,SSE,158,2.0,3.1,70,0.00,,,0.00,VWS V14.01,2013-06-12 15:34:00,
2013-06-12 10:35:00,73.2,62.9,28.94,NNE,22,1.6,4.3,70,0.00,,,0.00,VWS V14.01,2013-06-12 15:35:00,
2013-06-12 10:36:00,73.2,62.9,28.94,ESE,112,2.9,3.8,70,0.00,,CLR,0.00,VWS V14.01,2013-06-12 15:36:00,
2013-06-12 10:37:00,73.2,62.5,28.94,NE,45,3.1,3.8,69,0.00,,,0.00,VWS V14.01,2013-06-12 15:37:00,
2013-06-12 10:38:00,73.2,62.5,28.94,SSE,158,1.1,3.4,69,0.00,,,0.00,VWS V14.01,2013-06-12 15:38:00,
2013-06-12 10:39:00,73.2,62.5,28.91,North,0,1.3,2.0,69,0.00,,,0.00,VWS V14.01,2013-06-12 15:39:00,
2013-06-12 10:40:00,73.2,62.5,28.91,SE,135,3.1,4.3,69,0.00,,,0.00,VWS V14.01,2013-06-12 15:40:00,
2013-06-12 10:41:00,73.2,62.5,28.91,SE,135,3.6,3.6,69,0.00,,CLR,0.00,VWS V14.01,2013-06-12 15:41:00,
2013-06-12 10:42:00,73.2,62.5,28.91,ESE,112,1.3,3.6,69,0.00,,,0.00,VWS V14.01,2013-06-12 15:42:00,
2013-06-12 10:43:00,73.2,62.5,28.91,ESE,112,1.3,1.3,69,0.00,,,0.00,VWS V14.01,2013-06-12 15:43:00,
2013-06-12 10:44:00,73.2,62.5,28.91,SSE,158,1.1,2.7,69,0.00,,,0.00,VWS V14.01,2013-06-12 15:44:00,
2013-06-12 10:45:00,73.4,62.2,28.91,East,90,2.5,2.7,68,0.00,,,0.00,VWS V14.01,2013-06-12 15:45:00,
2013-06-12 10:46:00,73.4,62.2,28.91,NNE,22,1.1,1.1,68,0.00,,CLR,0.00,VWS V14.01,2013-06-12 15:46:00,
2013-06-12 10:47:00,73.4,62.2,28.91,SE,135,1.3,2.5,68,0.00,,,0.00,VWS V14.01,2013-06-12 15:47:00,
2013-06-12 10:48:00,73.6,62.8,28.91,NNE,22,1.6,2.0,69,0.00,,,0.00,VWS V14.01,2013-06-12 15:48:00,
2013-06-12 10:49:00,73.6,62.8,28.91,SE,135,3.4,3.4,69,0.00,,,0.00,VWS V14.01,2013-06-12 15:49:00,
2013-06-12 10:50:00,73.6,62.8,28.91,SSE,158,2.2,3.4,69,0.00,,,0.00,VWS V14.01,2013-06-12 15:50:00,
2013-06-12 10:51:00,73.4,61.8,28.91,NNW,338,3.8,6.0,67,0.00,,CLR,0.00,VWS V14.01,2013-06-12 15:51:00,
2013-06-12 10:52:00,73.2,61.6,28.91,SSE,158,3.6,6.0,67,0.00,,,0.00,VWS V14.01,2013-06-12 15:52:00,
2013-06-12 10:53:00,73.2,61.6,28.94,SE,135,3.1,3.6,67,0.00,,,0.00,VWS V14.01,2013-06-12 15:53:00,
2013-06-12 10:54:00,73.0,61.4,28.94,ESE,112,2.5,3.4,67,0.00,,,0.00,VWS V14.01,2013-06-12 15:54:00,
2013-06-12 10:55:00,72.9,60.8,28.94,SE,135,2.0,3.4,66,0.00,,,0.00,VWS V14.01,2013-06-12 15:55:00,
2013-06-12 10:56:00,72.9,60.8,28.94,ESE,112,0.0,1.6,66,0.00,,CLR,0.00,VWS V14.01,2013-06-12 15:56:00,
2013-06-12 10:57:00,72.9,61.3,28.94,ESE,112,2.9,3.1,67,0.00,,,0.00,VWS V14.01,2013-06-12 15:57:00,
2013-06-12 10:58:00,72.7,61.1,28.94,North,0,2.0,2.9,67,0.00,,,0.00,VWS V14.01,2013-06-12 15:58:00,
2013-06-12 10:59:00,72.7,61.1,28.94,SSE,158,2.2,2.5,67,0.00,,,0.00,VWS V14.01,2013-06-12 15:59:00,
2013-06-12 11:00:00,72.9,61.3,28.94,SSE,158,2.5,3.4,67,0.00,,,0.00,VWS V14.01,2013-06-12 16:00:00,
2013-06-12 11:01:00,72.9,61.3,28.94,ESE,112,2.5,2.9,67,0.00,,,0.00,VWS V14.01,2013-06-12 16:01:00,
2013-06-12 11:02:00,72.9,61.3,28.94,SW,225,2.5,3.4,67,0.00,,,0.00,VWS V14.01,2013-06-12 16:02:00,
2013-06-12 11:03:00,72.9,61.3,28.94,ESE,112,0.0,2.7,67,0.00,,,0.00,VWS V14.01,2013-06-12 16:03:00,
2013-06-12 11:04:00,72.9,61.3,28.94,ESE,112,1.1,2.2,67,0.00,,,0.00,VWS V14.01,2013-06-12 16:04:00,
2013-06-12 11:05:00,72.9,61.3,28.94,SE,135,1.3,3.1,67,0.00,,,0.00,VWS V14.01,2013-06-12 16:05:00,
2013-06-12 11:06:00,72.9,61.3,28.94,WNW,292,2.0,2.5,67,0.00,,,0.00,VWS V14.01,2013-06-12 16:06:00,
2013-06-12 11:07:00,72.9,61.3,28.94,SE,135,2.7,2.7,67,0.00,,,0.00,VWS V14.01,2013-06-12 16:07:00,
2013-06-12 11:08:00,72.7,61.1,28.94,ESE,112,3.4,3.4,67,0.00,,,0.00,VWS V14.01,2013-06-12 16:08:00,
2013-06-12 11:09:00,72.7,61.1,28.94,NNE,22,0.9,3.4,67,0.00,,,0.00,VWS V14.01,2013-06-12 16:09:00,
2013-06-12 11:11:00,72.7,61.1,28.94,East,90,0.9,2.7,67,0.00,,,0.00,VWS V14.01,2013-06-12 16:11:00,
2013-06-12 11:12:00,72.7,61.1,28.94,ESE,112,0.9,2.7,67,0.00,,,0.00,VWS V14.01,2013-06-12 16:12:00,
2013-06-12 11:13:00,72.7,61.1,28.94,SE,135,2.7,4.7,67,0.00,,,0.00,VWS V14.01,2013-06-12 16:13:00,
2013-06-12 11:14:00,72.9,60.8,28.94,SE,135,2.0,2.9,66,0.00,,,0.00,VWS V14.01,2013-06-12 16:14:00,
2013-06-12 11:15:00,72.9,60.8,28.94,NNE,22,3.6,6.0,66,0.00,,,0.00,VWS V14.01,2013-06-12 16:15:00,
2013-06-12 11:16:00,73.0,61.0,28.94,WNW,292,2.0,2.7,66,0.00,,,0.00,VWS V14.01,2013-06-12 16:16:00,
2013-06-12 11:17:00,73.0,61.0,28.94,SE,135,2.7,2.7,66,0.00,,,0.00,VWS V14.01,2013-06-12 16:17:00,
2013-06-12 11:18:00,73.6,61.5,28.94,SE,135,0.0,2.7,66,0.00,,,0.00,VWS V14.01,2013-06-12 16:18:00,
2013-06-12 11:19:00,73.9,61.9,28.94,ESE,112,2.9,3.8,66,0.00,,,0.00,VWS V14.01,2013-06-12 16:19:00,
2013-06-12 11:20:00,74.1,62.0,28.94,ESE,112,2.0,2.9,66,0.00,,,0.00,VWS V14.01,2013-06-12 16:20:00,
2013-06-12 11:21:00,74.5,62.4,28.94,North,0,3.6,3.6,66,0.00,,,0.00,VWS V14.01,2013-06-12 16:21:00,
2013-06-12 11:22:00,74.8,62.3,28.94,North,0,2.7,3.8,65,0.00,,,0.00,VWS V14.01,2013-06-12 16:22:00,
2013-06-12 11:23:00,75.0,62.9,28.94,NNE,22,6.0,6.0,66,0.00,,,0.00,VWS V14.01,2013-06-12 16:23:00,
2013-06-12 11:24:00,75.0,62.9,28.94,NE,45,4.0,6.0,66,0.00,,,0.00,VWS V14.01,2013-06-12 16:24:00,
2013-06-12 11:25:00,75.4,61.9,28.94,ESE,112,1.6,4.0,63,0.00,,,0.00,VWS V14.01,2013-06-12 16:25:00,
2013-06-12 11:26:00,75.6,62.1,28.94,North,0,1.3,2.7,63,0.00,,,0.00,VWS V14.01,2013-06-12 16:26:00,
2013-06-12 11:27:00,75.6,62.1,28.94,NNE,22,2.7,4.0,63,0.00,,,0.00,VWS V14.01,2013-06-12 16:27:00,
2013-06-12 11:28:00,75.6,61.6,28.94,NNE,22,2.7,2.9,62,0.00,,,0.00,VWS V14.01,2013-06-12 16:28:00,
2013-06-12 11:29:00,75.7,61.8,28.94,SSE,158,4.0,4.0,62,0.00,,,0.00,VWS V14.01,2013-06-12 16:29:00,
2013-06-12 11:30:00,75.6,61.6,28.94,North,0,2.9,6.0,62,0.00,,,0.00,VWS V14.01,2013-06-12 16:30:00,
2013-06-12 11:31:00,75.7,61.3,28.94,SSE,158,3.1,3.1,61,0.00,,,0.00,VWS V14.01,2013-06-12 16:31:00,
2013-06-12 11:32:00,75.7,61.3,28.94,East,90,3.4,3.8,61,0.00,,,0.00,VWS V14.01,2013-06-12 16:32:00,
2013-06-12 11:33:00,75.6,60.7,28.94,East,90,3.6,6.0,60,0.00,,,0.00,VWS V14.01,2013-06-12 16:33:00,
2013-06-12 11:34:00,75.6,60.7,28.94,SE,135,0.0,3.8,60,0.00,,,0.00,VWS V14.01,2013-06-12 16:34:00,
2013-06-12 11:35:00,75.4,60.5,28.94,ENE,68,2.9,2.9,60,0.00,,,0.00,VWS V14.01,2013-06-12 16:35:00,
2013-06-12 11:36:00,75.4,60.5,28.94,WNW,292,4.0,6.0,60,0.00,,,0.00,VWS V14.01,2013-06-12 16:36:00,
2013-06-12 11:37:00,75.2,60.8,28.94,South,180,2.7,6.0,61,0.00,,,0.00,VWS V14.01,2013-06-12 16:37:00,
2013-06-12 11:38:00,75.2,60.4,28.91,ESE,112,3.1,4.0,60,0.00,,,0.00,VWS V14.01,2013-06-12 16:38:00,
2013-06-12 11:39:00,75.0,60.2,28.91,North,0,2.0,3.6,60,0.00,,,0.00,VWS V14.01,2013-06-12 16:39:00,
2013-06-12 11:40:00,74.7,59.4,28.91,NNE,22,3.1,3.6,59,0.00,,,0.00,VWS V14.01,2013-06-12 16:40:00,
2013-06-12 11:41:00,74.3,59.1,28.91,NNE,22,2.9,2.9,59,0.00,,,0.00,VWS V14.01,2013-06-12 16:41:00,
2013-06-12 11:42:00,74.1,58.9,28.91,NNE,22,2.5,3.1,59,0.00,,,0.00,VWS V14.01,2013-06-12 16:42:00,
2013-06-12 11:43:00,74.1,58.9,28.91,NNE,22,2.5,3.1,59,0.00,,,0.00,VWS V14.01,2013-06-12 16:43:00,
2013-06-12 11:44:00,73.9,59.2,28.91,North,0,2.0,3.4,60,0.00,,,0.00,VWS V14.01,2013-06-12 16:44:00,
2013-06-12 11:45:00,73.8,59.0,28.91,NE,45,1.3,3.8,60,0.00,,,0.00,VWS V14.01,2013-06-12 16:45:00,
2013-06-12 11:46:00,73.8,59.5,28.91,ENE,68,2.5,5.8,61,0.00,,,0.00,VWS V14.01,2013-06-12 16:46:00,
2013-06-12 11:47:00,73.8,59.5,28.91,SSE,158,2.0,5.8,61,0.00,,,0.00,VWS V14.01,2013-06-12 16:47:00,
2013-06-12 11:48:00,73.8,59.5,28.91,SSE,158,2.0,2.0,61,0.00,,,0.00,VWS V14.01,2013-06-12 16:48:00,
2013-06-12 11:49:00,73.6,59.3,28.91,NNE,22,1.3,3.6,61,0.00,,,0.00,VWS V14.01,2013-06-12 16:49:00,
2013-06-12 11:50:00,73.6,59.3,28.91,South,180,1.3,2.9,61,0.00,,,0.00,VWS V14.01,2013-06-12 16:50:00,
2013-06-12 11:51:00,73.4,59.2,28.91,NNE,22,0.9,2.2,61,0.00,,,0.00,VWS V14.01,2013-06-12 16:51:00,
2013-06-12 11:52:00,73.4,59.6,28.91,North,0,3.6,6.0,62,0.00,,,0.00,VWS V14.01,2013-06-12 16:52:00,
2013-06-12 11:53:00,73.2,59.0,28.91,NE,45,2.5,3.6,61,0.00,,,0.00,VWS V14.01,2013-06-12 16:53:00,
2013-06-12 11:54:00,73.0,58.8,28.91,SSE,158,0.9,2.5,61,0.00,,,0.00,VWS V14.01,2013-06-12 16:54:00,
2013-06-12 11:55:00,73.0,59.3,28.91,East,90,0.0,0.9,62,0.00,,,0.00,VWS V14.01,2013-06-12 16:55:00,
2013-06-12 11:56:00,73.0,59.3,28.91,East,90,0.0,0.0,62,0.00,,,0.00,VWS V14.01,2013-06-12 16:56:00,
2013-06-12 11:57:00,72.9,59.5,28.91,South,180,2.9,2.9,63,0.00,,,0.00,VWS V14.01,2013-06-12 16:57:00,
2013-06-12 11:58:00,72.9,59.5,28.91,WNW,292,2.0,5.4,63,0.00,,,0.00,VWS V14.01,2013-06-12 16:58:00,
2013-06-12 11:59:00,72.7,58.9,28.91,ESE,112,2.2,4.9,62,0.00,,,0.00,VWS V14.01,2013-06-12 16:59:00,
2013-06-12 12:00:00,72.7,58.9,28.91,North,0,1.3,2.7,62,0.00,,,0.00,VWS V14.01,2013-06-12 17:00:00,
2013-06-12 12:01:00,72.3,58.1,28.91,North,0,5.8,5.8,61,0.00,,,0.00,VWS V14.01,2013-06-12 17:01:00,
2013-06-12 12:02:00,72.3,58.1,28.91,SSE,158,0.0,5.8,61,0.00,,,0.00,VWS V14.01,2013-06-12 17:02:00,
2013-06-12 12:03:00,72.3,58.6,28.91,North,0,3.1,3.1,62,0.00,,,0.00,VWS V14.01,2013-06-12 17:03:00,
2013-06-12 12:04:00,72.1,58.4,28.91,North,0,3.1,3.1,62,0.00,,,0.00,VWS V14.01,2013-06-12 17:04:00,
2013-06-12 12:05:00,72.1,58.4,28.91,North,0,4.3,4.3,62,0.00,,,0.00,VWS V14.01,2013-06-12 17:05:00,
2013-06-12 12:06:00,72.0,58.2,28.91,North,0,2.9,2.9,62,0.00,,,0.00,VWS V14.01,2013-06-12 17:06:00,
2013-06-12 12:07:00,72.0,58.2,28.91,East,90,2.0,4.7,62,0.00,,,0.00,VWS V14.01,2013-06-12 17:07:00,
2013-06-12 12:09:00,72.0,58.2,28.91,SE,135,1.6,3.1,62,0.00,,,0.00,VWS V14.01,2013-06-12 17:09:00,
2013-06-12 12:10:00,72.0,58.7,28.94,SSE,158,0.9,2.5,63,0.00,,,0.00,VWS V14.01,2013-06-12 17:10:00,
2013-06-12 12:11:00,72.0,58.7,28.94,NE,45,2.0,2.7,63,0.00,,,0.00,VWS V14.01,2013-06-12 17:11:00,
2013-06-12 12:12:00,72.0,58.7,28.94,SSE,158,0.0,2.7,63,0.00,,,0.00,VWS V14.01,2013-06-12 17:12:00,
2013-06-12 12:13:00,72.0,58.7,28.94,ESE,112,2.5,2.5,63,0.00,,,0.00,VWS V14.01,2013-06-12 17:13:00,
2013-06-12 12:14:00,72.0,58.7,28.94,ENE,68,2.5,2.5,63,0.00,,,0.00,VWS V14.01,2013-06-12 17:14:00,
2013-06-12 12:15:00,72.0,58.7,28.94,ESE,112,1.6,2.5,63,0.00,,,0.00,VWS V14.01,2013-06-12 17:15:00,
2013-06-12 12:16:00,72.0,59.1,28.94,SE,135,2.9,3.4,64,0.00,,,0.00,VWS V14.01,2013-06-12 17:16:00,
2013-06-12 12:17:00,72.0,59.1,28.94,SE,135,1.6,3.4,64,0.00,,,0.00,VWS V14.01,2013-06-12 17:17:00,
2013-06-12 12:18:00,72.1,59.3,28.94,NNE,22,4.0,4.0,64,0.00,,,0.00,VWS V14.01,2013-06-12 17:18:00,
2013-06-12 12:19:00,72.0,58.7,28.94,North,0,2.7,4.0,63,0.00,,,0.00,VWS V14.01,2013-06-12 17:19:00,
2013-06-12 12:20:00,72.0,58.7,28.94,SSE,158,2.5,2.7,63,0.00,,,0.00,VWS V14.01,2013-06-12 17:20:00,
2013-06-12 12:21:00,72.0,58.7,28.94,ESE,112,0.0,1.3,63,0.00,,,0.00,VWS V14.01,2013-06-12 17:21:00,
2013-06-12 12:22:00,72.0,59.1,28.94,North,0,0.9,1.3,64,0.00,,,0.00,VWS V14.01,2013-06-12 17:22:00,
2013-06-12 12:23:00,72.0,59.1,28.94,North,0,1.6,1.6,64,0.00,,,0.00,VWS V14.01,2013-06-12 17:23:00,
2013-06-12 12:24:00,72.0,59.1,28.94,NE,45,2.2,2.7,64,0.00,,,0.00,VWS V14.01,2013-06-12 17:24:00,
2013-06-12 12:25:00,71.8,59.0,28.94,North,0,2.5,3.1,64,0.00,,,0.00,VWS V14.01,2013-06-12 17:25:00,
2013-06-12 12:26:00,71.8,59.0,28.94,ESE,112,2.2,2.2,64,0.00,,,0.00,VWS V14.01,2013-06-12 17:26:00,
2013-06-12 12:27:00,71.8,59.0,28.94,NE,45,0.0,2.2,64,0.00,,,0.00,VWS V14.01,2013-06-12 17:27:00,
2013-06-12 12:28:00,71.6,58.3,28.94,East,90,2.5,2.7,63,0.00,,,0.00,VWS V14.01,2013-06-12 17:28:00,
2013-06-12 12:29:00,71.6,58.3,28.94,NE,45,1.6,2.5,63,0.00,,,0.00,VWS V14.01,2013-06-12 17:29:00,
2013-06-12 12:30:00,71.6,58.8,28.94,NNE,22,0.0,1.6,64,0.00,,,0.00,VWS V14.01,2013-06-12 17:30:00,
2013-06-12 12:31:00,71.6,58.8,28.94,NNE,22,1.3,1.3,64,0.00,,,0.00,VWS V14.01,2013-06-12 17:31:00,
2013-06-12 12:32:00,71.6,58.8,28.94,WNW,292,1.6,2.0,64,0.00,,,0.00,VWS V14.01,2013-06-12 17:32:00,
2013-06-12 12:33:00,71.6,58.8,28.94,NNE,22,0.9,1.6,64,0.00,,,0.00,VWS V14.01,2013-06-12 17:33:00,
2013-06-12 12:34:00,71.6,58.8,28.94,NNE,22,1.1,1.1,64,0.00,,,0.00,VWS V14.01,2013-06-12 17:34:00,
2013-06-12 12:35:00,71.6,58.8,28.94,SSE,158,2.7,2.7,64,0.00,,,0.00,VWS V14.01,2013-06-12 17:35:00,
2013-06-12 12:36:00,71.6,58.8,28.94,SSE,158,1.1,2.7,64,0.00,,,0.00,VWS V14.01,2013-06-12 17:36:00,
2013-06-12 12:37:00,71.6,58.8,28.94,ENE,68,0.9,1.1,64,0.00,,,0.00,VWS V14.01,2013-06-12 17:37:00,
2013-06-12 12:38:00,71.6,58.8,28.94,North,0,0.9,2.5,64,0.00,,,0.00,VWS V14.01,2013-06-12 17:38:00,
2013-06-12 12:39:00,71.6,58.8,28.94,NE,45,0.0,3.1,64,0.00,,,0.00,VWS V14.01,2013-06-12 17:39:00,
2013-06-12 12:40:00,71.8,59.0,28.94,SE,135,0.0,2.5,64,0.00,,,0.00,VWS V14.01,2013-06-12 17:40:00,
2013-06-12 12:41:00,72.0,59.1,28.94,SE,135,2.2,2.2,64,0.00,,,0.00,VWS V14.01,2013-06-12 17:41:00,
2013-06-12 12:42:00,72.0,59.6,28.94,SE,135,2.0,3.1,65,0.00,,,0.00,VWS V14.01,2013-06-12 17:42:00,
2013-06-12 12:43:00,72.1,59.7,28.94,ESE,112,2.0,2.7,65,0.00,,,0.00,VWS V14.01,2013-06-12 17:43:00,
2013-06-12 12:44:00,72.1,59.7,28.94,ESE,112,2.5,2.7,65,0.00,,,0.00,VWS V14.01,2013-06-12 17:44:00,
2013-06-12 12:45:00,72.5,60.1,28.94,ENE,68,0.0,2.5,65,0.00,,,0.00,VWS V14.01,2013-06-12 17:45:00,
2013-06-12 12:46:00,72.9,60.4,28.94,NNW,338,3.4,3.4,65,0.00,,,0.00,VWS V14.01,2013-06-12 17:46:00,
2013-06-12 12:47:00,72.9,60.4,28.94,North,0,0.9,3.4,65,0.00,,,0.00,VWS V14.01,2013-06-12 17:47:00,
2013-06-12 12:48:00,73.2,60.3,28.94,North,0,0.0,0.9,64,0.00,,,0.00,VWS V14.01,2013-06-12 17:48:00,
2013-06-12 12:50:00,73.4,60.5,28.94,NNE,22,1.6,2.5,64,0.00,,,0.00,VWS V14.01,2013-06-12 17:50:00,
2013-06-12 12:51:00,73.8,60.4,28.94,ESE,112,0.9,0.9,63,0.00,,,0.00,VWS V14.01,2013-06-12 17:51:00,
2013-06-12 12:52:00,73.9,61.0,28.94,North,0,0.0,1.3,64,0.00,,,0.00,VWS V14.01,2013-06-12 17:52:00,
2013-06-12 12:53:00,74.1,61.2,28.97,North,0,0.9,1.3,64,0.00,,,0.00,VWS V14.01,2013-06-12 17:53:00,
2013-06-12 12:54:00,74.1,61.2,28.97,North,0,5.4,5.4,64,0.00,,,0.00,VWS V14.01,2013-06-12 17:54:00,
2013-06-12 12:55:00,73.9,59.7,28.97,North,0,1.6,5.4,61,0.00,,,0.00,VWS V14.01,2013-06-12 17:55:00,
2013-06-12 12:56:00,73.8,59.5,28.97,NNW,338,0.0,0.0,61,0.00,,,0.00,VWS V14.01,2013-06-12 17:56:00,
2013-06-12 12:57:00,73.8,59.5,28.97,North,0,2.9,2.9,61,0.00,,,0.00,VWS V14.01,2013-06-12 17:57:00,
2013-06-12 12:58:00,73.8,59.5,28.97,NNE,22,1.3,2.9,61,0.00,,,0.00,VWS V14.01,2013-06-12 17:58:00,
2013-06-12 12:59:00,73.8,59.5,28.97,NNE,22,0.9,1.3,61,0.00,,,0.00,VWS V14.01,2013-06-12 17:59:00,
2013-06-12 13:00:00,73.9,60.1,28.97,NNE,22,1.3,1.3,62,0.00,,,0.00,VWS V14.01,2013-06-12 18:00:00,
2013-06-12 13:01:00,74.3,60.5,28.97,North,0,1.6,1.6,62,0.00,,,0.00,VWS V14.01,2013-06-12 18:01:00,
2013-06-12 13:02:00,74.5,60.6,28.97,North,0,0.0,1.6,62,0.00,,,0.00,VWS V14.01,2013-06-12 18:02:00,
2013-06-12 13:03:00,74.5,60.6,28.97,NNW,338,0.9,0.9,62,0.00,,,0.00,VWS V14.01,2013-06-12 18:03:00,
2013-06-12 13:04:00,75.0,61.6,28.97,North,0,1.3,1.3,63,0.00,,,0.00,VWS V14.01,2013-06-12 18:04:00,
2013-06-12 13:05:00,75.2,61.8,28.97,North,0,1.1,1.3,63,0.00,,,0.00,VWS V14.01,2013-06-12 18:05:00,
2013-06-12 13:06:00,75.4,61.9,28.97,ENE,68,0.0,0.0,63,0.00,,,0.00,VWS V14.01,2013-06-12 18:06:00,
2013-06-12 13:07:00,75.4,61.0,28.97,NE,45,1.1,1.6,61,0.00,,,0.00,VWS V14.01,2013-06-12 18:07:00,
2013-06-12 13:08:00,75.6,61.2,29.00,North,0,0.0,1.1,61,0.00,,,0.00,VWS V14.01,2013-06-12 18:08:00,
2013-06-12 13:09:00,75.7,61.3,29.00,East,90,0.0,0.9,61,0.00,,,0.00,VWS V14.01,2013-06-12 18:09:00,
2013-06-12 13:10:00,75.7,61.3,29.00,North,0,1.3,1.3,61,0.00,,,0.00,VWS V14.01,2013-06-12 18:10:00,
2013-06-12 13:11:00,75.9,61.5,29.00,NNE,22,0.0,0.0,61,0.00,,,0.00,VWS V14.01,2013-06-12 18:11:00,
2013-06-12 13:12:00,75.9,61.5,29.00,NNW,338,1.1,2.2,61,0.00,,,0.00,VWS V14.01,2013-06-12 18:12:00,
2013-06-12 13:13:00,76.1,61.7,29.00,North,0,0.9,1.3,61,0.00,,,0.00,VWS V14.01,2013-06-12 18:13:00,
2013-06-12 13:14:00,76.1,61.7,29.00,South,180,2.5,2.5,61,0.00,,,0.00,VWS V14.01,2013-06-12 18:14:00,
2013-06-12 13:15:00,76.1,61.7,29.00,North,0,0.9,2.9,61,0.00,,,0.00,VWS V14.01,2013-06-12 18:15:00,
2013-06-12 13:16:00,76.3,61.9,29.00,NNE,22,2.7,2.7,61,0.00,,,0.00,VWS V14.01,2013-06-12 18:16:00,
2013-06-12 13:17:00,76.5,62.0,29.00,NE,45,1.3,2.9,61,0.00,,,0.00,VWS V14.01,2013-06-12 18:17:00,
2013-06-12 13:18:00,76.5,61.6,29.00,North,0,3.4,3.4,60,0.00,,,0.00,VWS V14.01,2013-06-12 18:18:00,
2013-06-12 13:19:00,76.5,60.6,29.00,South,180,1.6,3.8,58,0.00,,,0.00,VWS V14.01,2013-06-12 18:19:00,
2013-06-12 13:20:00,76.5,61.1,29.00,North,0,2.5,2.5,59,0.00,,,0.00,VWS V14.01,2013-06-12 18:20:00,
2013-06-12 13:21:00,76.3,60.4,29.00,NNE,22,3.1,3.1,58,0.00,,,0.00,VWS V14.01,2013-06-12 18:21:00,
2013-06-12 13:22:00,76.3,60.4,29.00,North,0,1.3,3.1,58,0.00,,,0.00,VWS V14.01,2013-06-12 18:22:00,
2013-06-12 13:23:00,76.1,60.3,29.00,North,0,0.0,1.6,58,0.00,,,0.00,VWS V14.01,2013-06-12 18:23:00,
2013-06-12 13:24:00,76.3,60.4,29.00,North,0,1.3,1.6,58,0.00,,,0.00,VWS V14.01,2013-06-12 18:24:00,
2013-06-12 13:25:00,76.1,60.8,29.00,NNW,338,2.5,2.9,59,0.00,,,0.00,VWS V14.01,2013-06-12 18:25:00,
2013-06-12 13:26:00,76.1,60.8,29.00,North,0,0.0,0.0,59,0.00,,,0.00,VWS V14.01,2013-06-12 18:26:00,
2013-06-12 13:27:00,76.1,60.8,29.00,NNE,22,0.0,0.0,59,0.00,,,0.00,VWS V14.01,2013-06-12 18:27:00,
2013-06-12 13:28:00,76.1,60.8,29.00,NNE,22,0.0,0.0,59,0.00,,,0.00,VWS V14.01,2013-06-12 18:28:00,
2013-06-12 13:29:00,76.1,60.8,29.00,North,0,2.0,2.7,59,0.00,,,0.00,VWS V14.01,2013-06-12 18:29:00,
2013-06-12 13:30:00,76.1,61.2,29.00,North,0,0.0,2.0,60,0.00,,,0.00,VWS V14.01,2013-06-12 18:30:00,
2013-06-12 13:31:00,76.1,61.2,29.00,NNW,338,1.6,1.6,60,0.00,,,0.00,VWS V14.01,2013-06-12 18:31:00,
2013-06-12 13:32:00,76.1,61.2,29.00,North,0,1.3,1.6,60,0.00,,,0.00,VWS V14.01,2013-06-12 18:32:00,
2013-06-12 13:33:00,76.1,61.2,29.00,NNW,338,0.0,1.6,60,0.00,,,0.00,VWS V14.01,2013-06-12 18:33:00,
2013-06-12 13:34:00,76.3,61.4,29.00,NNW,338,0.0,0.0,60,0.00,,,0.00,VWS V14.01,2013-06-12 18:34:00,
2013-06-12 13:35:00,76.1,61.2,29.00,North,0,0.0,1.1,60,0.00,,,0.00,VWS V14.01,2013-06-12 18:35:00,
2013-06-12 13:36:00,76.1,61.2,29.00,NNW,338,0.9,2.0,60,0.00,,,0.00,VWS V14.01,2013-06-12 18:36:00,
2013-06-12 13:37:00,76.1,61.2,29.00,North,0,2.5,2.5,60,0.00,,,0.00,VWS V14.01,2013-06-12 18:37:00,
2013-06-12 13:38:00,76.1,61.7,28.97,North,0,0.9,2.5,61,0.00,,,0.00,VWS V14.01,2013-06-12 18:38:00,
2013-06-12 13:39:00,76.3,61.9,28.97,North,0,2.0,2.0,61,0.00,,,0.00,VWS V14.01,2013-06-12 18:39:00,
2013-06-12 13:40:00,76.3,61.9,28.97,North,0,0.0,2.0,61,0.00,,,0.00,VWS V14.01,2013-06-12 18:40:00,
2013-06-12 13:41:00,76.8,62.8,28.97,NW,315,0.0,0.0,62,0.00,,,0.00,VWS V14.01,2013-06-12 18:41:00,
2013-06-12 13:42:00,77.0,62.5,28.97,NW,315,2.0,2.5,61,0.00,,,0.00,VWS V14.01,2013-06-12 18:42:00,
2013-06-12 13:43:00,77.0,62.1,28.97,North,0,0.0,2.0,60,0.00,,,0.00,VWS V14.01,2013-06-12 18:43:00,
2013-06-12 13:44:00,77.2,62.7,28.97,ESE,112,2.2,2.2,61,0.00,,,0.00,VWS V14.01,2013-06-12 18:44:00,
2013-06-12 13:45:00,77.2,62.2,28.97,ENE,68,1.3,2.2,60,0.00,,,0.00,VWS V14.01,2013-06-12 18:45:00,
2013-06-12 13:46:00,77.4,61.9,28.97,SE,135,0.0,3.1,59,0.00,,,0.00,VWS V14.01,2013-06-12 18:46:00,
2013-06-12 13:47:00,77.4,61.4,28.97,NE,45,2.5,3.1,58,0.00,,,0.00,VWS V14.01,2013-06-12 18:47:00,
2013-06-12 13:48:00,77.4,61.4,28.97,SE,135,2.7,2.9,58,0.00,,,0.00,VWS V14.01,2013-06-12 18:48:00,
2013-06-12 13:49:00,77.5,61.6,28.97,SE,135,1.6,2.7,58,0.00,,,0.00,VWS V14.01,2013-06-12 18:49:00,
2013-06-12 13:50:00,77.5,61.1,28.97,ESE,112,0.9,2.2,57,0.00,,,0.00,VWS V14.01,2013-06-12 18:50:00,
2013-06-12 13:51:00,77.7,61.3,28.97,NNE,22,2.0,2.0,57,0.00,,,0.00,VWS V14.01,2013-06-12 18:51:00,
2013-06-12 13:52:00,77.7,61.3,28.97,North,0,2.9,2.9,57,0.00,,,0.00,VWS V14.01,2013-06-12 18:52:00,
2013-06-12 13:53:00,77.7,60.8,28.97,NNE,22,2.5,3.8,56,0.00,,,0.00,VWS V14.01,2013-06-12 18:53:00,
2013-06-12 13:54:00,77.7,60.3,28.97,South,180,2.9,3.1,55,0.00,,,0.00,VWS V14.01,2013-06-12 18:54:00,
2013-06-12 13:55:00,77.7,60.3,28.97,SSE,158,1.6,2.9,55,0.00,,,0.00,VWS V14.01,2013-06-12 18:55:00,
2013-06-12 13:56:00,77.9,61.0,28.97,North,0,1.1,1.1,56,0.00,,,0.00,VWS V14.01,2013-06-12 18:56:00,
2013-06-12 13:57:00,77.9,61.0,28.97,East,90,1.1,1.6,56,0.00,,,0.00,VWS V14.01,2013-06-12 18:57:00,
2013-06-12 13:58:00,78.1,61.1,28.97,NNE,22,1.1,1.6,56,0.00,,,0.00,VWS V14.01,2013-06-12 18:58:00,
2013-06-12 13:59:00,78.1,61.1,28.97,North,0,2.7,2.7,56,0.00,,,0.00,VWS V14.01,2013-06-12 18:59:00,
2013-06-12 14:00:00,78.1,60.6,28.97,East,90,2.0,3.6,55,0.00,,,0.00,VWS V14.01,2013-06-12 19:00:00,
2013-06-12 14:01:00,78.3,61.3,28.97,NNE,22,0.0,0.0,56,0.00,,,0.00,VWS V14.01,2013-06-12 19:01:00,
2013-06-12 14:02:00,78.3,61.3,28.97,North,0,1.6,2.2,56,0.00,,,0.00,VWS V14.01,2013-06-12 19:02:00,
2013-06-12 14:03:00,78.3,60.8,28.97,North,0,1.3,1.6,55,0.00,,,0.00,VWS V14.01,2013-06-12 19:03:00,
2013-06-12 14:04:00,78.3,60.8,28.97,NNE,22,1.1,1.3,55,0.00,,,0.00,VWS V14.01,2013-06-12 19:04:00,
2013-06-12 14:05:00,78.4,61.0,28.97,ESE,112,1.1,2.5,55,0.00,,,0.00,VWS V14.01,2013-06-12 19:05:00,
2013-06-12 14:06:00,78.4,61.0,28.97,NE,45,2.9,2.9,55,0.00,,,0.00,VWS V14.01,2013-06-12 19:06:00,
2013-06-12 14:07:00,78.4,60.4,28.97,NNE,22,0.9,2.9,54,0.00,,,0.00,VWS V14.01,2013-06-12 19:07:00,
2013-06-12 14:08:00,78.4,60.4,28.97,North,0,2.5,3.6,54,0.00,,,0.00,VWS V14.01,2013-06-12 19:08:00,
2013-06-12 14:09:00,78.4,60.4,28.97,North,0,2.5,2.5,54,0.00,,,0.00,VWS V14.01,2013-06-12 19:09:00,
2013-06-12 14:10:00,78.6,60.6,28.97,SE,135,0.9,2.5,54,0.00,,,0.00,VWS V14.01,2013-06-12 19:10:00,
2013-06-12 14:11:00,78.6,61.1,28.97,ESE,112,0.0,0.9,55,0.00,,,0.00,VWS V14.01,2013-06-12 19:11:00,
2013-06-12 14:12:00,78.6,61.1,28.97,ENE,68,0.0,0.0,55,0.00,,,0.00,VWS V14.01,2013-06-12 19:12:00,
2013-06-12 14:13:00,78.8,61.3,28.97,NE,45,0.0,0.0,55,0.00,,,0.00,VWS V14.01,2013-06-12 19:13:00,
2013-06-12 14:14:00,78.8,61.3,28.97,North,0,2.2,3.1,55,0.00,,,0.00,VWS V14.01,2013-06-12 19:14:00,
2013-06-12 14:15:00,78.8,61.3,28.97,North,0,1.1,2.2,55,0.00,,,0.00,VWS V14.01,2013-06-12 19:15:00,
2013-06-12 14:16:00,78.8,60.8,28.97,North,0,3.4,3.4,54,0.00,,,0.00,VWS V14.01,2013-06-12 19:16:00,
2013-06-12 14:17:00,78.8,60.8,28.97,North,0,4.0,4.0,54,0.00,,,0.00,VWS V14.01,2013-06-12 19:17:00,
2013-06-12 14:18:00,78.8,60.2,28.97,North,0,1.6,4.3,53,0.00,,,0.00,VWS V14.01,2013-06-12 19:18:00,
2013-06-12 14:19:00,78.8,60.8,28.97,SSE,158,2.5,2.5,54,0.00,,,0.00,VWS V14.01,2013-06-12 19:19:00,
2013-06-12 14:20:00,78.6,61.1,28.97,ESE,112,0.0,2.5,55,0.00,,,0.00,VWS V14.01,2013-06-12 19:20:00,
2013-06-12 14:21:00,78.6,61.6,28.97,SE,135,1.1,2.0,56,0.00,,,0.00,VWS V14.01,2013-06-12 19:21:00,
2013-06-12 14:22:00,78.6,61.1,28.97,SE,135,2.0,2.5,55,0.00,,,0.00,VWS V14.01,2013-06-12 19:22:00,
2013-06-12 14:23:00,78.4,61.0,28.97,NNE,22,1.6,3.1,55,0.00,,,0.00,VWS V14.01,2013-06-12 19:23:00,
2013-06-12 14:24:00,78.4,61.0,28.97,NNE,22,0.0,1.6,55,0.00,,,0.00,VWS V14.01,2013-06-12 19:24:00,
2013-06-12 14:25:00,78.3,60.8,28.97,SE,135,3.4,3.4,55,0.00,,,0.00,VWS V14.01,2013-06-12 19:25:00,
2013-06-12 14:26:00,78.3,61.3,28.97,ENE,68,2.7,3.4,56,0.00,,,0.00,VWS V14.01,2013-06-12 19:26:00,
2013-06-12 14:27:00,78.3,61.3,28.97,NE,45,1.3,3.4,56,0.00,,,0.00,VWS V14.01,2013-06-12 19:27:00,
2013-06-12 14:28:00,78.1,60.6,28.97,ESE,112,2.2,2.2,55,0.00,,,0.00,VWS V14.01,2013-06-12 19:28:00,
2013-06-12 14:29:00,78.1,60.6,28.97,ENE,68,0.9,2.2,55,0.00,,,0.00,VWS V14.01,2013-06-12 19:29:00,
2013-06-12 14:30:00,78.1,60.6,28.97,East,90,0.9,2.7,55,0.00,,,0.00,VWS V14.01,2013-06-12 19:30:00,
2013-06-12 14:31:00,78.1,60.6,28.97,ESE,112,2.0,2.0,55,0.00,,,0.00,VWS V14.01,2013-06-12 19:31:00,
2013-06-12 14:32:00,77.9,60.5,28.97,NNW,338,2.0,3.6,55,0.00,,,0.00,VWS V14.01,2013-06-12 19:32:00,
2013-06-12 14:33:00,77.9,60.5,28.97,NNE,22,2.7,2.7,55,0.00,,,0.00,VWS V14.01,2013-06-12 19:33:00,
2013-06-12 14:34:00,77.9,60.5,28.97,NNE,22,2.5,2.7,55,0.00,,,0.00,VWS V14.01,2013-06-12 19:34:00,
2013-06-12 14:35:00,77.7,60.3,28.97,NNE,22,1.3,2.5,55,0.00,,,0.00,VWS V14.01,2013-06-12 19:35:00,
2013-06-12 14:36:00,77.7,60.8,28.97,NNE,22,0.0,2.2,56,0.00,,,0.00,VWS V14.01,2013-06-12 19:36:00,
2013-06-12 14:37:00,77.7,60.8,28.97,North,0,0.0,2.2,56,0.00,,,0.00,VWS V14.01,2013-06-12 19:37:00,
2013-06-12 14:38:00,77.7,60.8,28.97,SE,135,0.9,3.4,56,0.00,,,0.00,VWS V14.01,2013-06-12 19:38:00,
2013-06-12 14:39:00,77.7,60.8,28.97,NNE,22,0.0,2.7,56,0.00,,,0.00,VWS V14.01,2013-06-12 19:39:00,
2013-06-12 14:40:00,77.7,60.8,28.97,North,0,1.6,2.9,56,0.00,,,0.00,VWS V14.01,2013-06-12 19:40:00,
2013-06-12 14:41:00,77.5,60.6,28.97,North,0,0.0,0.0,56,0.00,,,0.00,VWS V14.01,2013-06-12 19:41:00,
2013-06-12 14:42:00,77.7,61.3,28.97,NE,45,0.0,0.0,57,0.00,,,0.00,VWS V14.01,2013-06-12 19:42:00,
2013-06-12 14:43:00,77.7,61.3,28.97,South,180,2.0,2.0,57,0.00,,,0.00,VWS V14.01,2013-06-12 19:43:00,
2013-06-12 14:44:00,77.5,61.1,28.97,North,0,2.5,4.3,57,0.00,,,0.00,VWS V14.01,2013-06-12 19:44:00,
2013-06-12 14:45:00,77.7,61.3,28.97,SE,135,3.1,3.1,57,0.00,,,0.00,VWS V14.01,2013-06-12 19:45:00,
2013-06-12 14:46:00,77.7,61.3,28.97,East,90,2.2,2.2,57,0.00,,,0.00,VWS V14.01,2013-06-12 19:46:00,
2013-06-12 14:47:00,77.7,61.3,28.97,NNE,22,1.1,2.2,57,0.00,,,0.00,VWS V14.01,2013-06-12 19:47:00,
2013-06-12 14:48:00,77.7,61.3,28.97,NNE,22,2.5,2.5,57,0.00,,,0.00,VWS V14.01,2013-06-12 19:48:00,
2013-06-12 14:49:00,77.9,61.5,28.97,North,0,1.6,2.5,57,0.00,,,0.00,VWS V14.01,2013-06-12 19:49:00,
2013-06-12 14:50:00,77.7,61.3,28.97,North,0,1.6,3.8,57,0.00,,,0.00,VWS V14.01,2013-06-12 19:50:00,
2013-06-12 14:51:00,77.7,60.8,28.97,North,0,2.7,3.4,56,0.00,,,0.00,VWS V14.01,2013-06-12 19:51:00,
2013-06-12 14:52:00,77.7,60.8,28.97,North,0,3.8,3.8,56,0.00,,,0.00,VWS V14.01,2013-06-12 19:52:00,
2013-06-12 14:53:00,77.5,60.1,28.94,North,0,1.6,4.3,55,0.00,,,0.00,VWS V14.01,2013-06-12 19:53:00,
2013-06-12 14:54:00,77.5,60.1,28.94,NNE,22,2.0,2.9,55,0.00,,,0.00,VWS V14.01,2013-06-12 19:54:00,
2013-06-12 14:55:00,77.4,60.5,28.94,NNE,22,2.2,2.7,56,0.00,,,0.00,VWS V14.01,2013-06-12 19:55:00,
2013-06-12 14:56:00,77.4,60.5,28.94,North,0,2.5,3.4,56,0.00,,CLR,0.00,VWS V14.01,2013-06-12 19:56:00,
2013-06-12 14:57:00,77.4,60.5,28.94,NNE,22,3.6,3.6,56,0.00,,,0.00,VWS V14.01,2013-06-12 19:57:00,
2013-06-12 14:58:00,77.2,60.3,28.94,NE,45,1.6,3.6,56,0.00,,,0.00,VWS V14.01,2013-06-12 19:58:00,
2013-06-12 14:59:00,77.0,60.1,28.94,NNE,22,0.0,3.4,56,0.00,,,0.00,VWS V14.01,2013-06-12 19:59:00,
2013-06-12 15:00:00,77.0,60.1,28.94,SSE,158,1.3,2.2,56,0.00,,,0.00,VWS V14.01,2013-06-12 20:00:00,
2013-06-12 15:01:00,77.0,60.1,28.94,North,0,2.0,2.0,56,0.00,,CLR,0.00,VWS V14.01,2013-06-12 20:01:00,
2013-06-12 15:02:00,76.8,60.0,28.94,SE,135,3.4,3.4,56,0.00,,,0.00,VWS V14.01,2013-06-12 20:02:00,
2013-06-12 15:03:00,76.8,60.0,28.94,SSE,158,1.1,3.4,56,0.00,,,0.00,VWS V14.01,2013-06-12 20:03:00,
2013-06-12 15:04:00,76.8,60.0,28.94,SSE,158,4.3,4.3,56,0.00,,,0.00,VWS V14.01,2013-06-12 20:04:00,
2013-06-12 15:05:00,76.6,59.8,28.94,SE,135,0.9,4.3,56,0.00,,,0.00,VWS V14.01,2013-06-12 20:05:00,
2013-06-12 15:06:00,76.6,59.8,28.94,SE,135,0.0,1.3,56,0.00,,CLR,0.00,VWS V14.01,2013-06-12 20:06:00,
2013-06-12 15:07:00,76.5,59.6,28.94,ESE,112,2.5,2.5,56,0.00,,,0.00,VWS V14.01,2013-06-12 20:07:00,
2013-06-12 15:08:00,76.5,59.6,28.97,SSE,158,1.3,2.5,56,0.00,,,0.00,VWS V14.01,2013-06-12 20:08:00,
2013-06-12 15:09:00,76.3,59.5,28.97,NNE,22,0.9,2.0,56,0.00,,,0.00,VWS V14.01,2013-06-12 20:09:00,
2013-06-12 15:10:00,76.3,59.5,28.97,East,90,2.5,2.5,56,0.00,,,0.00,VWS V14.01,2013-06-12 20:10:00,
2013-06-12 15:11:00,76.3,59.5,28.97,North,0,2.0,2.5,56,0.00,,CLR,0.00,VWS V14.01,2013-06-12 20:11:00,
2013-06-12 15:12:00,76.3,59.5,28.97,North,0,2.0,2.0,56,0.00,,,0.00,VWS V14.01,2013-06-12 20:12:00,
2013-06-12 15:13:00,76.1,59.3,28.97,East,90,0.9,2.2,56,0.00,,,0.00,VWS V14.01,2013-06-12 20:13:00,
2013-06-12 15:14:00,75.9,59.6,28.97,East,90,1.6,2.2,57,0.00,,,0.00,VWS V14.01,2013-06-12 20:14:00,
2013-06-12 15:15:00,75.9,59.6,28.97,North,0,0.0,1.6,57,0.00,,,0.00,VWS V14.01,2013-06-12 20:15:00,
2013-06-12 15:16:00,75.9,59.6,28.97,ESE,112,2.2,3.1,57,0.00,,CLR,0.00,VWS V14.01,2013-06-12 20:16:00,
2013-06-12 15:17:00,75.9,59.6,28.97,ESE,112,0.9,3.1,57,0.00,,,0.00,VWS V14.01,2013-06-12 20:17:00,
2013-06-12 15:18:00,75.9,59.6,28.97,SSE,158,0.0,0.9,57,0.00,,,0.00,VWS V14.01,2013-06-12 20:18:00,
2013-06-12 15:19:00,75.9,59.6,28.97,ESE,112,3.4,3.4,57,0.00,,,0.00,VWS V14.01,2013-06-12 20:19:00,
2013-06-12 15:20:00,75.7,59.4,28.97,ESE,112,2.0,3.4,57,0.00,,,0.00,VWS V14.01,2013-06-12 20:20:00,
2013-06-12 15:21:00,75.6,59.8,28.97,SE,135,2.5,3.1,58,0.00,,CLR,0.00,VWS V14.01,2013-06-12 20:21:00,
2013-06-12 15:22:00,75.6,59.8,28.97,East,90,1.3,3.1,58,0.00,,,0.00,VWS V14.01,2013-06-12 20:22:00,
2013-06-12 15:23:00,75.4,59.1,28.94,North,0,0.0,2.5,57,0.00,,,0.00,VWS V14.01,2013-06-12 20:23:00,
2013-06-12 15:24:00,75.4,59.6,28.94,NNE,22,2.5,2.5,58,0.00,,,0.00,VWS V14.01,2013-06-12 20:24:00,
2013-06-12 15:25:00,75.4,59.6,28.94,NNW,338,3.1,3.6,58,0.00,,,0.00,VWS V14.01,2013-06-12 20:25:00,
2013-06-12 15:26:00,75.4,59.6,28.94,WSW,248,0.0,3.1,58,0.00,,CLR,0.00,VWS V14.01,2013-06-12 20:26:00,
2013-06-12 15:27:00,75.4,59.6,28.94,WSW,248,0.0,0.0,58,0.00,,,0.00,VWS V14.01,2013-06-12 20:27:00,
2013-06-12 15:28:00,75.4,59.6,28.94,SE,135,2.0,3.1,58,0.00,,,0.00,VWS V14.01,2013-06-12 20:28:00,
2013-06-12 15:29:00,75.4,59.6,28.94,NE,45,1.6,2.9,58,0.00,,,0.00,VWS V14.01,2013-06-12 20:29:00,
2013-06-12 15:30:00,75.4,59.6,28.94,NNE,22,1.6,4.0,58,0.00,,,0.00,VWS V14.01,2013-06-12 20:30:00,
2013-06-12 15:31:00,75.4,59.6,28.94,SE,135,2.9,2.9,58,0.00,,CLR,0.00,VWS V14.01,2013-06-12 20:31:00,
2013-06-12 15:32:00,75.4,59.6,28.94,North,0,1.3,2.9,58,0.00,,,0.00,VWS V14.01,2013-06-12 20:32:00,
2013-06-12 15:33:00,75.4,59.6,28.94,NNE,22,1.1,2.9,58,0.00,,,0.00,VWS V14.01,2013-06-12 20:33:00,
2013-06-12 15:34:00,75.4,59.6,28.94,NE,45,1.3,2.2,58,0.00,,,0.00,VWS V14.01,2013-06-12 20:34:00,
2013-06-12 15:35:00,75.4,59.6,28.94,East,90,3.6,4.0,58,0.00,,,0.00,VWS V14.01,2013-06-12 20:35:00,
2013-06-12 15:36:00,75.2,59.4,28.94,NNE,22,1.6,1.6,58,0.00,,CLR,0.00,VWS V14.01,2013-06-12 20:36:00,
2013-06-12 15:37:00,75.2,59.4,28.94,East,90,1.6,2.5,58,0.00,,,0.00,VWS V14.01,2013-06-12 20:37:00,
2013-06-12 15:38:00,75.2,59.4,28.94,ESE,112,2.0,2.7,58,0.00,,,0.00,VWS V14.01,2013-06-12 20:38:00,
2013-06-12 15:39:00,75.2,59.4,28.94,SE,135,3.1,4.3,58,0.00,,,0.00,VWS V14.01,2013-06-12 20:39:00,
2013-06-12 15:40:00,75.2,59.4,28.94,SSE,158,2.5,4.0,58,0.00,,,0.00,VWS V14.01,2013-06-12 20:40:00,
2013-06-12 15:41:00,75.2,59.9,28.94,East,90,1.3,1.6,59,0.00,,CLR,0.00,VWS V14.01,2013-06-12 20:41:00,
2013-06-12 15:42:00,75.2,59.9,28.94,SE,135,2.5,3.1,59,0.00,,,0.00,VWS V14.01,2013-06-12 20:42:00,
2013-06-12 15:43:00,75.4,60.1,28.94,SE,135,3.1,3.4,59,0.00,,,0.00,VWS V14.01,2013-06-12 20:43:00,
2013-06-12 15:44:00,75.4,60.1,28.94,SSE,158,2.9,3.1,59,0.00,,,0.00,VWS V14.01,2013-06-12 20:44:00,
2013-06-12 15:45:00,75.4,59.6,28.94,North,0,2.5,2.9,58,0.00,,,0.00,VWS V14.01,2013-06-12 20:45:00,
2013-06-12 15:46:00,75.2,59.4,28.94,SE,135,0.9,0.9,58,0.00,,CLR,0.00,VWS V14.01,2013-06-12 20:46:00,
2013-06-12 15:47:00,75.2,59.4,28.94,ESE,112,2.5,2.7,58,0.00,,,0.00,VWS V14.01,2013-06-12 20:47:00,
2013-06-12 15:48:00,75.2,59.4,28.94,East,90,2.2,4.3,58,0.00,,,0.00,VWS V14.01,2013-06-12 20:48:00,
2013-06-12 15:49:00,75.0,59.7,28.94,North,0,1.6,2.2,59,0.00,,,0.00,VWS V14.01,2013-06-12 20:49:00,
2013-06-12 15:50:00,75.0,59.7,28.94,NNE,22,0.9,3.4,59,0.00,,,0.00,VWS V14.01,2013-06-12 20:50:00,
2013-06-12 15:51:00,74.8,59.6,28.94,NE,45,4.0,4.0,59,0.00,,CLR,0.00,VWS V14.01,2013-06-12 20:51:00,
2013-06-12 15:52:00,74.8,59.1,28.94,NNE,22,0.9,4.0,58,0.00,,,0.00,VWS V14.01,2013-06-12 20:52:00,
2013-06-12 15:53:00,74.7,58.9,28.94,North,0,1.3,2.0,58,0.00,,,0.00,VWS V14.01,2013-06-12 20:53:00,
2013-06-12 15:54:00,74.7,58.9,28.94,NNE,22,2.0,3.4,58,0.00,,,0.00,VWS V14.01,2013-06-12 20:54:00,
2013-06-12 15:55:00,74.7,58.9,28.94,North,0,0.0,2.9,58,0.00,,,0.00,VWS V14.01,2013-06-12 20:55:00,
2013-06-12 15:56:00,74.5,59.2,28.94,SE,135,3.4,4.0,59,0.00,,CLR,0.00,VWS V14.01,2013-06-12 20:56:00,
2013-06-12 15:57:00,74.5,59.2,28.94,SSE,158,2.5,4.0,59,0.00,,,0.00,VWS V14.01,2013-06-12 20:57:00,
2013-06-12 15:58:00,74.5,59.2,28.94,NNE,22,1.6,3.6,59,0.00,,,0.00,VWS V14.01,2013-06-12 20:58:00,
2013-06-12 15:59:00,74.3,59.1,28.94,NE,45,4.3,4.3,59,0.00,,,0.00,VWS V14.01,2013-06-12 20:59:00,
2013-06-12 16:00:00,74.3,59.1,28.94,North,0,3.8,4.7,59,0.00,,,0.00,VWS V14.01,2013-06-12 21:00:00,
2013-06-12 16:01:00,74.3,59.1,28.94,SE,135,4.3,4.3,59,0.00,,,0.00,VWS V14.01,2013-06-12 21:01:00,
2013-06-12 16:02:00,74.3,58.6,28.94,ESE,112,1.3,4.3,58,0.00,,,0.00,VWS V14.01,2013-06-12 21:02:00,
2013-06-12 16:03:00,74.1,58.4,28.94,NNW,338,0.0,1.3,58,0.00,,,0.00,VWS V14.01,2013-06-12 21:03:00,
2013-06-12 16:04:00,74.1,58.9,28.94,ENE,68,2.7,3.6,59,0.00,,,0.00,VWS V14.01,2013-06-12 21:04:00,
2013-06-12 16:05:00,74.1,58.4,28.94,North,0,1.6,3.1,58,0.00,,,0.00,VWS V14.01,2013-06-12 21:05:00,
2013-06-12 16:06:00,74.1,58.4,28.94,NNE,22,1.1,1.3,58,0.00,,,0.00,VWS V14.01,2013-06-12 21:06:00,
2013-06-12 16:07:00,74.1,58.4,28.94,ESE,112,1.1,1.3,58,0.00,,,0.00,VWS V14.01,2013-06-12 21:07:00,
2013-06-12 16:08:00,74.1,58.4,28.91,NE,45,2.7,2.7,58,0.00,,,0.00,VWS V14.01,2013-06-12 21:08:00,
2013-06-12 16:09:00,74.1,58.9,28.91,NNE,22,2.2,2.7,59,0.00,,,0.00,VWS V14.01,2013-06-12 21:09:00,
2013-06-12 16:10:00,74.3,59.1,28.91,East,90,3.6,3.6,59,0.00,,,0.00,VWS V14.01,2013-06-12 21:10:00,
2013-06-12 16:11:00,74.3,59.1,28.91,SSE,158,1.6,1.6,59,0.00,,,0.00,VWS V14.01,2013-06-12 21:11:00,
2013-06-12 16:12:00,74.3,59.1,28.91,East,90,0.0,1.6,59,0.00,,,0.00,VWS V14.01,2013-06-12 21:12:00,
2013-06-12 16:13:00,74.5,59.2,28.91,SE,135,4.3,4.3,59,0.00,,,0.00,VWS V14.01,2013-06-12 21:13:00,
2013-06-12 16:14:00,74.3,59.5,28.91,North,0,0.0,4.3,60,0.00,,,0.00,VWS V14.01,2013-06-12 21:14:00,
2013-06-12 16:15:00,74.3,59.5,28.91,SE,135,3.4,3.4,60,0.00,,,0.00,VWS V14.01,2013-06-12 21:15:00,
2013-06-12 16:16:00,74.3,59.1,28.91,East,90,2.7,2.9,59,0.00,,,0.00,VWS V14.01,2013-06-12 21:16:00,
2013-06-12 16:17:00,74.1,58.9,28.91,East,90,2.5,2.9,59,0.00,,,0.00,VWS V14.01,2013-06-12 21:17:00,
2013-06-12 16:18:00,74.1,58.9,28.91,SSE,158,2.0,2.5,59,0.00,,,0.00,VWS V14.01,2013-06-12 21:18:00,
2013-06-12 16:19:00,74.1,59.4,28.91,SSE,158,2.5,2.5,60,0.00,,,0.00,VWS V14.01,2013-06-12 21:19:00,
2013-06-12 16:20:00,73.9,59.2,28.91,NE,45,0.9,2.9,60,0.00,,,0.00,VWS V14.01,2013-06-12 21:20:00,
2013-06-12 16:21:00,73.8,59.0,28.91,North,0,1.3,2.2,60,0.00,,,0.00,VWS V14.01,2013-06-12 21:21:00,
2013-06-12 16:22:00,73.6,58.8,28.91,ESE,112,1.6,2.9,60,0.00,,,0.00,VWS V14.01,2013-06-12 21:22:00,
2013-06-12 16:23:00,73.4,58.7,28.91,ESE,112,2.5,3.8,60,0.00,,,0.00,VWS V14.01,2013-06-12 21:23:00,
2013-06-12 16:24:00,73.4,58.2,28.91,East,90,4.7,4.7,59,0.00,,,0.00,VWS V14.01,2013-06-12 21:24:00,
2013-06-12 16:25:00,73.2,58.0,28.91,SE,135,4.3,5.6,59,0.00,,,0.00,VWS V14.01,2013-06-12 21:25:00,
2013-06-12 16:26:00,73.0,57.9,28.91,ESE,112,2.5,2.5,59,0.00,,,0.00,VWS V14.01,2013-06-12 21:26:00,
2013-06-12 16:27:00,73.0,57.9,28.91,SSE,158,5.4,5.4,59,0.00,,,0.00,VWS V14.01,2013-06-12 21:27:00,
2013-06-12 16:28:00,72.9,57.7,28.91,SE,135,3.4,5.4,59,0.00,,,0.00,VWS V14.01,2013-06-12 21:28:00,
2013-06-12 16:29:00,72.7,57.5,28.91,ESE,112,4.3,4.9,59,0.00,,,0.00,VWS V14.01,2013-06-12 21:29:00,
2013-06-12 16:30:00,72.7,57.5,28.91,NNE,22,2.2,4.3,59,0.00,,,0.00,VWS V14.01,2013-06-12 21:30:00,
2013-06-12 16:31:00,72.7,57.5,28.91,SW,225,0.0,1.1,59,0.00,,,0.00,VWS V14.01,2013-06-12 21:31:00,
2013-06-12 16:32:00,72.7,57.5,28.91,SW,225,0.0,1.1,59,0.00,,,0.00,VWS V14.01,2013-06-12 21:32:00,
2013-06-12 16:33:00,72.7,57.5,28.91,East,90,3.4,3.4,59,0.00,,,0.00,VWS V14.01,2013-06-12 21:33:00,
2013-06-12 16:34:00,72.1,58.0,28.91,East,90,3.4,3.4,61,0.00,,,0.00,VWS V14.01,2013-06-12 21:34:00,
2013-06-12 16:35:00,72.1,58.0,28.91,SE,135,2.2,3.4,61,0.00,,,0.00,VWS V14.01,2013-06-12 21:35:00,
2013-06-12 16:36:00,72.0,57.8,28.91,SE,135,2.2,3.1,61,0.00,,,0.00,VWS V14.01,2013-06-12 21:36:00,
2013-06-12 16:37:00,72.0,57.8,28.91,SE,135,6.9,6.9,61,0.00,,,0.00,VWS V14.01,2013-06-12 21:37:00,
2013-06-12 16:38:00,71.8,57.6,28.88,ESE,112,4.0,6.9,61,0.00,,,0.00,VWS V14.01,2013-06-12 21:38:00,
2013-06-12 16:39:00,71.8,57.6,28.88,NE,45,1.6,4.0,61,0.00,,,0.00,VWS V14.01,2013-06-12 21:39:00,
2013-06-12 16:40:00,71.6,57.5,28.88,NE,45,0.0,2.5,61,0.00,,,0.00,VWS V14.01,2013-06-12 21:40:00,
2013-06-12 16:41:00,71.4,57.7,28.88,SE,135,6.0,6.0,62,0.00,,,0.00,VWS V14.01,2013-06-12 21:41:00,
2013-06-12 16:42:00,71.4,57.7,28.88,North,0,2.9,6.0,62,0.00,,,0.00,VWS V14.01,2013-06-12 21:42:00,
2013-06-12 16:43:00,71.2,57.6,28.88,North,0,2.5,2.9,62,0.00,,,0.00,VWS V14.01,2013-06-12 21:43:00,
2013-06-12 16:44:00,71.2,57.6,28.88,SE,135,1.1,2.5,62,0.00,,,0.00,VWS V14.01,2013-06-12 21:44:00,
2013-06-12 16:45:00,71.2,57.6,28.88,ESE,112,3.8,3.8,62,0.00,,,0.00,VWS V14.01,2013-06-12 21:45:00,
2013-06-12 16:46:00,71.1,57.4,28.88,ESE,112,1.1,1.6,62,0.00,,,0.00,VWS V14.01,2013-06-12 21:46:00,
2013-06-12 16:47:00,70.9,57.2,28.88,NE,45,3.6,3.6,62,0.00,,,0.00,VWS V14.01,2013-06-12 21:47:00,
2013-06-12 16:48:00,70.9,57.7,28.88,South,180,2.9,3.6,63,0.00,,,0.00,VWS V14.01,2013-06-12 21:48:00,
2013-06-12 16:49:00,70.7,57.5,28.88,East,90,1.6,3.6,63,0.00,,,0.00,VWS V14.01,2013-06-12 21:49:00,
2013-06-12 16:50:00,70.7,57.5,28.88,ESE,112,2.0,4.3,63,0.00,,,0.00,VWS V14.01,2013-06-12 21:50:00,
2013-06-12 16:51:00,70.5,57.3,28.88,NE,45,2.0,2.0,63,0.00,,,0.00,VWS V14.01,2013-06-12 21:51:00,
2013-06-12 16:52:00,70.3,57.2,28.88,North,0,3.1,3.1,63,0.00,,,0.00,VWS V14.01,2013-06-12 21:52:00,
2013-06-12 16:53:00,70.3,57.2,28.85,North,0,1.3,4.0,63,0.00,,,0.00,VWS V14.01,2013-06-12 21:53:00,
2013-06-12 16:54:00,70.2,57.0,28.85,East,90,1.1,1.3,63,0.00,,,0.00,VWS V14.01,2013-06-12 21:54:00,
2013-06-12 16:55:00,70.2,57.0,28.85,North,0,3.8,4.7,63,0.00,,,0.00,VWS V14.01,2013-06-12 21:55:00,
2013-06-12 16:56:00,70.2,57.4,28.85,NNE,22,1.3,3.8,64,0.00,,,0.00,VWS V14.01,2013-06-12 21:56:00,
2013-06-12 16:57:00,70.2,57.4,28.85,North,0,1.1,2.2,64,0.00,,,0.00,VWS V14.01,2013-06-12 21:57:00,
2013-06-12 16:58:00,70.2,57.4,28.85,NNE,22,0.0,1.1,64,0.00,,,0.00,VWS V14.01,2013-06-12 21:58:00,
2013-06-12 16:59:00,69.8,57.1,28.85,North,0,0.0,1.1,64,0.00,,,0.00,VWS V14.01,2013-06-12 21:59:00,
2013-06-12 17:00:00,69.6,57.3,28.85,SE,135,1.6,1.6,65,0.00,,,0.00,VWS V14.01,2013-06-12 22:00:00,
2013-06-12 17:01:00,69.6,57.3,28.85,SE,135,1.6,1.6,65,0.00,,,0.00,VWS V14.01,2013-06-12 22:01:00,
2013-06-12 17:02:00,69.6,57.3,28.85,East,90,2.2,3.6,65,0.00,,,0.00,VWS V14.01,2013-06-12 22:02:00,
2013-06-12 17:03:00,69.6,57.3,28.85,SSE,158,3.6,3.6,65,0.00,,,0.00,VWS V14.01,2013-06-12 22:03:00,
2013-06-12 17:04:00,69.4,57.6,28.85,NNE,22,2.0,3.6,66,0.00,,,0.00,VWS V14.01,2013-06-12 22:04:00,
2013-06-12 17:05:00,69.4,57.6,28.85,SE,135,1.3,2.9,66,0.00,,,0.00,VWS V14.01,2013-06-12 22:05:00,
2013-06-12 17:06:00,69.3,57.4,28.85,NE,45,0.0,1.3,66,0.00,,,0.00,VWS V14.01,2013-06-12 22:06:00,
2013-06-12 17:07:00,69.3,57.4,28.85,ESE,112,1.3,2.5,66,0.00,,,0.00,VWS V14.01,2013-06-12 22:07:00,
2013-06-12 17:08:00,69.1,57.3,28.85,SE,135,3.4,3.4,66,0.00,,,0.00,VWS V14.01,2013-06-12 22:08:00,
2013-06-12 17:09:00,69.1,57.7,28.88,East,90,1.3,3.4,67,0.00,,,0.00,VWS V14.01,2013-06-12 22:09:00,
2013-06-12 17:10:00,69.1,57.7,28.88,North,0,1.6,3.1,67,0.00,,,0.00,VWS V14.01,2013-06-12 22:10:00,
2013-06-12 17:11:00,69.1,57.7,28.88,North,0,1.6,1.6,67,0.00,,,0.00,VWS V14.01,2013-06-12 22:11:00,
2013-06-12 17:12:00,68.9,57.5,28.88,North,0,1.1,2.0,67,0.00,,,0.00,VWS V14.01,2013-06-12 22:12:00,
2013-06-12 17:13:00,68.9,57.5,28.88,NE,45,1.6,2.0,67,0.00,,,0.00,VWS V14.01,2013-06-12 22:13:00,
2013-06-12 17:14:00,68.9,57.5,28.88,NNE,22,0.9,1.6,67,0.00,,,0.00,VWS V14.01,2013-06-12 22:14:00,
2013-06-12 17:15:00,68.7,57.3,28.88,NNE,22,2.5,2.5,67,0.00,,,0.00,VWS V14.01,2013-06-12 22:15:00,
2013-06-12 17:16:00,68.7,57.3,28.88,NE,45,1.1,2.2,67,0.00,,,0.00,VWS V14.01,2013-06-12 22:16:00,
2013-06-12 17:17:00,68.7,57.3,28.88,NNE,22,1.3,2.2,67,0.00,,,0.00,VWS V14.01,2013-06-12 22:17:00,
2013-06-12 17:18:00,68.7,57.7,28.88,SE,135,1.1,1.3,68,0.00,,,0.00,VWS V14.01,2013-06-12 22:18:00,
2013-06-12 17:19:00,68.7,57.7,28.88,SE,135,1.1,1.1,68,0.00,,,0.00,VWS V14.01,2013-06-12 22:19:00,
2013-06-12 17:20:00,68.7,57.7,28.88,ESE,112,2.2,2.2,68,0.00,,,0.00,VWS V14.01,2013-06-12 22:20:00,
2013-06-12 17:21:00,68.5,57.6,28.88,ENE,68,0.0,1.6,68,0.00,,,0.00,VWS V14.01,2013-06-12 22:21:00,
2013-06-12 17:22:00,68.5,57.6,28.88,ESE,112,0.0,2.5,68,0.00,,,0.00,VWS V14.01,2013-06-12 22:22:00,
2013-06-12 17:23:00,68.5,57.6,28.88,ESE,112,0.0,0.0,68,0.00,,,0.00,VWS V14.01,2013-06-12 22:23:00,
2013-06-12 17:24:00,68.5,57.6,28.88,SSW,202,1.6,1.6,68,0.00,,,0.00,VWS V14.01,2013-06-12 22:24:00,
2013-06-12 17:25:00,68.5,57.6,28.88,NNE,22,1.1,3.6,68,0.00,,,0.00,VWS V14.01,2013-06-12 22:25:00,
2013-06-12 17:26:00,68.5,57.6,28.88,East,90,1.6,1.6,68,0.00,,,0.00,VWS V14.01,2013-06-12 22:26:00,
2013-06-12 17:27:00,68.5,57.6,28.88,NE,45,2.0,3.1,68,0.00,,,0.00,VWS V14.01,2013-06-12 22:27:00,
2013-06-12 17:28:00,68.4,57.8,28.88,NNW,338,1.3,2.0,69,0.00,,,0.00,VWS V14.01,2013-06-12 22:28:00,
2013-06-12 17:29:00,68.4,57.8,28.88,SE,135,1.3,1.3,69,0.00,,,0.00,VWS V14.01,2013-06-12 22:29:00,
2013-06-12 17:30:00,68.4,57.8,28.88,North,0,2.7,6.0,69,0.00,,,0.00,VWS V14.01,2013-06-12 22:30:00,
2013-06-12 17:31:00,68.4,57.8,28.88,ESE,112,0.9,0.9,69,0.00,,,0.00,VWS V14.01,2013-06-12 22:31:00,
2013-06-12 17:32:00,68.2,57.6,28.88,ESE,112,3.1,3.1,69,0.00,,,0.00,VWS V14.01,2013-06-12 22:32:00,
2013-06-12 17:33:00,68.2,57.6,28.88,ESE,112,2.9,3.1,69,0.00,,,0.00,VWS V14.01,2013-06-12 22:33:00,
2013-06-12 17:34:00,68.2,57.6,28.88,NNE,22,1.3,3.8,69,0.00,,,0.00,VWS V14.01,2013-06-12 22:34:00,
2013-06-12 17:35:00,68.2,57.6,28.88,NE,45,3.1,3.1,69,0.00,,,0.00,VWS V14.01,2013-06-12 22:35:00,
2013-06-12 17:36:00,68.0,57.5,28.88,NE,45,2.2,3.1,69,0.00,,,0.00,VWS V14.01,2013-06-12 22:36:00,
2013-06-12 17:37:00,68.0,57.5,28.88,SE,135,3.4,3.4,69,0.00,,,0.00,VWS V14.01,2013-06-12 22:37:00,
2013-06-12 17:38:00,68.0,57.5,28.88,ESE,112,2.0,3.4,69,0.00,,,0.00,VWS V14.01,2013-06-12 22:38:00,
2013-06-12 17:39:00,68.0,57.5,28.88,East,90,2.0,2.0,69,0.00,,,0.00,VWS V14.01,2013-06-12 22:39:00,
2013-06-12 17:40:00,68.0,57.5,28.88,SSE,158,2.7,3.4,69,0.00,,,0.00,VWS V14.01,2013-06-12 22:40:00,
2013-06-12 17:41:00,68.0,57.5,28.88,ESE,112,1.6,1.6,69,0.00,,,0.00,VWS V14.01,2013-06-12 22:41:00,
2013-06-12 17:42:00,67.8,57.3,28.88,ESE,112,2.9,2.9,69,0.00,,,0.00,VWS V14.01,2013-06-12 22:42:00,
2013-06-12 17:43:00,67.8,57.3,28.88,ESE,112,2.0,4.0,69,0.00,,,0.00,VWS V14.01,2013-06-12 22:43:00,
2013-06-12 17:44:00,67.8,57.3,28.88,ESE,112,2.9,2.9,69,0.00,,,0.00,VWS V14.01,2013-06-12 22:44:00,
2013-06-12 17:45:00,67.8,57.3,28.88,ESE,112,2.9,2.9,69,0.00,,,0.00,VWS V14.01,2013-06-12 22:45:00,
2013-06-12 17:46:00,67.8,57.3,28.88,East,90,0.0,0.0,69,0.00,,,0.00,VWS V14.01,2013-06-12 22:46:00,
2013-06-12 17:47:00,67.8,57.3,28.88,East,90,0.0,0.0,69,0.00,,,0.00,VWS V14.01,2013-06-12 22:47:00,
2013-06-12 17:48:00,67.8,57.3,28.88,ESE,112,3.1,3.1,69,0.00,,,0.00,VWS V14.01,2013-06-12 22:48:00,
2013-06-12 17:49:00,67.8,57.7,28.88,ESE,112,0.0,3.1,70,0.00,,,0.00,VWS V14.01,2013-06-12 22:49:00,
2013-06-12 17:50:00,67.8,57.7,28.88,ESE,112,2.2,2.2,70,0.00,,,0.00,VWS V14.01,2013-06-12 22:50:00,
2013-06-12 17:51:00,67.8,57.7,28.88,East,90,1.3,2.2,70,0.00,,,0.00,VWS V14.01,2013-06-12 22:51:00,
2013-06-12 17:52:00,67.8,57.7,28.88,East,90,1.3,1.3,70,0.00,,,0.00,VWS V14.01,2013-06-12 22:52:00,
2013-06-12 17:53:00,67.8,57.7,28.85,SE,135,3.4,3.4,70,0.00,,,0.00,VWS V14.01,2013-06-12 22:53:00,
2013-06-12 17:54:00,67.8,57.7,28.85,SE,135,4.3,4.3,70,0.00,,,0.00,VWS V14.01,2013-06-12 22:54:00,
2013-06-12 17:55:00,67.6,57.5,28.85,SSE,158,3.8,4.3,70,0.00,,,0.00,VWS V14.01,2013-06-12 22:55:00,
2013-06-12 17:56:00,67.6,57.5,28.85,ESE,112,1.3,1.3,70,0.00,,,0.00,VWS V14.01,2013-06-12 22:56:00,
2013-06-12 17:57:00,67.6,57.5,28.85,NE,45,2.0,3.6,70,0.00,,,0.00,VWS V14.01,2013-06-12 22:57:00,
2013-06-12 17:58:00,67.6,57.5,28.85,NE,45,2.0,2.0,70,0.00,,,0.00,VWS V14.01,2013-06-12 22:58:00,
2013-06-12 17:59:00,67.6,57.5,28.85,East,90,2.5,3.6,70,0.00,,,0.00,VWS V14.01,2013-06-12 22:59:00,
2013-06-12 18:00:00,67.5,57.3,28.85,ESE,112,1.1,2.5,70,0.00,,,0.00,VWS V14.01,2013-06-12 23:00:00,
2013-06-12 18:01:00,67.5,57.3,28.85,ESE,112,3.1,4.0,70,0.00,,,0.00,VWS V14.01,2013-06-12 23:01:00,
2013-06-12 18:02:00,67.3,57.2,28.85,East,90,2.7,4.7,70,0.00,,,0.00,VWS V14.01,2013-06-12 23:02:00,
2013-06-12 18:03:00,67.3,57.2,28.85,NW,315,0.0,2.7,70,0.00,,,0.00,VWS V14.01,2013-06-12 23:03:00,
2013-06-12 18:04:00,67.3,57.2,28.85,ESE,112,1.6,1.6,70,0.00,,,0.00,VWS V14.01,2013-06-12 23:04:00,
2013-06-12 18:05:00,67.3,57.2,28.85,East,90,1.6,2.2,70,0.00,,,0.00,VWS V14.01,2013-06-12 23:05:00,
2013-06-12 18:06:00,67.1,57.0,28.85,ENE,68,0.0,0.0,70,0.00,,,0.00,VWS V14.01,2013-06-12 23:06:00,
2013-06-12 18:07:00,67.1,57.0,28.85,ESE,112,0.0,0.9,70,0.00,,,0.00,VWS V14.01,2013-06-12 23:07:00,
2013-06-12 18:08:00,67.1,57.0,28.85,SSE,158,1.1,1.1,70,0.00,,,0.00,VWS V14.01,2013-06-12 23:08:00,
2013-06-12 18:09:00,67.1,57.0,28.85,SSE,158,3.4,3.4,70,0.00,,,0.00,VWS V14.01,2013-06-12 23:09:00,
2013-06-12 18:10:00,67.1,57.0,28.85,ENE,68,0.0,3.4,70,0.00,,,0.00,VWS V14.01,2013-06-12 23:10:00,
2013-06-12 18:11:00,67.1,57.0,28.85,ESE,112,1.6,1.6,70,0.00,,,0.00,VWS V14.01,2013-06-12 23:11:00,
2013-06-12 18:12:00,67.1,57.0,28.85,East,90,3.1,3.1,70,0.00,,,0.00,VWS V14.01,2013-06-12 23:12:00,
2013-06-12 18:13:00,67.1,57.4,28.85,ESE,112,6.3,6.3,71,0.00,,,0.00,VWS V14.01,2013-06-12 23:13:00,
2013-06-12 18:14:00,66.9,57.2,28.85,East,90,1.6,6.3,71,0.00,,,0.00,VWS V14.01,2013-06-12 23:14:00,
2013-06-12 18:15:00,66.9,57.2,28.85,ESE,112,3.4,3.4,71,0.00,,,0.00,VWS V14.01,2013-06-12 23:15:00,
2013-06-12 18:16:00,66.9,57.2,28.85,SE,135,2.9,3.4,71,0.00,,,0.00,VWS V14.01,2013-06-12 23:16:00,
2013-06-12 18:17:00,66.9,57.2,28.85,ESE,112,2.9,2.9,71,0.00,,,0.00,VWS V14.01,2013-06-12 23:17:00,
2013-06-12 18:18:00,66.7,57.0,28.85,South,180,2.0,4.0,71,0.00,,,0.00,VWS V14.01,2013-06-12 23:18:00,
2013-06-12 18:19:00,66.7,57.0,28.85,ESE,112,1.3,2.2,71,0.00,,,0.00,VWS V14.01,2013-06-12 23:19:00,
2013-06-12 18:20:00,66.7,57.0,28.85,ENE,68,3.8,3.8,71,0.00,,,0.00,VWS V14.01,2013-06-12 23:20:00,
2013-06-12 18:21:00,66.7,57.0,28.85,SSE,158,0.9,1.3,71,0.00,,,0.00,VWS V14.01,2013-06-12 23:21:00,
2013-06-12 18:22:00,66.6,57.3,28.85,SSW,202,2.0,2.0,72,0.00,,,0.00,VWS V14.01,2013-06-12 23:22:00,
2013-06-12 18:23:00,66.6,56.9,28.82,ESE,112,1.6,3.8,71,0.00,,,0.00,VWS V14.01,2013-06-12 23:23:00,
2013-06-12 18:24:00,66.6,56.9,28.82,ESE,112,2.5,2.5,71,0.00,,,0.00,VWS V14.01,2013-06-12 23:24:00,
2013-06-12 18:25:00,66.4,56.7,28.82,SE,135,2.7,2.9,71,0.00,,,0.00,VWS V14.01,2013-06-12 23:25:00,
2013-06-12 18:26:00,66.4,56.7,28.82,ENE,68,1.3,1.3,71,0.00,,,0.00,VWS V14.01,2013-06-12 23:26:00,
2013-06-12 18:27:00,66.4,56.7,28.82,ESE,112,1.1,2.0,71,0.00,,,0.00,VWS V14.01,2013-06-12 23:27:00,
2013-06-12 18:28:00,66.4,56.7,28.82,SE,135,1.3,2.2,71,0.00,,,0.00,VWS V14.01,2013-06-12 23:28:00,
2013-06-12 18:29:00,66.4,57.1,28.82,ENE,68,0.0,3.1,72,0.00,,,0.00,VWS V14.01,2013-06-12 23:29:00,
2013-06-12 18:30:00,66.4,57.1,28.82,East,90,0.0,1.3,72,0.00,,,0.00,VWS V14.01,2013-06-12 23:30:00,
2013-06-12 18:31:00,66.2,56.9,28.82,South,180,2.5,2.9,72,0.00,,,0.00,VWS V14.01,2013-06-12 23:31:00,
2013-06-12 18:32:00,66.2,56.9,28.82,SSE,158,3.1,3.1,72,0.00,,,0.00,VWS V14.01,2013-06-12 23:32:00,
2013-06-12 18:33:00,66.4,57.1,28.82,East,90,0.0,3.1,72,0.00,,,0.00,VWS V14.01,2013-06-12 23:33:00,
2013-06-12 18:34:00,66.4,57.1,28.82,SSE,158,2.2,2.2,72,0.00,,,0.00,VWS V14.01,2013-06-12 23:34:00,
2013-06-12 18:35:00,66.4,57.8,28.82,South,180,2.0,2.7,74,0.00,,,0.00,VWS V14.01,2013-06-12 23:35:00,
2013-06-12 18:36:00,66.4,57.5,28.82,South,180,1.3,1.3,73,0.00,,,0.00,VWS V14.01,2013-06-12 23:36:00,
2013-06-12 18:37:00,66.4,57.5,28.82,SE,135,2.0,2.7,73,0.00,,,0.00,VWS V14.01,2013-06-12 23:37:00,
2013-06-12 18:38:00,66.4,57.8,28.82,ESE,112,0.9,2.5,74,0.00,,,0.00,VWS V14.01,2013-06-12 23:38:00,
2013-06-12 18:39:00,66.4,57.8,28.82,East,90,1.3,3.1,74,0.00,,,0.00,VWS V14.01,2013-06-12 23:39:00,
2013-06-12 18:40:00,66.2,57.7,28.82,East,90,1.1,3.4,74,0.00,,,0.00,VWS V14.01,2013-06-12 23:40:00,
2013-06-12 18:41:00,66.2,58.0,28.82,SSE,158,1.1,1.1,75,0.00,,,0.00,VWS V14.01,2013-06-12 23:41:00,
2013-06-12 18:42:00,66.2,58.0,28.82,SSE,158,0.9,2.7,75,0.00,,,0.00,VWS V14.01,2013-06-12 23:42:00,
2013-06-12 18:43:00,66.2,58.0,28.82,NNE,22,0.9,2.7,75,0.00,,,0.00,VWS V14.01,2013-06-12 23:43:00,
2013-06-12 18:44:00,66.2,58.0,28.82,North,0,2.9,3.4,75,0.00,,,0.00,VWS V14.01,2013-06-12 23:44:00,
2013-06-12 18:45:00,66.2,58.0,28.82,NE,45,1.6,2.9,75,0.00,,,0.00,VWS V14.01,2013-06-12 23:45:00,
2013-06-12 18:46:00,66.0,58.2,28.82,NE,45,1.3,2.7,76,0.00,,,0.00,VWS V14.01,2013-06-12 23:46:00,
2013-06-12 18:47:00,66.0,58.2,28.82,NNE,22,1.6,2.9,76,0.00,,,0.00,VWS V14.01,2013-06-12 23:47:00,
2013-06-12 18:48:00,66.0,58.2,28.82,SE,135,2.5,2.5,76,0.00,,,0.00,VWS V14.01,2013-06-12 23:48:00,
2013-06-12 18:49:00,66.0,58.2,28.82,ESE,112,2.5,4.0,76,0.00,,,0.00,VWS V14.01,2013-06-12 23:49:00,
2013-06-12 18:50:00,66.0,58.2,28.82,NNW,338,0.9,2.5,76,0.00,,,0.00,VWS V14.01,2013-06-12 23:50:00,
2013-06-12 18:51:00,66.0,57.9,28.82,North,0,0.0,0.0,75,0.00,,,0.00,VWS V14.01,2013-06-12 23:51:00,
2013-06-12 18:52:00,66.0,58.2,28.82,North,0,3.4,3.8,76,0.00,,,0.00,VWS V14.01,2013-06-12 23:52:00,
2013-06-12 18:53:00,66.0,58.2,28.82,NNE,22,2.0,3.4,76,0.00,,,0.00,VWS V14.01,2013-06-12 23:53:00,
2013-06-12 18:54:00,65.8,58.1,28.82,SE,135,1.1,2.7,76,0.00,,,0.00,VWS V14.01,2013-06-12 23:54:00,
2013-06-12 18:55:00,65.8,58.1,28.82,East,90,2.7,2.7,76,0.00,,,0.00,VWS V14.01,2013-06-12 23:55:00,
2013-06-12 18:56:00,65.8,58.1,28.82,ESE,112,3.1,3.1,76,0.00,,,0.00,VWS V14.01,2013-06-12 23:56:00,
2013-06-12 18:57:00,65.8,58.4,28.82,ESE,112,0.0,3.1,77,0.00,,,0.00,VWS V14.01,2013-06-12 23:57:00,
2013-06-12 18:58:00,65.8,58.4,28.82,NE,45,1.6,2.5,77,0.00,,,0.00,VWS V14.01,2013-06-12 23:58:00,
2013-06-12 18:59:00,65.8,58.4,28.82,South,180,2.0,2.0,77,0.00,,,0.00,VWS V14.01,2013-06-12 23:59:00,
2013-06-12 19:00:00,65.8,58.8,28.82,NW,315,2.0,2.0,78,0.00,,,0.00,VWS V14.01,2013-06-13 00:00:00,
2013-06-12 19:01:00,65.8,58.8,28.82,North,0,2.9,4.0,78,0.00,,,0.00,VWS V14.01,2013-06-13 00:01:00,
2013-06-12 19:02:00,65.7,58.6,28.82,NNE,22,2.5,4.0,78,0.00,,,0.00,VWS V14.01,2013-06-13 00:02:00,
2013-06-12 19:03:00,65.7,58.3,28.82,NE,45,1.6,3.6,77,0.00,,,0.00,VWS V14.01,2013-06-13 00:03:00,
2013-06-12 19:04:00,65.7,58.3,28.82,NE,45,1.6,1.6,77,0.00,,,0.00,VWS V14.01,2013-06-13 00:04:00,
2013-06-12 19:05:00,65.5,58.1,28.82,SE,135,2.2,5.4,77,0.00,,,0.00,VWS V14.01,2013-06-13 00:05:00,
2013-06-12 19:06:00,65.5,58.1,28.82,ESE,112,2.5,2.5,77,0.00,,,0.00,VWS V14.01,2013-06-13 00:06:00,
2013-06-12 19:07:00,65.3,57.9,28.82,SSE,158,3.6,5.6,77,0.00,,,0.00,VWS V14.01,2013-06-13 00:07:00,
2013-06-12 19:08:00,65.3,57.9,28.82,SSE,158,3.6,3.6,77,0.00,,,0.00,VWS V14.01,2013-06-13 00:08:00,
2013-06-12 19:09:00,65.3,57.9,28.82,SE,135,4.3,4.3,77,0.00,,,0.00,VWS V14.01,2013-06-13 00:09:00,
2013-06-12 19:10:00,65.3,57.9,28.79,NE,45,2.0,4.3,77,0.00,,,0.00,VWS V14.01,2013-06-13 00:10:00,
2013-06-12 19:11:00,65.1,57.7,28.79,SSW,202,3.6,4.3,77,0.00,,,0.00,VWS V14.01,2013-06-13 00:11:00,
2013-06-12 19:12:00,65.1,57.7,28.79,SE,135,2.2,4.3,77,0.00,,,0.00,VWS V14.01,2013-06-13 00:12:00,
2013-06-12 19:13:00,65.1,57.7,28.79,South,180,1.3,2.5,77,0.00,,CLR,0.00,VWS V14.01,2013-06-13 00:13:00,
2013-06-12 19:14:00,65.1,57.7,28.79,ESE,112,2.5,2.7,77,0.00,,,0.00,VWS V14.01,2013-06-13 00:14:00,
2013-06-12 19:15:00,64.9,57.6,28.79,ENE,68,3.6,3.6,77,0.00,,,0.00,VWS V14.01,2013-06-13 00:15:00,
2013-06-12 19:16:00,64.9,57.6,28.79,East,90,2.5,3.6,77,0.00,,,0.00,VWS V14.01,2013-06-13 00:16:00,
2013-06-12 19:17:00,64.8,57.4,28.79,ESE,112,1.6,2.7,77,0.00,,,0.00,VWS V14.01,2013-06-13 00:17:00,
2013-06-12 19:18:00,64.8,57.8,28.79,North,0,2.2,3.1,78,0.00,,,0.00,VWS V14.01,2013-06-13 00:18:00,
2013-06-12 19:19:00,64.8,57.8,28.79,North,0,2.2,2.2,78,0.00,,,0.00,VWS V14.01,2013-06-13 00:19:00,
2013-06-12 19:20:00,64.6,57.6,28.79,East,90,3.1,3.6,78,0.00,,,0.00,VWS V14.01,2013-06-13 00:20:00,
2013-06-12 19:21:00,64.4,57.8,28.79,North,0,3.6,3.6,79,0.00,,,0.00,VWS V14.01,2013-06-13 00:21:00,
2013-06-12 19:22:00,64.4,57.8,28.79,North,0,3.4,3.6,79,0.00,,,0.00,VWS V14.01,2013-06-13 00:22:00,
2013-06-12 19:23:00,64.2,57.6,28.79,North,0,2.5,3.4,79,0.00,,,0.00,VWS V14.01,2013-06-13 00:23:00,
2013-06-12 19:24:00,64.2,57.6,28.82,NNW,338,2.7,3.8,79,0.00,,,0.00,VWS V14.01,2013-06-13 00:24:00,
2013-06-12 19:25:00,64.2,57.9,28.82,WNW,292,3.8,3.8,80,0.00,,,0.00,VWS V14.01,2013-06-13 00:25:00,
2013-06-12 19:26:00,64.2,57.9,28.82,NW,315,2.7,3.8,80,0.00,,,0.00,VWS V14.01,2013-06-13 00:26:00,
2013-06-12 19:27:00,64.0,58.4,28.82,NNW,338,2.7,3.8,82,0.00,,,0.00,VWS V14.01,2013-06-13 00:27:00,
2013-06-12 19:28:00,64.0,58.4,28.82,NW,315,2.9,3.1,82,0.00,,,0.00,VWS V14.01,2013-06-13 00:28:00,
2013-06-12 19:29:00,63.9,58.3,28.82,NW,315,3.4,3.4,82,0.00,,,0.00,VWS V14.01,2013-06-13 00:29:00,
2013-06-12 19:30:00,63.9,58.6,28.82,WNW,292,2.9,3.8,83,0.00,,,0.00,VWS V14.01,2013-06-13 00:30:00,
2013-06-12 19:31:00,63.7,58.4,28.82,NW,315,2.5,4.0,83,0.00,,,0.00,VWS V14.01,2013-06-13 00:31:00,
2013-06-12 19:32:00,63.9,59.3,28.82,WNW,292,3.1,7.8,85,0.00,,,0.00,VWS V14.01,2013-06-13 00:32:00,
2013-06-12 19:33:00,63.9,59.3,28.82,SW,225,2.7,3.1,85,0.00,,,0.00,VWS V14.01,2013-06-13 00:33:00,
2013-06-12 19:34:00,63.9,59.3,28.82,WNW,292,0.9,2.7,85,0.00,,,0.00,VWS V14.01,2013-06-13 00:34:00,
2013-06-12 19:35:00,63.9,59.3,28.82,SSE,158,2.7,2.7,85,0.04,,,0.04,VWS V14.01,2013-06-13 00:35:00,
2013-06-12 19:36:00,63.9,59.3,28.82,SE,135,2.9,2.9,85,0.04,,,0.04,VWS V14.01,2013-06-13 00:36:00,
2013-06-12 19:37:00,63.9,59.3,28.82,SSE,158,2.7,3.4,85,0.13,,,0.13,VWS V14.01,2013-06-13 00:37:00,
2013-06-12 19:38:00,63.9,59.3,28.85,SSE,158,2.5,2.7,85,0.21,,,0.21,VWS V14.01,2013-06-13 00:38:00,
2013-06-12 19:39:00,63.9,59.3,28.85,NE,45,1.6,2.5,85,0.33,,,0.33,VWS V14.01,2013-06-13 00:39:00,
2013-06-12 19:40:00,63.9,59.3,28.85,NNE,22,2.0,2.0,85,0.33,,,0.33,VWS V14.01,2013-06-13 00:40:00,
2013-06-12 19:41:00,63.9,59.3,28.85,NNW,338,2.5,2.5,85,0.33,,,0.33,VWS V14.01,2013-06-13 00:41:00,
2013-06-12 19:42:00,63.9,59.6,28.85,WNW,292,3.4,4.0,86,0.37,,,0.37,VWS V14.01,2013-06-13 00:42:00,
2013-06-12 19:43:00,63.9,60.2,28.85,WNW,292,4.0,5.4,88,0.37,,,0.37,VWS V14.01,2013-06-13 00:43:00,
2013-06-12 19:44:00,63.7,60.4,28.85,NE,45,2.9,4.0,89,0.41,,,0.41,VWS V14.01,2013-06-13 00:44:00,
2013-06-12 19:45:00,63.7,60.4,28.85,North,0,2.9,2.9,89,0.41,,,0.41,VWS V14.01,2013-06-13 00:45:00,
2013-06-12 19:46:00,63.7,60.7,28.85,NW,315,5.6,5.6,90,0.41,,,0.41,VWS V14.01,2013-06-13 00:46:00,
2013-06-12 19:47:00,63.7,60.7,28.85,WNW,292,6.0,6.0,90,0.46,,,0.46,VWS V14.01,2013-06-13 00:47:00,
2013-06-12 19:48:00,63.5,60.8,28.85,WNW,292,5.4,6.0,91,0.46,,,0.46,VWS V14.01,2013-06-13 00:48:00,
2013-06-12 19:49:00,63.5,60.8,28.85,NNW,338,2.5,5.4,91,0.46,,,0.46,VWS V14.01,2013-06-13 00:49:00,
2013-06-12 19:50:00,63.3,60.7,28.85,NNW,338,3.6,4.3,91,0.46,,,0.46,VWS V14.01,2013-06-13 00:50:00,
2013-06-12 19:51:00,63.3,60.7,28.85,WNW,292,6.0,6.0,91,0.50,,,0.50,VWS V14.01,2013-06-13 00:51:00,
2013-06-12 19:52:00,63.3,60.7,28.85,NNW,338,0.9,6.0,91,0.50,,,0.50,VWS V14.01,2013-06-13 00:52:00,
2013-06-12 19:53:00,63.1,60.5,28.91,South,180,2.0,3.6,91,0.50,,,0.50,VWS V14.01,2013-06-13 00:53:00,
2013-06-12 19:54:00,63.1,60.5,28.91,WNW,292,1.3,2.0,91,0.50,,,0.50,VWS V14.01,2013-06-13 00:54:00,
2013-06-12 19:55:00,63.1,60.5,28.91,NNW,338,2.0,6.3,91,0.50,,,0.50,VWS V14.01,2013-06-13 00:55:00,
2013-06-12 19:56:00,63.1,60.5,28.91,NNE,22,4.0,4.0,91,0.50,,-RA,0.50,VWS V14.01,2013-06-13 00:56:00,
2013-06-12 19:57:00,63.1,60.5,28.91,North,0,1.6,4.0,91,0.50,,,0.50,VWS V14.01,2013-06-13 00:57:00,
2013-06-12 19:58:00,63.1,60.5,28.91,North,0,2.7,6.5,91,0.50,,,0.50,VWS V14.01,2013-06-13 00:58:00,
2013-06-12 19:59:00,63.1,60.8,28.91,North,0,2.2,4.9,92,0.50,,,0.50,VWS V14.01,2013-06-13 00:59:00,
2013-06-12 20:00:00,63.1,60.8,28.91,SE,135,4.0,4.0,92,0.50,,,0.50,VWS V14.01,2013-06-13 01:00:00,
2013-06-12 20:01:00,63.3,61.0,28.91,NNW,338,4.9,4.9,92,0.50,,-RA,0.50,VWS V14.01,2013-06-13 01:01:00,
2013-06-12 20:02:00,63.3,61.0,28.91,ESE,112,3.4,4.9,92,0.54,,,0.54,VWS V14.01,2013-06-13 01:02:00,
2013-06-12 20:03:00,63.3,61.0,28.91,North,0,3.4,3.4,92,0.54,,,0.54,VWS V14.01,2013-06-13 01:03:00,
2013-06-12 20:04:00,63.3,61.3,28.91,North,0,5.6,5.6,93,0.54,,,0.54,VWS V14.01,2013-06-13 01:04:00,
2013-06-12 20:05:00,63.3,61.3,28.91,NNE,22,4.3,5.6,93,0.54,,,0.54,VWS V14.01,2013-06-13 01:05:00,
2013-06-12 20:06:00,63.5,61.4,28.91,North,0,2.2,4.7,93,0.54,,,0.54,VWS V14.01,2013-06-13 01:06:00,
2013-06-12 20:07:00,63.3,61.3,28.91,West,270,3.4,4.0,93,0.54,,,0.54,VWS V14.01,2013-06-13 01:07:00,
2013-06-12 20:08:00,63.5,61.4,28.85,NE,45,4.3,4.3,93,0.54,,,0.54,VWS V14.01,2013-06-13 01:08:00,
2013-06-12 20:09:00,63.5,61.4,28.85,NNE,22,2.9,4.3,93,0.54,,,0.54,VWS V14.01,2013-06-13 01:09:00,
2013-06-12 20:10:00,63.5,61.4,28.85,ENE,68,2.9,4.7,93,0.54,,,0.54,VWS V14.01,2013-06-13 01:10:00,
2013-06-12 20:11:00,63.5,61.4,28.85,NNE,22,2.5,2.5,93,0.54,,,0.54,VWS V14.01,2013-06-13 01:11:00,
2013-06-12 20:12:00,63.5,61.4,28.85,NNE,22,2.5,2.5,93,0.54,,,0.54,VWS V14.01,2013-06-13 01:12:00,
2013-06-12 20:13:00,63.5,61.8,28.85,ESE,112,0.0,2.9,94,0.54,,,0.54,VWS V14.01,2013-06-13 01:13:00,
2013-06-12 20:14:00,63.5,61.8,28.85,ESE,112,0.0,0.0,94,0.54,,,0.54,VWS V14.01,2013-06-13 01:14:00,
2013-06-12 20:15:00,63.5,61.8,28.85,North,0,4.9,4.9,94,0.54,,,0.54,VWS V14.01,2013-06-13 01:15:00,
2013-06-12 20:16:00,63.5,61.8,28.85,SSE,158,1.6,1.6,94,0.54,,,0.54,VWS V14.01,2013-06-13 01:16:00,
2013-06-12 20:17:00,63.5,61.8,28.85,NNE,22,1.3,1.6,94,0.54,,,0.54,VWS V14.01,2013-06-13 01:17:00,
2013-06-12 20:18:00,63.5,61.8,28.85,East,90,2.7,2.7,94,0.54,,,0.54,VWS V14.01,2013-06-13 01:18:00,
2013-06-12 20:19:00,63.7,61.9,28.85,ESE,112,2.5,4.0,94,0.54,,,0.54,VWS V14.01,2013-06-13 01:19:00,
2013-06-12 20:20:00,63.7,61.9,28.85,NE,45,2.0,4.9,94,0.54,,,0.54,VWS V14.01,2013-06-13 01:20:00,
2013-06-12 20:21:00,63.7,61.9,28.85,NNE,22,0.0,0.0,94,0.54,,,0.54,VWS V14.01,2013-06-13 01:21:00,
2013-06-12 20:22:00,63.7,61.6,28.85,NNE,22,0.0,1.6,93,0.54,,,0.54,VWS V14.01,2013-06-13 01:22:00,
2013-06-12 20:23:00,63.7,61.9,28.85,SE,135,1.3,3.1,94,0.54,,,0.54,VWS V14.01,2013-06-13 01:23:00,
2013-06-12 20:24:00,63.7,61.9,28.85,NE,45,2.9,3.6,94,0.54,,,0.54,VWS V14.01,2013-06-13 01:24:00,
2013-06-12 20:25:00,63.7,61.9,28.85,East,90,3.6,3.6,94,0.54,,,0.54,VWS V14.01,2013-06-13 01:25:00,
2013-06-12 20:26:00,63.7,61.6,28.85,NE,45,1.3,1.3,93,0.54,,-RA,0.54,VWS V14.01,2013-06-13 01:26:00,
2013-06-12 20:27:00,63.7,61.6,28.85,ESE,112,3.4,3.4,93,0.54,,,0.54,VWS V14.01,2013-06-13 01:27:00,
2013-06-12 20:28:00,63.7,61.6,28.85,North,0,2.0,3.8,93,0.54,,,0.54,VWS V14.01,2013-06-13 01:28:00,
2013-06-12 20:29:00,63.7,61.6,28.85,North,0,1.3,2.5,93,0.54,,,0.54,VWS V14.01,2013-06-13 01:29:00,
2013-06-12 20:30:00,63.7,61.6,28.85,North,0,1.3,1.3,93,0.54,,,0.54,VWS V14.01,2013-06-13 01:30:00,
2013-06-12 20:31:00,63.7,61.6,28.85,ENE,68,1.1,3.1,93,0.54,,-RA,0.54,VWS V14.01,2013-06-13 01:31:00,
2013-06-12 20:32:00,63.7,61.6,28.85,ESE,112,2.5,2.5,93,0.54,,,0.54,VWS V14.01,2013-06-13 01:32:00,
2013-06-12 20:33:00,63.7,61.6,28.85,NE,45,2.5,4.9,93,0.54,,,0.54,VWS V14.01,2013-06-13 01:33:00,
2013-06-12 20:34:00,63.7,61.6,28.85,South,180,1.1,2.5,93,0.54,,,0.54,VWS V14.01,2013-06-13 01:34:00,
2013-06-12 20:35:00,63.7,61.6,28.85,SE,135,1.1,1.6,93,0.54,,,0.54,VWS V14.01,2013-06-13 01:35:00,
2013-06-12 20:36:00,63.7,61.6,28.85,NNW,338,1.1,2.0,93,0.50,,-RA,0.54,VWS V14.01,2013-06-13 01:36:00,
2013-06-12 20:38:00,63.7,61.6,28.82,North,0,2.5,3.1,93,0.50,,,0.54,VWS V14.01,2013-06-13 01:38:00,
2013-06-12 20:39:00,63.7,61.6,28.82,North,0,2.7,3.1,93,0.33,,,0.54,VWS V14.01,2013-06-13 01:39:00,
2013-06-12 20:40:00,63.7,61.6,28.82,NNE,22,3.4,3.4,93,0.21,,,0.54,VWS V14.01,2013-06-13 01:40:00,
2013-06-12 20:41:00,63.7,61.9,28.82,North,0,0.9,0.9,94,0.21,,-RA,0.54,VWS V14.01,2013-06-13 01:41:00,
2013-06-12 20:42:00,63.7,61.9,28.82,SE,135,2.5,2.5,94,0.21,,,0.54,VWS V14.01,2013-06-13 01:42:00,
2013-06-12 20:43:00,63.7,61.9,28.82,NNE,22,0.0,3.1,94,0.17,,,0.54,VWS V14.01,2013-06-13 01:43:00,
2013-06-12 20:44:00,63.9,62.1,28.82,NNE,22,2.2,3.8,94,0.17,,,0.54,VWS V14.01,2013-06-13 01:44:00,
2013-06-12 20:45:00,63.9,62.1,28.82,North,0,2.7,2.7,94,0.13,,,0.54,VWS V14.01,2013-06-13 01:45:00,
2013-06-12 20:46:00,63.9,61.8,28.82,NNE,22,2.9,2.9,93,0.13,,-RA,0.54,VWS V14.01,2013-06-13 01:46:00,
2013-06-12 20:47:00,63.9,61.8,28.82,NNE,22,2.0,2.9,93,0.13,,,0.54,VWS V14.01,2013-06-13 01:47:00,
2013-06-12 20:48:00,63.9,62.1,28.82,North,0,6.7,6.7,94,0.08,,,0.54,VWS V14.01,2013-06-13 01:48:00,
2013-06-12 20:49:00,63.9,62.1,28.82,North,0,0.9,6.7,94,0.08,,,0.54,VWS V14.01,2013-06-13 01:49:00,
2013-06-12 20:50:00,63.9,62.1,28.82,East,90,2.0,3.8,94,0.08,,,0.54,VWS V14.01,2013-06-13 01:50:00,
2013-06-12 20:51:00,63.9,62.1,28.82,North,0,3.8,3.8,94,0.08,,-RA,0.54,VWS V14.01,2013-06-13 01:51:00,
2013-06-12 20:52:00,63.9,62.1,28.82,North,0,1.3,3.8,94,0.04,,,0.54,VWS V14.01,2013-06-13 01:52:00,
2013-06-12 20:53:00,63.9,62.1,28.82,SSE,158,2.7,2.7,94,0.04,,,0.54,VWS V14.01,2013-06-13 01:53:00,
2013-06-12 20:54:00,63.9,62.1,28.82,NNE,22,1.3,2.7,94,0.04,,,0.54,VWS V14.01,2013-06-13 01:54:00,
2013-06-12 20:55:00,63.9,62.1,28.82,NNE,22,0.9,1.3,94,0.04,,,0.54,VWS V14.01,2013-06-13 01:55:00,
2013-06-12 20:56:00,63.9,62.1,28.82,North,0,3.4,3.4,94,0.04,,FEW026,0.54,VWS V14.01,2013-06-13 01:56:00,
2013-06-12 20:57:00,63.9,62.1,28.82,NNW,338,2.0,3.8,94,0.04,,,0.54,VWS V14.01,2013-06-13 01:57:00,
2013-06-12 20:58:00,63.9,62.1,28.82,North,0,4.9,6.0,94,0.04,,,0.54,VWS V14.01,2013-06-13 01:58:00,
2013-06-12 20:59:00,63.9,62.1,28.82,NW,315,1.1,4.9,94,0.04,,,0.54,VWS V14.01,2013-06-13 01:59:00,
2013-06-12 21:00:00,63.9,62.1,28.82,North,0,2.2,2.2,94,0.04,,,0.54,VWS V14.01,2013-06-13 02:00:00,
2013-06-12 21:01:00,63.9,62.1,28.82,SSE,158,0.0,0.0,94,0.04,,FEW026,0.54,VWS V14.01,2013-06-13 02:01:00,
2013-06-12 21:02:00,63.9,62.1,28.82,SSE,158,0.0,0.0,94,0.04,,,0.54,VWS V14.01,2013-06-13 02:02:00,
2013-06-12 21:03:00,63.9,62.1,28.82,SSE,158,0.0,1.1,94,0.00,,,0.54,VWS V14.01,2013-06-13 02:03:00,
2013-06-12 21:04:00,63.9,61.8,28.82,NE,45,0.0,0.0,93,0.00,,,0.54,VWS V14.01,2013-06-13 02:04:00,
2013-06-12 21:05:00,63.9,61.8,28.82,NE,45,2.0,4.0,93,0.00,,,0.54,VWS V14.01,2013-06-13 02:05:00,
2013-06-12 21:06:00,63.9,61.8,28.82,North,0,0.0,2.0,93,0.00,,SCT006,0.54,VWS V14.01,2013-06-13 02:06:00,
2013-06-12 21:07:00,63.9,61.8,28.82,NE,45,0.0,0.0,93,0.00,,,0.54,VWS V14.01,2013-06-13 02:07:00,
2013-06-12 21:08:00,63.9,61.8,28.82,East,90,1.1,1.1,93,0.00,,,0.54,VWS V14.01,2013-06-13 02:08:00,
2013-06-12 21:09:00,63.9,61.8,28.85,ESE,112,2.5,2.7,93,0.00,,,0.54,VWS V14.01,2013-06-13 02:09:00,
2013-06-12 21:10:00,63.9,61.8,28.85,NNE,22,2.9,2.9,93,0.00,,,0.54,VWS V14.01,2013-06-13 02:10:00,
2013-06-12 21:11:00,63.9,61.8,28.85,North,0,0.0,2.9,93,0.00,,SCT006,0.54,VWS V14.01,2013-06-13 02:11:00,
2013-06-12 21:12:00,63.9,61.8,28.85,North,0,1.6,2.9,93,0.00,,,0.54,VWS V14.01,2013-06-13 02:12:00,
2013-06-12 21:13:00,63.9,61.8,28.85,North,0,2.9,3.1,93,0.00,,,0.54,VWS V14.01,2013-06-13 02:13:00,
2013-06-12 21:14:00,63.9,61.8,28.85,North,0,2.9,3.1,93,0.00,,,0.54,VWS V14.01,2013-06-13 02:14:00,
2013-06-12 21:15:00,63.9,61.8,28.85,North,0,2.2,2.9,93,0.00,,,0.54,VWS V14.01,2013-06-13 02:15:00,
2013-06-12 21:16:00,63.9,61.8,28.85,North,0,1.3,2.5,93,0.00,,BKN006,0.54,VWS V14.01,2013-06-13 02:16:00,
2013-06-12 21:17:00,63.9,61.8,28.85,North,0,2.7,2.7,93,0.00,,,0.54,VWS V14.01,2013-06-13 02:17:00,
2013-06-12 21:18:00,63.9,61.8,28.85,North,0,3.8,3.8,93,0.00,,,0.54,VWS V14.01,2013-06-13 02:18:00,
2013-06-12 21:19:00,63.9,61.8,28.85,NNE,22,2.5,3.8,93,0.00,,,0.54,VWS V14.01,2013-06-13 02:19:00,
2013-06-12 21:20:00,63.9,61.8,28.85,NE,45,0.0,2.5,93,0.00,,,0.54,VWS V14.01,2013-06-13 02:20:00,
2013-06-12 21:21:00,63.9,61.8,28.85,North,0,3.6,3.6,93,0.00,,BKN006,0.54,VWS V14.01,2013-06-13 02:21:00,
2013-06-12 21:22:00,63.9,61.8,28.85,North,0,2.5,3.6,93,0.00,,,0.54,VWS V14.01,2013-06-13 02:22:00,
2013-06-12 21:24:00,63.9,61.8,28.85,North,0,1.3,2.5,93,0.00,,,0.54,VWS V14.01,2013-06-13 02:24:00,
2013-06-12 21:25:00,63.9,61.8,28.85,North,0,1.3,1.3,93,0.00,,,0.54,VWS V14.01,2013-06-13 02:25:00,
2013-06-12 21:26:00,63.9,61.8,28.85,North,0,0.0,1.6,93,0.00,,BKN006,0.54,VWS V14.01,2013-06-13 02:26:00,
2013-06-12 21:27:00,63.9,61.8,28.85,NNE,22,0.9,2.0,93,0.00,,,0.54,VWS V14.01,2013-06-13 02:27:00,
2013-06-12 21:28:00,63.9,61.8,28.85,North,0,1.3,1.6,93,0.00,,,0.54,VWS V14.01,2013-06-13 02:28:00,
2013-06-12 21:29:00,63.9,61.8,28.85,North,0,1.6,2.0,93,0.00,,,0.54,VWS V14.01,2013-06-13 02:29:00,
2013-06-12 21:30:00,63.9,61.8,28.85,NNE,22,0.0,1.6,93,0.00,,,0.54,VWS V14.01,2013-06-13 02:30:00,
2013-06-12 21:31:00,63.9,61.8,28.85,NE,45,0.0,0.0,93,0.00,,BKN006,0.54,VWS V14.01,2013-06-13 02:31:00,
2013-06-12 21:32:00,63.9,61.8,28.85,NE,45,1.1,1.6,93,0.00,,,0.54,VWS V14.01,2013-06-13 02:32:00,
2013-06-12 21:33:00,63.9,61.8,28.85,East,90,0.0,1.6,93,0.00,,,0.54,VWS V14.01,2013-06-13 02:33:00,
2013-06-12 21:34:00,63.9,61.8,28.85,NE,45,0.0,0.0,93,0.04,,,0.58,VWS V14.01,2013-06-13 02:34:00,
2013-06-12 21:35:00,63.9,61.8,28.85,NE,45,0.0,1.1,93,0.04,,,0.58,VWS V14.01,2013-06-13 02:35:00,
2013-06-12 21:36:00,63.9,61.8,28.85,NE,45,0.0,1.1,93,0.04,,BKN100,0.58,VWS V14.01,2013-06-13 02:36:00,
2013-06-12 21:37:00,63.9,61.8,28.85,NNE,22,1.6,1.6,93,0.04,,,0.58,VWS V14.01,2013-06-13 02:37:00,
2013-06-12 21:38:00,63.9,61.8,28.85,NNE,22,0.0,2.2,93,0.04,,,0.58,VWS V14.01,2013-06-13 02:38:00,
2013-06-12 21:39:00,63.9,61.8,28.85,NE,45,0.9,2.7,93,0.04,,,0.58,VWS V14.01,2013-06-13 02:39:00,
2013-06-12 21:40:00,63.9,61.8,28.85,NNE,22,0.0,0.9,93,0.04,,,0.58,VWS V14.01,2013-06-13 02:40:00,
2013-06-12 21:41:00,63.9,61.8,28.85,NNE,22,0.0,0.9,93,0.04,,BKN100,0.58,VWS V14.01,2013-06-13 02:41:00,
2013-06-12 21:42:00,63.9,61.8,28.85,North,0,2.7,2.7,93,0.04,,,0.58,VWS V14.01,2013-06-13 02:42:00,
2013-06-12 21:44:00,63.9,61.8,28.85,North,0,2.2,2.7,93,0.04,,,0.58,VWS V14.01,2013-06-13 02:44:00,
2013-06-12 21:45:00,63.9,61.8,28.85,North,0,0.0,2.9,93,0.04,,,0.58,VWS V14.01,2013-06-13 02:45:00,
2013-06-12 21:46:00,63.9,61.8,28.85,NE,45,1.3,2.0,93,0.04,,BKN100,0.58,VWS V14.01,2013-06-13 02:46:00,
2013-06-12 21:47:00,63.7,61.6,28.85,NNE,22,1.1,3.1,93,0.04,,,0.58,VWS V14.01,2013-06-13 02:47:00,
2013-06-12 21:48:00,63.7,61.6,28.85,NNE,22,0.9,2.0,93,0.04,,,0.58,VWS V14.01,2013-06-13 02:48:00,
2013-06-12 21:49:00,63.7,61.6,28.85,NE,45,0.0,0.9,93,0.04,,,0.58,VWS V14.01,2013-06-13 02:49:00,
2013-06-12 21:50:00,63.7,61.6,28.85,East,90,0.0,0.0,93,0.04,,,0.58,VWS V14.01,2013-06-13 02:50:00,
2013-06-12 21:51:00,63.7,61.6,28.85,North,0,2.0,2.0,93,0.04,,BKN100,0.58,VWS V14.01,2013-06-13 02:51:00,
2013-06-12 21:52:00,63.7,61.6,28.85,North,0,1.6,2.0,93,0.04,,,0.58,VWS V14.01,2013-06-13 02:52:00,
2013-06-12 21:53:00,63.7,61.6,28.85,WNW,292,2.5,2.5,93,0.04,,,0.58,VWS V14.01,2013-06-13 02:53:00,
2013-06-12 21:54:00,63.7,61.6,28.85,NNW,338,0.0,2.5,93,0.04,,,0.58,VWS V14.01,2013-06-13 02:54:00,
2013-06-12 21:56:00,63.7,61.6,28.85,NNW,338,2.0,2.2,93,0.04,,BKN100,0.58,VWS V14.01,2013-06-13 02:56:00,
2013-06-12 21:57:00,63.7,61.6,28.85,North,0,1.3,3.4,93,0.04,,,0.58,VWS V14.01,2013-06-13 02:57:00,
2013-06-12 21:58:00,63.7,61.6,28.85,North,0,2.9,2.9,93,0.04,,,0.58,VWS V14.01,2013-06-13 02:58:00,
2013-06-12 21:59:00,63.7,61.6,28.85,North,0,0.0,3.4,93,0.04,,,0.58,VWS V14.01,2013-06-13 02:59:00,
2013-06-12 22:00:00,63.7,61.6,28.85,North,0,2.5,2.5,93,0.04,,,0.58,VWS V14.01,2013-06-13 03:00:00,
2013-06-12 22:01:00,63.7,61.6,28.85,NW,315,1.3,2.7,93,0.04,,-RA,0.58,VWS V14.01,2013-06-13 03:01:00,
2013-06-12 22:02:00,63.5,61.4,28.85,NNW,338,2.0,3.1,93,0.04,,,0.58,VWS V14.01,2013-06-13 03:02:00,
2013-06-12 22:03:00,63.5,61.4,28.85,NNW,338,1.6,2.9,93,0.04,,,0.58,VWS V14.01,2013-06-13 03:03:00,
2013-06-12 22:04:00,63.5,61.4,28.85,North,0,2.7,2.7,93,0.04,,,0.58,VWS V14.01,2013-06-13 03:04:00,
2013-06-12 22:05:00,63.5,61.4,28.85,WNW,292,2.7,2.9,93,0.04,,,0.58,VWS V14.01,2013-06-13 03:05:00,
2013-06-12 22:06:00,63.5,61.4,28.85,WNW,292,2.7,2.9,93,0.04,,-RA,0.58,VWS V14.01,2013-06-13 03:06:00,
2013-06-12 22:07:00,63.5,61.4,28.85,North,0,2.7,3.8,93,0.04,,,0.58,VWS V14.01,2013-06-13 03:07:00,
2013-06-12 22:08:00,63.5,61.4,28.85,North,0,2.7,2.7,93,0.04,,,0.58,VWS V14.01,2013-06-13 03:08:00,
2013-06-12 22:09:00,63.5,61.4,28.85,WNW,292,3.1,3.1,93,0.04,,,0.58,VWS V14.01,2013-06-13 03:09:00,
2013-06-12 22:10:00,63.3,61.3,28.88,WNW,292,2.7,4.7,93,0.04,,,0.58,VWS V14.01,2013-06-13 03:10:00,
2013-06-12 22:11:00,63.3,61.3,28.88,NNW,338,3.4,3.8,93,0.04,,-RA,0.58,VWS V14.01,2013-06-13 03:11:00,
2013-06-12 22:12:00,63.3,61.3,28.88,SSW,202,0.0,2.9,93,0.04,,,0.58,VWS V14.01,2013-06-13 03:12:00,
2013-06-12 22:13:00,63.3,61.3,28.88,WNW,292,3.6,3.6,93,0.04,,,0.58,VWS V14.01,2013-06-13 03:13:00,
2013-06-12 22:14:00,63.3,61.3,28.88,WNW,292,2.0,6.0,93,0.04,,,0.58,VWS V14.01,2013-06-13 03:14:00,
2013-06-12 22:15:00,63.3,61.3,28.88,SE,135,2.5,2.7,93,0.04,,-RA,0.58,VWS V14.01,2013-06-13 03:15:00,
2013-06-12 22:16:00,63.3,61.3,28.88,SE,135,2.5,2.7,93,0.04,,,0.58,VWS V14.01,2013-06-13 03:16:00,
2013-06-12 22:17:00,63.3,61.6,28.88,East,90,1.1,3.4,94,0.04,,,0.58,VWS V14.01,2013-06-13 03:17:00,
2013-06-12 22:18:00,63.3,61.6,28.88,East,90,2.2,3.6,94,0.04,,,0.58,VWS V14.01,2013-06-13 03:18:00,
2013-06-12 22:19:00,63.3,61.6,28.88,East,90,2.5,2.9,94,0.08,,,0.62,VWS V14.01,2013-06-13 03:19:00,
2013-06-12 22:20:00,63.3,61.6,28.88,ENE,68,0.0,2.7,94,0.16,,-RA,0.70,VWS V14.01,2013-06-13 03:20:00,
2013-06-12 22:21:00,63.3,61.6,28.88,ESE,112,0.0,2.7,94,0.16,,,0.70,VWS V14.01,2013-06-13 03:21:00,
2013-06-12 22:22:00,63.3,61.6,28.88,ESE,112,0.0,0.0,94,0.16,,,0.70,VWS V14.01,2013-06-13 03:22:00,
2013-06-12 22:23:00,63.3,61.6,28.82,ESE,112,3.8,7.2,94,0.21,,,0.75,VWS V14.01,2013-06-13 03:23:00,
2013-06-12 22:24:00,63.1,61.4,28.82,NNW,338,5.4,5.4,94,0.21,,,0.75,VWS V14.01,2013-06-13 03:24:00,
2013-06-12 22:25:00,63.1,61.4,28.82,North,0,3.6,3.6,94,0.21,,-RA,0.75,VWS V14.01,2013-06-13 03:25:00,
2013-06-12 22:26:00,63.1,61.4,28.82,North,0,3.6,3.6,94,0.21,,,0.75,VWS V14.01,2013-06-13 03:26:00,
2013-06-12 22:27:00,63.1,61.4,28.82,SW,225,2.2,3.6,94,0.21,,,0.75,VWS V14.01,2013-06-13 03:27:00,
2013-06-12 22:28:00,63.1,61.4,28.82,East,90,2.9,2.9,94,0.21,,,0.75,VWS V14.01,2013-06-13 03:28:00,
2013-06-12 22:29:00,63.1,61.4,28.82,NNE,22,1.3,2.9,94,0.21,,,0.75,VWS V14.01,2013-06-13 03:29:00,
2013-06-12 22:30:00,63.1,61.4,28.82,South,180,3.1,3.1,94,0.21,,-RA,0.75,VWS V14.01,2013-06-13 03:30:00,
2013-06-12 22:31:00,63.1,61.4,28.82,South,180,3.1,3.1,94,0.21,,,0.75,VWS V14.01,2013-06-13 03:31:00,
2013-06-12 22:32:00,63.1,61.4,28.82,SSE,158,0.9,3.1,94,0.21,,,0.75,VWS V14.01,2013-06-13 03:32:00,
2013-06-12 22:33:00,63.1,61.4,28.82,North,0,2.0,2.9,94,0.21,,,0.75,VWS V14.01,2013-06-13 03:33:00,
2013-06-12 22:34:00,63.1,61.4,28.82,North,0,2.2,2.2,94,0.21,,,0.75,VWS V14.01,2013-06-13 03:34:00,
2013-06-12 22:35:00,63.1,61.4,28.82,SSE,158,1.3,3.4,94,0.17,,-RA,0.75,VWS V14.01,2013-06-13 03:35:00,
2013-06-12 22:36:00,63.1,61.4,28.82,SSE,158,2.7,3.4,94,0.17,,,0.75,VWS V14.01,2013-06-13 03:36:00,
2013-06-12 22:37:00,63.1,61.4,28.82,ENE,68,0.0,2.7,94,0.17,,,0.75,VWS V14.01,2013-06-13 03:37:00,
2013-06-12 22:38:00,63.1,61.4,28.85,NNW,338,2.0,3.1,94,0.17,,,0.75,VWS V14.01,2013-06-13 03:38:00,
2013-06-12 22:39:00,63.1,61.4,28.85,North,0,2.7,2.7,94,0.17,,,0.75,VWS V14.01,2013-06-13 03:39:00,
2013-06-12 22:40:00,63.1,61.4,28.85,NNE,22,2.9,2.9,94,0.17,,-RA,0.75,VWS V14.01,2013-06-13 03:40:00,
2013-06-12 22:41:00,63.1,61.4,28.85,NNE,22,2.9,2.9,94,0.17,,,0.75,VWS V14.01,2013-06-13 03:41:00,
2013-06-12 22:42:00,63.1,61.4,28.85,NNE,22,3.4,3.4,94,0.17,,,0.75,VWS V14.01,2013-06-13 03:42:00,
2013-06-12 22:43:00,63.1,61.4,28.85,NNE,22,2.5,3.4,94,0.17,,,0.75,VWS V14.01,2013-06-13 03:43:00,
2013-06-12 22:44:00,63.1,61.4,28.85,NE,45,2.0,2.9,94,0.17,,,0.75,VWS V14.01,2013-06-13 03:44:00,
2013-06-12 22:45:00,63.1,61.4,28.85,SSE,158,0.0,2.7,94,0.17,,-RA,0.75,VWS V14.01,2013-06-13 03:45:00,
2013-06-12 22:46:00,63.1,61.4,28.85,North,0,0.0,2.7,94,0.17,,,0.75,VWS V14.01,2013-06-13 03:46:00,
2013-06-12 22:47:00,63.1,61.4,28.85,SSE,158,0.0,0.0,94,0.17,,,0.75,VWS V14.01,2013-06-13 03:47:00,
2013-06-12 22:48:00,63.1,61.7,28.85,SSE,158,0.0,1.1,95,0.17,,,0.75,VWS V14.01,2013-06-13 03:48:00,
2013-06-12 22:49:00,63.1,61.7,28.85,NNE,22,2.5,2.7,95,0.17,,,0.75,VWS V14.01,2013-06-13 03:49:00,
2013-06-12 22:50:00,63.1,61.7,28.85,North,0,0.0,2.9,95,0.17,,,0.75,VWS V14.01,2013-06-13 03:50:00,
2013-06-12 22:51:00,63.1,61.7,28.85,North,0,0.0,2.9,95,0.17,,,0.75,VWS V14.01,2013-06-13 03:51:00,
2013-06-12 22:52:00,63.1,61.7,28.85,ESE,112,0.0,2.5,95,0.17,,,0.75,VWS V14.01,2013-06-13 03:52:00,
2013-06-12 22:53:00,63.1,61.7,28.85,East,90,0.9,2.5,95,0.17,,,0.75,VWS V14.01,2013-06-13 03:53:00,
2013-06-12 22:54:00,63.1,61.7,28.82,East,90,0.0,0.9,95,0.17,,,0.75,VWS V14.01,2013-06-13 03:54:00,
2013-06-12 22:55:00,63.1,61.7,28.82,North,0,2.0,2.0,95,0.17,,,0.75,VWS V14.01,2013-06-13 03:55:00,
2013-06-12 22:56:00,63.1,61.7,28.82,NNE,22,0.9,2.0,95,0.17,,,0.75,VWS V14.01,2013-06-13 03:56:00,
2013-06-12 22:57:00,63.1,61.7,28.82,NNE,22,0.9,1.1,95,0.17,,,0.75,VWS V14.01,2013-06-13 03:57:00,
2013-06-12 22:58:00,63.1,61.7,28.82,NNE,22,1.3,1.3,95,0.17,,,0.75,VWS V14.01,2013-06-13 03:58:00,
2013-06-12 22:59:00,63.1,61.7,28.82,NNE,22,2.2,2.2,95,0.17,,,0.75,VWS V14.01,2013-06-13 03:59:00,
2013-06-12 23:00:00,63.1,61.7,28.82,North,0,1.1,2.5,95,0.17,,,0.75,VWS V14.01,2013-06-13 04:00:00,
2013-06-12 23:01:00,63.1,61.7,28.82,North,0,1.1,2.5,95,0.17,,,0.75,VWS V14.01,2013-06-13 04:01:00,
2013-06-12 23:02:00,63.1,61.7,28.82,North,0,0.0,0.0,95,0.17,,,0.75,VWS V14.01,2013-06-13 04:02:00,
2013-06-12 23:03:00,63.1,61.7,28.82,North,0,2.0,2.0,95,0.17,,,0.75,VWS V14.01,2013-06-13 04:03:00,
2013-06-12 23:04:00,63.1,61.7,28.82,North,0,0.0,2.0,95,0.17,,,0.75,VWS V14.01,2013-06-13 04:04:00,
2013-06-12 23:05:00,63.1,61.7,28.82,North,0,0.0,0.9,95,0.17,,,0.75,VWS V14.01,2013-06-13 04:05:00,
2013-06-12 23:06:00,63.1,61.4,28.82,North,0,0.0,0.0,94,0.17,,,0.75,VWS V14.01,2013-06-13 04:06:00,
2013-06-12 23:07:00,63.1,61.4,28.82,North,0,0.0,0.0,94,0.17,,,0.75,VWS V14.01,2013-06-13 04:07:00,
2013-06-12 23:08:00,63.1,61.4,28.85,North,0,0.0,0.0,94,0.17,,,0.75,VWS V14.01,2013-06-13 04:08:00,
2013-06-12 23:09:00,63.1,61.7,28.85,North,0,0.0,0.0,95,0.17,,,0.75,VWS V14.01,2013-06-13 04:09:00,
2013-06-12 23:10:00,63.1,61.7,28.85,North,0,0.0,0.0,95,0.17,,,0.75,VWS V14.01,2013-06-13 04:10:00,
2013-06-12 23:11:00,63.1,61.7,28.85,NE,45,0.0,0.0,95,0.17,,-RA,0.75,VWS V14.01,2013-06-13 04:11:00,
2013-06-12 23:12:00,63.1,61.7,28.85,SSE,158,0.0,0.0,95,0.17,,,0.75,VWS V14.01,2013-06-13 04:12:00,
2013-06-12 23:13:00,63.1,61.7,28.85,SSE,158,0.0,0.0,95,0.17,,,0.75,VWS V14.01,2013-06-13 04:13:00,
2013-06-12 23:14:00,63.1,61.7,28.85,North,0,0.0,0.0,95,0.17,,,0.75,VWS V14.01,2013-06-13 04:14:00,
2013-06-12 23:15:00,63.1,61.7,28.85,North,0,1.1,1.1,95,0.17,,,0.75,VWS V14.01,2013-06-13 04:15:00,
2013-06-12 23:16:00,63.1,61.7,28.85,North,0,1.3,1.3,95,0.17,,-RA,0.75,VWS V14.01,2013-06-13 04:16:00,
2013-06-12 23:17:00,63.1,61.7,28.85,NE,45,2.7,2.7,95,0.17,,,0.75,VWS V14.01,2013-06-13 04:17:00,
2013-06-12 23:18:00,63.1,61.7,28.85,NNE,22,2.7,2.9,95,0.17,,,0.75,VWS V14.01,2013-06-13 04:18:00,
2013-06-12 23:19:00,63.1,61.7,28.85,NNE,22,2.5,2.7,95,0.17,,,0.75,VWS V14.01,2013-06-13 04:19:00,
2013-06-12 23:20:00,63.1,61.7,28.85,East,90,2.0,3.6,95,0.13,,,0.75,VWS V14.01,2013-06-13 04:20:00,
2013-06-12 23:21:00,63.1,61.7,28.85,North,0,0.0,1.3,95,0.05,,-RA,0.75,VWS V14.01,2013-06-13 04:21:00,
2013-06-12 23:22:00,63.1,61.7,28.85,North,0,0.0,1.3,95,0.05,,,0.75,VWS V14.01,2013-06-13 04:22:00,
2013-06-12 23:23:00,63.1,61.7,28.82,North,0,0.0,3.8,95,0.05,,,0.75,VWS V14.01,2013-06-13 04:23:00,
2013-06-12 23:24:00,63.1,61.7,28.82,North,0,1.1,2.0,95,0.00,,,0.75,VWS V14.01,2013-06-13 04:24:00,
2013-06-12 23:25:00,63.1,61.7,28.82,East,90,0.0,1.1,95,0.00,,,0.75,VWS V14.01,2013-06-13 04:25:00,
2013-06-12 23:26:00,63.1,61.7,28.82,NE,45,0.0,0.0,95,0.00,,-RA,0.75,VWS V14.01,2013-06-13 04:26:00,
2013-06-12 23:27:00,63.1,61.7,28.82,NNE,22,1.3,1.3,95,0.00,,,0.75,VWS V14.01,2013-06-13 04:27:00,
2013-06-12 23:28:00,63.1,61.7,28.82,NNE,22,2.2,2.2,95,0.00,,,0.75,VWS V14.01,2013-06-13 04:28:00,
2013-06-12 23:29:00,63.1,61.7,28.82,NNE,22,0.0,2.2,95,0.00,,,0.75,VWS V14.01,2013-06-13 04:29:00,
2013-06-12 23:30:00,63.1,61.7,28.82,East,90,0.0,0.0,95,0.00,,,0.75,VWS V14.01,2013-06-13 04:30:00,
2013-06-12 23:31:00,63.1,61.7,28.82,East,90,2.0,2.0,95,0.00,,BKN110,0.75,VWS V14.01,2013-06-13 04:31:00,
2013-06-12 23:32:00,63.1,61.7,28.82,East,90,1.6,2.0,95,0.00,,,0.75,VWS V14.01,2013-06-13 04:32:00,
2013-06-12 23:33:00,63.1,61.7,28.82,East,90,0.0,1.6,95,0.00,,,0.75,VWS V14.01,2013-06-13 04:33:00,
2013-06-12 23:34:00,63.1,61.7,28.82,East,90,0.0,0.0,95,0.00,,,0.75,VWS V14.01,2013-06-13 04:34:00,
2013-06-12 23:35:00,63.1,61.7,28.82,East,90,0.0,0.0,95,0.00,,,0.75,VWS V14.01,2013-06-13 04:35:00,
2013-06-12 23:36:00,63.1,61.7,28.82,SE,135,1.6,1.6,95,0.00,,BKN110,0.75,VWS V14.01,2013-06-13 04:36:00,
2013-06-12 23:37:00,63.1,61.7,28.82,SSE,158,1.3,1.6,95,0.00,,,0.75,VWS V14.01,2013-06-13 04:37:00,
2013-06-12 23:38:00,63.1,61.7,28.85,SSE,158,1.6,1.6,95,0.00,,,0.75,VWS V14.01,2013-06-13 04:38:00,
2013-06-12 23:39:00,63.1,61.7,28.85,SSE,158,1.6,1.6,95,0.00,,,0.75,VWS V14.01,2013-06-13 04:39:00,
2013-06-12 23:40:00,63.1,61.7,28.85,SSE,158,0.0,1.6,95,0.00,,,0.75,VWS V14.01,2013-06-13 04:40:00,
2013-06-12 23:41:00,63.1,61.7,28.85,SSE,158,0.0,0.0,95,0.00,,BKN110,0.75,VWS V14.01,2013-06-13 04:41:00,
2013-06-12 23:42:00,63.1,61.7,28.85,SSE,158,0.0,0.0,95,0.00,,,0.75,VWS V14.01,2013-06-13 04:42:00,
2013-06-12 23:43:00,63.1,61.7,28.85,SSE,158,0.0,0.0,95,0.00,,,0.75,VWS V14.01,2013-06-13 04:43:00,
2013-06-12 23:44:00,63.1,61.7,28.85,SSE,158,0.0,0.0,95,0.00,,,0.75,VWS V14.01,2013-06-13 04:44:00,
2013-06-12 23:45:00,63.1,61.7,28.85,SSE,158,0.0,0.0,95,0.00,,,0.75,VWS V14.01,2013-06-13 04:45:00,
2013-06-12 23:46:00,63.1,61.7,28.85,NE,45,0.0,0.0,95,0.00,,BKN110,0.75,VWS V14.01,2013-06-13 04:46:00,
2013-06-12 23:47:00,63.1,61.7,28.85,NE,45,0.0,0.0,95,0.00,,,0.75,VWS V14.01,2013-06-13 04:47:00,
2013-06-12 23:48:00,63.1,61.7,28.85,NE,45,0.0,0.0,95,0.00,,,0.75,VWS V14.01,2013-06-13 04:48:00,
2013-06-12 23:49:00,63.1,61.7,28.85,East,90,0.0,0.9,95,0.00,,,0.75,VWS V14.01,2013-06-13 04:49:00,
2013-06-12 23:50:00,63.1,61.7,28.85,ESE,112,2.0,2.0,95,0.00,,,0.75,VWS V14.01,2013-06-13 04:50:00,
2013-06-12 23:51:00,63.1,61.7,28.85,ESE,112,1.3,1.6,95,0.00,,BKN110,0.75,VWS V14.01,2013-06-13 04:51:00,
2013-06-12 23:52:00,63.1,61.7,28.85,ESE,112,0.0,1.6,95,0.00,,,0.75,VWS V14.01,2013-06-13 04:52:00,
2013-06-12 23:53:00,63.1,61.7,28.85,North,0,0.0,0.9,95,0.00,,,0.75,VWS V14.01,2013-06-13 04:53:00,
2013-06-12 23:55:00,63.1,61.7,28.85,ENE,68,0.0,0.0,95,0.00,,,0.75,VWS V14.01,2013-06-13 04:55:00,
2013-06-12 23:56:00,63.3,61.9,28.85,SE,135,3.6,3.6,95,0.00,,OVC004,0.75,VWS V14.01,2013-06-13 04:56:00,
2013-06-12 23:57:00,63.3,61.9,28.85,ESE,112,3.8,3.8,95,0.00,,,0.75,VWS V14.01,2013-06-13 04:57:00,
2013-06-12 23:58:00,63.3,61.9,28.85,SSE,158,0.0,3.8,95,0.00,,,0.75,VWS V14.01,2013-06-13 04:58:00,
2013-06-12 23:59:00,63.3,61.9,28.85,NE,45,0.0,0.9,95,0.00,,,0.75,VWS V14.01,2013-06-13 04:59:00,